<?xml version="1.0" encoding="UTF-8" standalone="no" ?>
<gpx xmlns="http://www.topografix.com/GPX/1/1" xmlns:xsi="http://www.w3.org/2001/XMLSchema-instance" xsi:schemaLocation="http://www.topografix.com/GPX/1/1 http://www.topografix.com/GPX/1/1/gpx.xsd" version="1.1" creator="VisuGPX - https://www.visugpx.com">
  <metadata>
    <name>Barcelona T2 - Ferry</name>
  </metadata>
  <trk>
    <name><![CDATA[Barcelona T2 - Ferry]]></name>
    <extensions>
      <line xmlns="http://www.topografix.com/GPX/gpx_style/0/2">
        <color>0000FF</color>
        <width>4</width>
      </line>
    </extensions>
    <trkseg>
      <trkpt lat="41.3072" lon="2.05787">
        <ele>43.97514</ele>
        <time>2022-12-31T14:25:48.051Z</time>
      </trkpt>
      <trkpt lat="41.30716" lon="2.05807">
        <ele>43.97514</ele>
        <time>2022-12-31T14:25:49.003Z</time>
      </trkpt>
      <trkpt lat="41.30726" lon="2.05811">
        <ele>43.97514</ele>
        <time>2022-12-31T14:25:55.007Z</time>
      </trkpt>
      <trkpt lat="41.30721" lon="2.058">
        <ele>43.97514</ele>
        <time>2022-12-31T14:29:16.022Z</time>
      </trkpt>
      <trkpt lat="41.30713" lon="2.05807">
        <ele>43.97514</ele>
        <time>2022-12-31T14:29:24.999Z</time>
      </trkpt>
      <trkpt lat="41.30721" lon="2.058">
        <ele>43.97514</ele>
        <time>2022-12-31T14:29:37.023Z</time>
      </trkpt>
      <trkpt lat="41.30729" lon="2.05794">
        <ele>43.97514</ele>
        <time>2022-12-31T14:29:43.030Z</time>
      </trkpt>
      <trkpt lat="41.30738" lon="2.05789">
        <ele>43.97514</ele>
        <time>2022-12-31T14:29:49.004Z</time>
      </trkpt>
      <trkpt lat="41.30745" lon="2.05798">
        <ele>43.97514</ele>
        <time>2022-12-31T14:29:56.003Z</time>
      </trkpt>
      <trkpt lat="41.30753" lon="2.05805">
        <ele>44.008369</ele>
        <time>2022-12-31T14:30:02.018Z</time>
      </trkpt>
      <trkpt lat="41.30756" lon="2.05792">
        <ele>44.148362</ele>
        <time>2022-12-31T14:30:09.022Z</time>
      </trkpt>
      <trkpt lat="41.30748" lon="2.05785">
        <ele>44.285657</ele>
        <time>2022-12-31T14:30:16.014Z</time>
      </trkpt>
      <trkpt lat="41.30746" lon="2.05772">
        <ele>44.436448</ele>
        <time>2022-12-31T14:30:21.025Z</time>
      </trkpt>
      <trkpt lat="41.30737" lon="2.05765">
        <ele>44.58777</ele>
        <time>2022-12-31T14:30:27.041Z</time>
      </trkpt>
      <trkpt lat="41.30727" lon="2.05768">
        <ele>44.734287</ele>
        <time>2022-12-31T14:30:31.017Z</time>
      </trkpt>
      <trkpt lat="41.30718" lon="2.05772">
        <ele>44.884688</ele>
        <time>2022-12-31T14:30:35.046Z</time>
      </trkpt>
      <trkpt lat="41.30707" lon="2.05779">
        <ele>45.054883</ele>
        <time>2022-12-31T14:30:39.038Z</time>
      </trkpt>
      <trkpt lat="41.30697" lon="2.05785">
        <ele>45.21619</ele>
        <time>2022-12-31T14:30:43.016Z</time>
      </trkpt>
      <trkpt lat="41.30689" lon="2.05791">
        <ele>45.359159</ele>
        <time>2022-12-31T14:30:47.019Z</time>
      </trkpt>
      <trkpt lat="41.30681" lon="2.05797">
        <ele>45.495349</ele>
        <time>2022-12-31T14:30:51.031Z</time>
      </trkpt>
      <trkpt lat="41.30672" lon="2.05803">
        <ele>45.645414</ele>
        <time>2022-12-31T14:30:55.048Z</time>
      </trkpt>
      <trkpt lat="41.30662" lon="2.05808">
        <ele>45.796268</ele>
        <time>2022-12-31T14:30:59.043Z</time>
      </trkpt>
      <trkpt lat="41.30653" lon="2.05815">
        <ele>45.958363</ele>
        <time>2022-12-31T14:31:03.018Z</time>
      </trkpt>
      <trkpt lat="41.30643" lon="2.05823">
        <ele>46.127243</ele>
        <time>2022-12-31T14:31:07.015Z</time>
      </trkpt>
      <trkpt lat="41.30632" lon="2.05829">
        <ele>46.303764</ele>
        <time>2022-12-31T14:31:11.034Z</time>
      </trkpt>
      <trkpt lat="41.30623" lon="2.05834">
        <ele>46.440644</ele>
        <time>2022-12-31T14:31:14.041Z</time>
      </trkpt>
      <trkpt lat="41.30614" lon="2.05836">
        <ele>46.585197</ele>
        <time>2022-12-31T14:31:17.017Z</time>
      </trkpt>
      <trkpt lat="41.30604" lon="2.05843">
        <ele>46.649562</ele>
        <time>2022-12-31T14:31:21.019Z</time>
      </trkpt>
      <trkpt lat="41.30596" lon="2.0585">
        <ele>46.669426</ele>
        <time>2022-12-31T14:31:26.017Z</time>
      </trkpt>
      <trkpt lat="41.30586" lon="2.05852">
        <ele>46.69004</ele>
        <time>2022-12-31T14:31:30.031Z</time>
      </trkpt>
      <trkpt lat="41.30576" lon="2.05854">
        <ele>46.711892</ele>
        <time>2022-12-31T14:31:34.032Z</time>
      </trkpt>
      <trkpt lat="41.30567" lon="2.0585">
        <ele>46.732069</ele>
        <time>2022-12-31T14:31:38.031Z</time>
      </trkpt>
      <trkpt lat="41.30559" lon="2.05843">
        <ele>46.751243</ele>
        <time>2022-12-31T14:31:42.009Z</time>
      </trkpt>
      <trkpt lat="41.30552" lon="2.05849">
        <ele>46.770036</ele>
        <time>2022-12-31T14:31:48.036Z</time>
      </trkpt>
      <trkpt lat="41.30553" lon="2.05861">
        <ele>46.788885</ele>
        <time>2022-12-31T14:31:51.032Z</time>
      </trkpt>
      <trkpt lat="41.30554" lon="2.05875">
        <ele>46.8109</ele>
        <time>2022-12-31T14:31:54.007Z</time>
      </trkpt>
      <trkpt lat="41.30555" lon="2.0589">
        <ele>46.834142</ele>
        <time>2022-12-31T14:31:57.013Z</time>
      </trkpt>
      <trkpt lat="41.30553" lon="2.05905">
        <ele>46.858442</ele>
        <time>2022-12-31T14:32:00.025Z</time>
      </trkpt>
      <trkpt lat="41.30547" lon="2.0592">
        <ele>46.883897</ele>
        <time>2022-12-31T14:32:03.024Z</time>
      </trkpt>
      <trkpt lat="41.3054" lon="2.05932">
        <ele>46.908122</ele>
        <time>2022-12-31T14:32:06.030Z</time>
      </trkpt>
      <trkpt lat="41.30529" lon="2.05938">
        <ele>46.933487</ele>
        <time>2022-12-31T14:32:09.030Z</time>
      </trkpt>
      <trkpt lat="41.30517" lon="2.05938">
        <ele>46.957955</ele>
        <time>2022-12-31T14:32:12.037Z</time>
      </trkpt>
      <trkpt lat="41.30506" lon="2.05933">
        <ele>46.982632</ele>
        <time>2022-12-31T14:32:15.026Z</time>
      </trkpt>
      <trkpt lat="41.30495" lon="2.05932">
        <ele>47.006571</ele>
        <time>2022-12-31T14:32:18.009Z</time>
      </trkpt>
      <trkpt lat="41.30483" lon="2.05931">
        <ele>47.083819</ele>
        <time>2022-12-31T14:32:21.035Z</time>
      </trkpt>
      <trkpt lat="41.30471" lon="2.05933">
        <ele>47.169462</ele>
        <time>2022-12-31T14:32:24.011Z</time>
      </trkpt>
      <trkpt lat="41.3046" lon="2.05936">
        <ele>47.252409</ele>
        <time>2022-12-31T14:32:27.029Z</time>
      </trkpt>
      <trkpt lat="41.30449" lon="2.05943">
        <ele>47.338429</ele>
        <time>2022-12-31T14:32:29.995Z</time>
      </trkpt>
      <trkpt lat="41.30439" lon="2.05951">
        <ele>47.423911</ele>
        <time>2022-12-31T14:32:33.037Z</time>
      </trkpt>
      <trkpt lat="41.30429" lon="2.05962">
        <ele>47.517372</ele>
        <time>2022-12-31T14:32:36.024Z</time>
      </trkpt>
      <trkpt lat="41.3042" lon="2.05974">
        <ele>47.608334</ele>
        <time>2022-12-31T14:32:39.015Z</time>
      </trkpt>
      <trkpt lat="41.30414" lon="2.05988">
        <ele>47.695463</ele>
        <time>2022-12-31T14:32:42.014Z</time>
      </trkpt>
      <trkpt lat="41.30409" lon="2.06002">
        <ele>47.78184</ele>
        <time>2022-12-31T14:32:45.014Z</time>
      </trkpt>
      <trkpt lat="41.30406" lon="2.06017">
        <ele>47.864021</ele>
        <time>2022-12-31T14:32:48.005Z</time>
      </trkpt>
      <trkpt lat="41.30405" lon="2.06031">
        <ele>47.939654</ele>
        <time>2022-12-31T14:32:51.021Z</time>
      </trkpt>
      <trkpt lat="41.30405" lon="2.06044">
        <ele>48.010803</ele>
        <time>2022-12-31T14:32:54.026Z</time>
      </trkpt>
      <trkpt lat="41.30405" lon="2.06056">
        <ele>48.078079</ele>
        <time>2022-12-31T14:32:57.042Z</time>
      </trkpt>
      <trkpt lat="41.30406" lon="2.06069">
        <ele>48.145895</ele>
        <time>2022-12-31T14:33:01.037Z</time>
      </trkpt>
      <trkpt lat="41.30404" lon="2.0609">
        <ele>48.265087</ele>
        <time>2022-12-31T14:37:31.029Z</time>
      </trkpt>
      <trkpt lat="41.30398" lon="2.06101">
        <ele>48.339629</ele>
        <time>2022-12-31T14:37:35.014Z</time>
      </trkpt>
      <trkpt lat="41.3039" lon="2.06107">
        <ele>48.410785</ele>
        <time>2022-12-31T14:37:40.024Z</time>
      </trkpt>
      <trkpt lat="41.30394" lon="2.06122">
        <ele>48.502141</ele>
        <time>2022-12-31T14:38:00.024Z</time>
      </trkpt>
      <trkpt lat="41.30397" lon="2.06134">
        <ele>48.576019</ele>
        <time>2022-12-31T14:38:04.023Z</time>
      </trkpt>
      <trkpt lat="41.30388" lon="2.06142">
        <ele>48.658747</ele>
        <time>2022-12-31T14:38:09.007Z</time>
      </trkpt>
      <trkpt lat="41.30377" lon="2.06148">
        <ele>48.751583</ele>
        <time>2022-12-31T14:38:13.017Z</time>
      </trkpt>
      <trkpt lat="41.30367" lon="2.06153">
        <ele>48.829433</ele>
        <time>2022-12-31T14:38:16.016Z</time>
      </trkpt>
      <trkpt lat="41.30359" lon="2.06158">
        <ele>48.903027</ele>
        <time>2022-12-31T14:38:19.024Z</time>
      </trkpt>
      <trkpt lat="41.30351" lon="2.06165">
        <ele>48.974607</ele>
        <time>2022-12-31T14:38:22.014Z</time>
      </trkpt>
      <trkpt lat="41.30343" lon="2.06176">
        <ele>49.065988</ele>
        <time>2022-12-31T14:38:26.009Z</time>
      </trkpt>
      <trkpt lat="41.30342" lon="2.06189">
        <ele>49.140917</ele>
        <time>2022-12-31T14:38:29.016Z</time>
      </trkpt>
      <trkpt lat="41.3034" lon="2.06202">
        <ele>49.214998</ele>
        <time>2022-12-31T14:38:32.019Z</time>
      </trkpt>
      <trkpt lat="41.30336" lon="2.06214">
        <ele>49.290315</ele>
        <time>2022-12-31T14:38:35.024Z</time>
      </trkpt>
      <trkpt lat="41.30336" lon="2.06227">
        <ele>49.367607</ele>
        <time>2022-12-31T14:38:40.041Z</time>
      </trkpt>
      <trkpt lat="41.30328" lon="2.06237">
        <ele>49.449183</ele>
        <time>2022-12-31T14:38:45.015Z</time>
      </trkpt>
      <trkpt lat="41.30324" lon="2.06247">
        <ele>49.520493</ele>
        <time>2022-12-31T14:38:49.036Z</time>
      </trkpt>
      <trkpt lat="41.30327" lon="2.0626">
        <ele>49.601616</ele>
        <time>2022-12-31T14:38:53.028Z</time>
      </trkpt>
      <trkpt lat="41.30332" lon="2.0627">
        <ele>49.671878</ele>
        <time>2022-12-31T14:38:56.018Z</time>
      </trkpt>
      <trkpt lat="41.30336" lon="2.06282">
        <ele>49.741863</ele>
        <time>2022-12-31T14:38:59.028Z</time>
      </trkpt>
      <trkpt lat="41.3034" lon="2.06294">
        <ele>49.811913</ele>
        <time>2022-12-31T14:39:02.010Z</time>
      </trkpt>
      <trkpt lat="41.30344" lon="2.06306">
        <ele>49.880518</ele>
        <time>2022-12-31T14:39:05.019Z</time>
      </trkpt>
      <trkpt lat="41.30348" lon="2.0632">
        <ele>49.962615</ele>
        <time>2022-12-31T14:39:09.013Z</time>
      </trkpt>
      <trkpt lat="41.30353" lon="2.06331">
        <ele>50.027927</ele>
        <time>2022-12-31T14:39:12.036Z</time>
      </trkpt>
      <trkpt lat="41.30357" lon="2.06343">
        <ele>50.096311</ele>
        <time>2022-12-31T14:39:15.024Z</time>
      </trkpt>
      <trkpt lat="41.3036" lon="2.06355">
        <ele>50.162642</ele>
        <time>2022-12-31T14:39:18.021Z</time>
      </trkpt>
      <trkpt lat="41.30365" lon="2.06367">
        <ele>50.232396</ele>
        <time>2022-12-31T14:39:21.029Z</time>
      </trkpt>
      <trkpt lat="41.30369" lon="2.06378">
        <ele>50.301948</ele>
        <time>2022-12-31T14:39:24.019Z</time>
      </trkpt>
      <trkpt lat="41.30373" lon="2.0639">
        <ele>50.366969</ele>
        <time>2022-12-31T14:39:27.025Z</time>
      </trkpt>
      <trkpt lat="41.30376" lon="2.06402">
        <ele>50.435031</ele>
        <time>2022-12-31T14:39:30.033Z</time>
      </trkpt>
      <trkpt lat="41.30381" lon="2.06414">
        <ele>50.507262</ele>
        <time>2022-12-31T14:39:33.014Z</time>
      </trkpt>
      <trkpt lat="41.30385" lon="2.06427">
        <ele>50.583612</ele>
        <time>2022-12-31T14:39:36.028Z</time>
      </trkpt>
      <trkpt lat="41.30391" lon="2.06442">
        <ele>50.666972</ele>
        <time>2022-12-31T14:39:39.041Z</time>
      </trkpt>
      <trkpt lat="41.30395" lon="2.06456">
        <ele>50.748702</ele>
        <time>2022-12-31T14:39:42.020Z</time>
      </trkpt>
      <trkpt lat="41.304" lon="2.0647">
        <ele>50.832078</ele>
        <time>2022-12-31T14:39:45.016Z</time>
      </trkpt>
      <trkpt lat="41.30405" lon="2.06484">
        <ele>50.91429</ele>
        <time>2022-12-31T14:39:48.023Z</time>
      </trkpt>
      <trkpt lat="41.3041" lon="2.06499">
        <ele>50.963186</ele>
        <time>2022-12-31T14:39:51.034Z</time>
      </trkpt>
      <trkpt lat="41.30415" lon="2.06514">
        <ele>50.971219</ele>
        <time>2022-12-31T14:39:54.031Z</time>
      </trkpt>
      <trkpt lat="41.30421" lon="2.0653">
        <ele>50.979703</ele>
        <time>2022-12-31T14:39:57.022Z</time>
      </trkpt>
      <trkpt lat="41.30426" lon="2.06547">
        <ele>50.988122</ele>
        <time>2022-12-31T14:40:00.017Z</time>
      </trkpt>
      <trkpt lat="41.3043" lon="2.06558">
        <ele>50.99388</ele>
        <time>2022-12-31T14:40:02.020Z</time>
      </trkpt>
      <trkpt lat="41.30435" lon="2.06574">
        <ele>51.002235</ele>
        <time>2022-12-31T14:40:05.023Z</time>
      </trkpt>
      <trkpt lat="41.30441" lon="2.0659">
        <ele>51.010897</ele>
        <time>2022-12-31T14:40:08.036Z</time>
      </trkpt>
      <trkpt lat="41.30445" lon="2.06601">
        <ele>51.016618</ele>
        <time>2022-12-31T14:40:10.029Z</time>
      </trkpt>
      <trkpt lat="41.30438" lon="2.0661">
        <ele>51.022782</ele>
        <time>2022-12-31T14:40:19.012Z</time>
      </trkpt>
      <trkpt lat="41.30442" lon="2.06624">
        <ele>51.029908</ele>
        <time>2022-12-31T14:40:24.011Z</time>
      </trkpt>
      <trkpt lat="41.30449" lon="2.06632">
        <ele>51.035819</ele>
        <time>2022-12-31T14:40:27.030Z</time>
      </trkpt>
      <trkpt lat="41.30455" lon="2.06641">
        <ele>51.041564</ele>
        <time>2022-12-31T14:40:30.041Z</time>
      </trkpt>
      <trkpt lat="41.30459" lon="2.06652">
        <ele>51.047416</ele>
        <time>2022-12-31T14:40:34.023Z</time>
      </trkpt>
      <trkpt lat="41.30465" lon="2.06665">
        <ele>51.054704</ele>
        <time>2022-12-31T14:40:38.023Z</time>
      </trkpt>
      <trkpt lat="41.30472" lon="2.06678">
        <ele>51.062304</ele>
        <time>2022-12-31T14:40:42.031Z</time>
      </trkpt>
      <trkpt lat="41.30476" lon="2.06691">
        <ele>51.068999</ele>
        <time>2022-12-31T14:40:45.009Z</time>
      </trkpt>
      <trkpt lat="41.3048" lon="2.06705">
        <ele>51.074115</ele>
        <time>2022-12-31T14:40:48.019Z</time>
      </trkpt>
      <trkpt lat="41.30485" lon="2.06718">
        <ele>51.075441</ele>
        <time>2022-12-31T14:40:51.016Z</time>
      </trkpt>
      <trkpt lat="41.30489" lon="2.06732">
        <ele>51.07679</ele>
        <time>2022-12-31T14:40:54.005Z</time>
      </trkpt>
      <trkpt lat="41.30494" lon="2.06747">
        <ele>51.078228</ele>
        <time>2022-12-31T14:40:57.040Z</time>
      </trkpt>
      <trkpt lat="41.30501" lon="2.06762">
        <ele>51.079694</ele>
        <time>2022-12-31T14:41:00.021Z</time>
      </trkpt>
      <trkpt lat="41.30505" lon="2.06777">
        <ele>51.081105</ele>
        <time>2022-12-31T14:41:03.013Z</time>
      </trkpt>
      <trkpt lat="41.3051" lon="2.06792">
        <ele>51.082524</ele>
        <time>2022-12-31T14:41:06.040Z</time>
      </trkpt>
      <trkpt lat="41.30515" lon="2.06807">
        <ele>51.083975</ele>
        <time>2022-12-31T14:41:09.020Z</time>
      </trkpt>
      <trkpt lat="41.30521" lon="2.06822">
        <ele>51.085441</ele>
        <time>2022-12-31T14:41:12.011Z</time>
      </trkpt>
      <trkpt lat="41.30525" lon="2.06837">
        <ele>51.086827</ele>
        <time>2022-12-31T14:41:15.017Z</time>
      </trkpt>
      <trkpt lat="41.3053" lon="2.06852">
        <ele>51.088315</ele>
        <time>2022-12-31T14:41:18.025Z</time>
      </trkpt>
      <trkpt lat="41.30536" lon="2.06867">
        <ele>51.089749</ele>
        <time>2022-12-31T14:41:21.020Z</time>
      </trkpt>
      <trkpt lat="41.30541" lon="2.06881">
        <ele>51.0911</ele>
        <time>2022-12-31T14:41:24.038Z</time>
      </trkpt>
      <trkpt lat="41.30545" lon="2.06893">
        <ele>51.092233</ele>
        <time>2022-12-31T14:41:27.016Z</time>
      </trkpt>
      <trkpt lat="41.30551" lon="2.06908">
        <ele>51.093771</ele>
        <time>2022-12-31T14:41:30.041Z</time>
      </trkpt>
      <trkpt lat="41.30555" lon="2.06921">
        <ele>51.090153</ele>
        <time>2022-12-31T14:41:32.028Z</time>
      </trkpt>
      <trkpt lat="41.30559" lon="2.06934">
        <ele>51.076007</ele>
        <time>2022-12-31T14:41:34.038Z</time>
      </trkpt>
      <trkpt lat="41.30564" lon="2.06946">
        <ele>51.061527</ele>
        <time>2022-12-31T14:41:36.035Z</time>
      </trkpt>
      <trkpt lat="41.30568" lon="2.06958">
        <ele>51.04757</ele>
        <time>2022-12-31T14:41:38.039Z</time>
      </trkpt>
      <trkpt lat="41.30572" lon="2.06971">
        <ele>51.032889</ele>
        <time>2022-12-31T14:41:40.026Z</time>
      </trkpt>
      <trkpt lat="41.30576" lon="2.06983">
        <ele>51.018589</ele>
        <time>2022-12-31T14:41:42.036Z</time>
      </trkpt>
      <trkpt lat="41.3058" lon="2.06996">
        <ele>51.003827</ele>
        <time>2022-12-31T14:41:44.032Z</time>
      </trkpt>
      <trkpt lat="41.30585" lon="2.0701">
        <ele>50.988532</ele>
        <time>2022-12-31T14:41:46.022Z</time>
      </trkpt>
      <trkpt lat="41.30589" lon="2.07023">
        <ele>50.973371</ele>
        <time>2022-12-31T14:41:48.040Z</time>
      </trkpt>
      <trkpt lat="41.30594" lon="2.07036">
        <ele>50.958554</ele>
        <time>2022-12-31T14:41:50.031Z</time>
      </trkpt>
      <trkpt lat="41.30599" lon="2.07049">
        <ele>50.943263</ele>
        <time>2022-12-31T14:41:52.003Z</time>
      </trkpt>
      <trkpt lat="41.30603" lon="2.07062">
        <ele>50.9288</ele>
        <time>2022-12-31T14:41:54.030Z</time>
      </trkpt>
      <trkpt lat="41.30607" lon="2.07074">
        <ele>50.914475</ele>
        <time>2022-12-31T14:41:56.021Z</time>
      </trkpt>
      <trkpt lat="41.30611" lon="2.07086">
        <ele>50.900497</ele>
        <time>2022-12-31T14:41:58.027Z</time>
      </trkpt>
      <trkpt lat="41.30615" lon="2.07098">
        <ele>50.886609</ele>
        <time>2022-12-31T14:42:00.012Z</time>
      </trkpt>
      <trkpt lat="41.30614" lon="2.0711">
        <ele>50.873952</ele>
        <time>2022-12-31T14:42:06.033Z</time>
      </trkpt>
      <trkpt lat="41.3061" lon="2.07123">
        <ele>50.859386</ele>
        <time>2022-12-31T14:42:13.020Z</time>
      </trkpt>
      <trkpt lat="41.30614" lon="2.07137">
        <ele>50.844046</ele>
        <time>2022-12-31T14:42:17.021Z</time>
      </trkpt>
      <trkpt lat="41.3062" lon="2.07151">
        <ele>50.832528</ele>
        <time>2022-12-31T14:42:21.026Z</time>
      </trkpt>
      <trkpt lat="41.30631" lon="2.07154">
        <ele>50.821615</ele>
        <time>2022-12-31T14:42:25.015Z</time>
      </trkpt>
      <trkpt lat="41.30637" lon="2.07163">
        <ele>50.812406</ele>
        <time>2022-12-31T14:42:28.017Z</time>
      </trkpt>
      <trkpt lat="41.30641" lon="2.07176">
        <ele>50.801658</ele>
        <time>2022-12-31T14:42:31.999Z</time>
      </trkpt>
      <trkpt lat="41.30645" lon="2.07188">
        <ele>50.792001</ele>
        <time>2022-12-31T14:42:36.001Z</time>
      </trkpt>
      <trkpt lat="41.30649" lon="2.072">
        <ele>50.782513</ele>
        <time>2022-12-31T14:42:40.023Z</time>
      </trkpt>
      <trkpt lat="41.30653" lon="2.07213">
        <ele>50.772127</ele>
        <time>2022-12-31T14:42:45.022Z</time>
      </trkpt>
      <trkpt lat="41.30656" lon="2.07225">
        <ele>50.76239</ele>
        <time>2022-12-31T14:42:50.006Z</time>
      </trkpt>
      <trkpt lat="41.30661" lon="2.07238">
        <ele>50.751952</ele>
        <time>2022-12-31T14:42:56.032Z</time>
      </trkpt>
      <trkpt lat="41.30664" lon="2.07249">
        <ele>50.742851</ele>
        <time>2022-12-31T14:43:02.031Z</time>
      </trkpt>
      <trkpt lat="41.3067" lon="2.07261">
        <ele>50.732469</ele>
        <time>2022-12-31T14:47:16.046Z</time>
      </trkpt>
      <trkpt lat="41.30674" lon="2.07272">
        <ele>50.723187</ele>
        <time>2022-12-31T14:47:20.001Z</time>
      </trkpt>
      <trkpt lat="41.30678" lon="2.07284">
        <ele>50.713524</ele>
        <time>2022-12-31T14:47:24.025Z</time>
      </trkpt>
      <trkpt lat="41.30683" lon="2.07298">
        <ele>50.702156</ele>
        <time>2022-12-31T14:47:28.038Z</time>
      </trkpt>
      <trkpt lat="41.30688" lon="2.07312">
        <ele>50.690411</ele>
        <time>2022-12-31T14:47:32.034Z</time>
      </trkpt>
      <trkpt lat="41.30692" lon="2.07324">
        <ele>50.680543</ele>
        <time>2022-12-31T14:47:35.030Z</time>
      </trkpt>
      <trkpt lat="41.30697" lon="2.07337">
        <ele>50.670053</ele>
        <time>2022-12-31T14:47:38.020Z</time>
      </trkpt>
      <trkpt lat="41.30701" lon="2.07351">
        <ele>50.773753</ele>
        <time>2022-12-31T14:47:41.014Z</time>
      </trkpt>
      <trkpt lat="41.30707" lon="2.07366">
        <ele>50.945523</ele>
        <time>2022-12-31T14:47:44.020Z</time>
      </trkpt>
      <trkpt lat="41.30712" lon="2.07381">
        <ele>51.11793</ele>
        <time>2022-12-31T14:47:46.991Z</time>
      </trkpt>
      <trkpt lat="41.30717" lon="2.07394">
        <ele>51.278777</ele>
        <time>2022-12-31T14:47:49.998Z</time>
      </trkpt>
      <trkpt lat="41.30724" lon="2.07405">
        <ele>51.429518</ele>
        <time>2022-12-31T14:47:53.009Z</time>
      </trkpt>
      <trkpt lat="41.30732" lon="2.07415">
        <ele>51.580476</ele>
        <time>2022-12-31T14:47:56.027Z</time>
      </trkpt>
      <trkpt lat="41.30736" lon="2.07427">
        <ele>51.720225</ele>
        <time>2022-12-31T14:47:59.026Z</time>
      </trkpt>
      <trkpt lat="41.30741" lon="2.0744">
        <ele>51.869225</ele>
        <time>2022-12-31T14:48:02.026Z</time>
      </trkpt>
      <trkpt lat="41.30746" lon="2.07453">
        <ele>52.017591</ele>
        <time>2022-12-31T14:48:05.039Z</time>
      </trkpt>
      <trkpt lat="41.3075" lon="2.07466">
        <ele>52.168991</ele>
        <time>2022-12-31T14:48:08.040Z</time>
      </trkpt>
      <trkpt lat="41.30755" lon="2.07478">
        <ele>52.3099</ele>
        <time>2022-12-31T14:48:11.023Z</time>
      </trkpt>
      <trkpt lat="41.30759" lon="2.07489">
        <ele>52.446327</ele>
        <time>2022-12-31T14:48:14.026Z</time>
      </trkpt>
      <trkpt lat="41.30763" lon="2.07502">
        <ele>52.582926</ele>
        <time>2022-12-31T14:48:17.029Z</time>
      </trkpt>
      <trkpt lat="41.30767" lon="2.07512">
        <ele>52.70916</ele>
        <time>2022-12-31T14:48:20.040Z</time>
      </trkpt>
      <trkpt lat="41.30771" lon="2.07526">
        <ele>52.864799</ele>
        <time>2022-12-31T14:48:24.032Z</time>
      </trkpt>
      <trkpt lat="41.30776" lon="2.0754">
        <ele>53.021456</ele>
        <time>2022-12-31T14:48:28.045Z</time>
      </trkpt>
      <trkpt lat="41.30781" lon="2.07553">
        <ele>53.159159</ele>
        <time>2022-12-31T14:48:32.020Z</time>
      </trkpt>
      <trkpt lat="41.30785" lon="2.07567">
        <ele>53.012816</ele>
        <time>2022-12-31T14:48:36.022Z</time>
      </trkpt>
      <trkpt lat="41.30789" lon="2.0758">
        <ele>52.861521</ele>
        <time>2022-12-31T14:48:40.035Z</time>
      </trkpt>
      <trkpt lat="41.30794" lon="2.07594">
        <ele>52.705934</ele>
        <time>2022-12-31T14:48:44.016Z</time>
      </trkpt>
      <trkpt lat="41.30798" lon="2.07606">
        <ele>52.57757</ele>
        <time>2022-12-31T14:48:47.033Z</time>
      </trkpt>
      <trkpt lat="41.30802" lon="2.07618">
        <ele>52.442102</ele>
        <time>2022-12-31T14:48:50.028Z</time>
      </trkpt>
      <trkpt lat="41.30807" lon="2.07633">
        <ele>52.273613</ele>
        <time>2022-12-31T14:48:53.026Z</time>
      </trkpt>
      <trkpt lat="41.30813" lon="2.07647">
        <ele>52.104584</ele>
        <time>2022-12-31T14:48:56.019Z</time>
      </trkpt>
      <trkpt lat="41.30817" lon="2.07658">
        <ele>51.980946</ele>
        <time>2022-12-31T14:48:58.039Z</time>
      </trkpt>
      <trkpt lat="41.30821" lon="2.0767">
        <ele>51.848781</ele>
        <time>2022-12-31T14:48:59.997Z</time>
      </trkpt>
      <trkpt lat="41.30826" lon="2.07682">
        <ele>51.704721</ele>
        <time>2022-12-31T14:49:02.015Z</time>
      </trkpt>
      <trkpt lat="41.30831" lon="2.07696">
        <ele>51.554285</ele>
        <time>2022-12-31T14:49:04.011Z</time>
      </trkpt>
      <trkpt lat="41.30836" lon="2.0771">
        <ele>51.388608</ele>
        <time>2022-12-31T14:49:06.039Z</time>
      </trkpt>
      <trkpt lat="41.30841" lon="2.07726">
        <ele>51.217195</ele>
        <time>2022-12-31T14:49:08.030Z</time>
      </trkpt>
      <trkpt lat="41.30847" lon="2.07741">
        <ele>51.037771</ele>
        <time>2022-12-31T14:49:10.039Z</time>
      </trkpt>
      <trkpt lat="41.30852" lon="2.07758">
        <ele>50.855754</ele>
        <time>2022-12-31T14:49:12.021Z</time>
      </trkpt>
      <trkpt lat="41.30857" lon="2.07775">
        <ele>50.745489</ele>
        <time>2022-12-31T14:49:14.029Z</time>
      </trkpt>
      <trkpt lat="41.30863" lon="2.07791">
        <ele>50.819651</ele>
        <time>2022-12-31T14:49:16.019Z</time>
      </trkpt>
      <trkpt lat="41.30868" lon="2.07807">
        <ele>50.892759</ele>
        <time>2022-12-31T14:49:18.042Z</time>
      </trkpt>
      <trkpt lat="41.30874" lon="2.07823">
        <ele>50.964114</ele>
        <time>2022-12-31T14:49:20.022Z</time>
      </trkpt>
      <trkpt lat="41.30879" lon="2.07838">
        <ele>51.033198</ele>
        <time>2022-12-31T14:49:22.029Z</time>
      </trkpt>
      <trkpt lat="41.30883" lon="2.07853">
        <ele>51.099936</ele>
        <time>2022-12-31T14:49:24.031Z</time>
      </trkpt>
      <trkpt lat="41.30887" lon="2.07868">
        <ele>51.162134</ele>
        <time>2022-12-31T14:49:26.015Z</time>
      </trkpt>
      <trkpt lat="41.30887" lon="2.07883">
        <ele>51.225181</ele>
        <time>2022-12-31T14:49:29.023Z</time>
      </trkpt>
      <trkpt lat="41.30878" lon="2.07891">
        <ele>51.2866</ele>
        <time>2022-12-31T14:49:32.030Z</time>
      </trkpt>
      <trkpt lat="41.30865" lon="2.07897">
        <ele>51.357647</ele>
        <time>2022-12-31T14:49:35.019Z</time>
      </trkpt>
      <trkpt lat="41.30858" lon="2.07906">
        <ele>51.411607</ele>
        <time>2022-12-31T14:49:37.019Z</time>
      </trkpt>
      <trkpt lat="41.30853" lon="2.07917">
        <ele>51.466056</ele>
        <time>2022-12-31T14:49:39.016Z</time>
      </trkpt>
      <trkpt lat="41.30847" lon="2.07928">
        <ele>51.520783</ele>
        <time>2022-12-31T14:49:41.023Z</time>
      </trkpt>
      <trkpt lat="41.30839" lon="2.07936">
        <ele>51.576994</ele>
        <time>2022-12-31T14:49:43.018Z</time>
      </trkpt>
      <trkpt lat="41.3083" lon="2.07942">
        <ele>51.632884</ele>
        <time>2022-12-31T14:49:45.028Z</time>
      </trkpt>
      <trkpt lat="41.30821" lon="2.07947">
        <ele>51.686036</ele>
        <time>2022-12-31T14:49:47.036Z</time>
      </trkpt>
      <trkpt lat="41.30812" lon="2.07952">
        <ele>51.75896</ele>
        <time>2022-12-31T14:49:49.036Z</time>
      </trkpt>
      <trkpt lat="41.30803" lon="2.07957">
        <ele>51.846042</ele>
        <time>2022-12-31T14:49:51.016Z</time>
      </trkpt>
      <trkpt lat="41.30792" lon="2.07963">
        <ele>51.962367</ele>
        <time>2022-12-31T14:49:54.036Z</time>
      </trkpt>
      <trkpt lat="41.30781" lon="2.0797">
        <ele>52.076541</ele>
        <time>2022-12-31T14:49:57.032Z</time>
      </trkpt>
      <trkpt lat="41.30769" lon="2.07977">
        <ele>52.19234</ele>
        <time>2022-12-31T14:50:00.034Z</time>
      </trkpt>
      <trkpt lat="41.30757" lon="2.07983">
        <ele>52.310606</ele>
        <time>2022-12-31T14:50:03.019Z</time>
      </trkpt>
      <trkpt lat="41.30745" lon="2.0799">
        <ele>52.431977</ele>
        <time>2022-12-31T14:50:06.034Z</time>
      </trkpt>
      <trkpt lat="41.30737" lon="2.07995">
        <ele>52.515534</ele>
        <time>2022-12-31T14:50:08.036Z</time>
      </trkpt>
      <trkpt lat="41.30728" lon="2.08">
        <ele>52.601343</ele>
        <time>2022-12-31T14:50:10.024Z</time>
      </trkpt>
      <trkpt lat="41.3072" lon="2.08005">
        <ele>52.687731</ele>
        <time>2022-12-31T14:50:12.020Z</time>
      </trkpt>
      <trkpt lat="41.30711" lon="2.0801">
        <ele>52.772972</ele>
        <time>2022-12-31T14:50:14.032Z</time>
      </trkpt>
      <trkpt lat="41.30699" lon="2.08016">
        <ele>52.892833</ele>
        <time>2022-12-31T14:50:17.030Z</time>
      </trkpt>
      <trkpt lat="41.30688" lon="2.08023">
        <ele>53.005249</ele>
        <time>2022-12-31T14:50:20.032Z</time>
      </trkpt>
      <trkpt lat="41.30678" lon="2.0803">
        <ele>53.110927</ele>
        <time>2022-12-31T14:50:23.003Z</time>
      </trkpt>
      <trkpt lat="41.30668" lon="2.08034">
        <ele>53.210472</ele>
        <time>2022-12-31T14:50:26.019Z</time>
      </trkpt>
      <trkpt lat="41.30658" lon="2.08036">
        <ele>53.306386</ele>
        <time>2022-12-31T14:50:29.014Z</time>
      </trkpt>
      <trkpt lat="41.30647" lon="2.08035">
        <ele>53.348865</ele>
        <time>2022-12-31T14:50:32.035Z</time>
      </trkpt>
      <trkpt lat="41.30636" lon="2.08037">
        <ele>53.242068</ele>
        <time>2022-12-31T14:50:36.019Z</time>
      </trkpt>
      <trkpt lat="41.30628" lon="2.08046">
        <ele>53.1428</ele>
        <time>2022-12-31T14:50:40.010Z</time>
      </trkpt>
      <trkpt lat="41.30628" lon="2.0806">
        <ele>53.044695</ele>
        <time>2022-12-31T14:50:44.017Z</time>
      </trkpt>
      <trkpt lat="41.30632" lon="2.08071">
        <ele>52.949787</ele>
        <time>2022-12-31T14:50:48.031Z</time>
      </trkpt>
      <trkpt lat="41.30633" lon="2.08085">
        <ele>52.850816</ele>
        <time>2022-12-31T14:50:52.032Z</time>
      </trkpt>
      <trkpt lat="41.30627" lon="2.08096">
        <ele>52.754681</ele>
        <time>2022-12-31T14:50:56.034Z</time>
      </trkpt>
      <trkpt lat="41.30618" lon="2.08101">
        <ele>52.655072</ele>
        <time>2022-12-31T14:51:00.011Z</time>
      </trkpt>
      <trkpt lat="41.30608" lon="2.08107">
        <ele>52.55202</ele>
        <time>2022-12-31T14:51:04.010Z</time>
      </trkpt>
      <trkpt lat="41.30597" lon="2.08114">
        <ele>52.439936</ele>
        <time>2022-12-31T14:51:08.048Z</time>
      </trkpt>
      <trkpt lat="41.30587" lon="2.0812">
        <ele>52.340057</ele>
        <time>2022-12-31T14:51:11.021Z</time>
      </trkpt>
      <trkpt lat="41.30578" lon="2.08126">
        <ele>52.234589</ele>
        <time>2022-12-31T14:51:14.020Z</time>
      </trkpt>
      <trkpt lat="41.30569" lon="2.08133">
        <ele>52.141412</ele>
        <time>2022-12-31T14:51:17.039Z</time>
      </trkpt>
      <trkpt lat="41.3056" lon="2.08139">
        <ele>52.043825</ele>
        <time>2022-12-31T14:51:20.013Z</time>
      </trkpt>
      <trkpt lat="41.30549" lon="2.08145">
        <ele>51.933931</ele>
        <time>2022-12-31T14:51:24.012Z</time>
      </trkpt>
      <trkpt lat="41.3054" lon="2.08151">
        <ele>51.833358</ele>
        <time>2022-12-31T14:51:28.020Z</time>
      </trkpt>
      <trkpt lat="41.30531" lon="2.08153">
        <ele>51.745501</ele>
        <time>2022-12-31T14:51:31.010Z</time>
      </trkpt>
      <trkpt lat="41.30523" lon="2.08145">
        <ele>51.627467</ele>
        <time>2022-12-31T14:51:34.039Z</time>
      </trkpt>
      <trkpt lat="41.30514" lon="2.08143">
        <ele>51.408481</ele>
        <time>2022-12-31T14:51:39.019Z</time>
      </trkpt>
      <trkpt lat="41.30506" lon="2.0815">
        <ele>51.184941</ele>
        <time>2022-12-31T14:51:45.010Z</time>
      </trkpt>
      <trkpt lat="41.30497" lon="2.08156">
        <ele>50.960837</ele>
        <time>2022-12-31T14:51:49.039Z</time>
      </trkpt>
      <trkpt lat="41.30488" lon="2.08162">
        <ele>50.716198</ele>
        <time>2022-12-31T14:51:54.012Z</time>
      </trkpt>
      <trkpt lat="41.30487" lon="2.08175">
        <ele>50.492379</ele>
        <time>2022-12-31T14:51:59.004Z</time>
      </trkpt>
      <trkpt lat="41.30491" lon="2.08188">
        <ele>50.247941</ele>
        <time>2022-12-31T14:52:04.007Z</time>
      </trkpt>
      <trkpt lat="41.30491" lon="2.08195">
        <ele>50.130736</ele>
        <time>2022-12-31T14:52:24.129Z</time>
      </trkpt>
      <trkpt lat="41.30505" lon="2.08205">
        <ele>49.765847</ele>
        <time>2022-12-31T15:04:24.029Z</time>
      </trkpt>
      <trkpt lat="41.30507" lon="2.08217">
        <ele>49.541039</ele>
        <time>2022-12-31T15:04:31.010Z</time>
      </trkpt>
      <trkpt lat="41.30513" lon="2.08227">
        <ele>49.314815</ele>
        <time>2022-12-31T15:04:35.993Z</time>
      </trkpt>
      <trkpt lat="41.30522" lon="2.08228">
        <ele>49.10282</ele>
        <time>2022-12-31T15:04:40.038Z</time>
      </trkpt>
      <trkpt lat="41.30532" lon="2.08233">
        <ele>48.853577</ele>
        <time>2022-12-31T15:04:44.030Z</time>
      </trkpt>
      <trkpt lat="41.30543" lon="2.08238">
        <ele>48.587172</ele>
        <time>2022-12-31T15:04:48.030Z</time>
      </trkpt>
      <trkpt lat="41.30554" lon="2.08244">
        <ele>48.321557</ele>
        <time>2022-12-31T15:04:52.022Z</time>
      </trkpt>
      <trkpt lat="41.30564" lon="2.0825">
        <ele>48.063583</ele>
        <time>2022-12-31T15:04:55.020Z</time>
      </trkpt>
      <trkpt lat="41.30576" lon="2.08253">
        <ele>47.777641</ele>
        <time>2022-12-31T15:04:58.020Z</time>
      </trkpt>
      <trkpt lat="41.30588" lon="2.08255">
        <ele>47.485732</ele>
        <time>2022-12-31T15:05:01.004Z</time>
      </trkpt>
      <trkpt lat="41.30601" lon="2.08254">
        <ele>47.381348</ele>
        <time>2022-12-31T15:05:04.026Z</time>
      </trkpt>
      <trkpt lat="41.30613" lon="2.0825">
        <ele>47.288113</ele>
        <time>2022-12-31T15:05:07.016Z</time>
      </trkpt>
      <trkpt lat="41.30622" lon="2.08244">
        <ele>47.210894</ele>
        <time>2022-12-31T15:05:10.028Z</time>
      </trkpt>
      <trkpt lat="41.3063" lon="2.0824">
        <ele>47.139121</ele>
        <time>2022-12-31T15:05:13.016Z</time>
      </trkpt>
      <trkpt lat="41.30641" lon="2.08247">
        <ele>47.050629</ele>
        <time>2022-12-31T15:05:17.011Z</time>
      </trkpt>
      <trkpt lat="41.30644" lon="2.08259">
        <ele>46.973603</ele>
        <time>2022-12-31T15:05:21.020Z</time>
      </trkpt>
      <trkpt lat="41.30649" lon="2.08271">
        <ele>46.89412</ele>
        <time>2022-12-31T15:05:25.015Z</time>
      </trkpt>
      <trkpt lat="41.30653" lon="2.08283">
        <ele>46.814296</ele>
        <time>2022-12-31T15:05:35.013Z</time>
      </trkpt>
      <trkpt lat="41.30662" lon="2.08299">
        <ele>46.703003</ele>
        <time>2022-12-31T15:06:10.013Z</time>
      </trkpt>
      <trkpt lat="41.30667" lon="2.08287">
        <ele>46.623849</ele>
        <time>2022-12-31T15:06:18.027Z</time>
      </trkpt>
      <trkpt lat="41.30665" lon="2.08275">
        <ele>46.548048</ele>
        <time>2022-12-31T15:06:22.015Z</time>
      </trkpt>
      <trkpt lat="41.30661" lon="2.0826">
        <ele>46.457833</ele>
        <time>2022-12-31T15:06:26.040Z</time>
      </trkpt>
      <trkpt lat="41.30657" lon="2.08247">
        <ele>46.373651</ele>
        <time>2022-12-31T15:06:30.032Z</time>
      </trkpt>
      <trkpt lat="41.30653" lon="2.08234">
        <ele>46.293362</ele>
        <time>2022-12-31T15:06:35.026Z</time>
      </trkpt>
      <trkpt lat="41.30657" lon="2.08246">
        <ele>46.218022</ele>
        <time>2022-12-31T15:06:53.023Z</time>
      </trkpt>
      <trkpt lat="41.30662" lon="2.08261">
        <ele>46.123031</ele>
        <time>2022-12-31T15:06:57.026Z</time>
      </trkpt>
      <trkpt lat="41.30665" lon="2.08274">
        <ele>46.082237</ele>
        <time>2022-12-31T15:07:00.022Z</time>
      </trkpt>
      <trkpt lat="41.30669" lon="2.08286">
        <ele>46.099667</ele>
        <time>2022-12-31T15:07:03.029Z</time>
      </trkpt>
      <trkpt lat="41.30674" lon="2.08299">
        <ele>46.118073</ele>
        <time>2022-12-31T15:07:06.040Z</time>
      </trkpt>
      <trkpt lat="41.30682" lon="2.08309">
        <ele>46.136475</ele>
        <time>2022-12-31T15:07:09.020Z</time>
      </trkpt>
      <trkpt lat="41.30692" lon="2.08311">
        <ele>46.153585</ele>
        <time>2022-12-31T15:07:12.018Z</time>
      </trkpt>
      <trkpt lat="41.30702" lon="2.08306">
        <ele>46.170372</ele>
        <time>2022-12-31T15:07:15.031Z</time>
      </trkpt>
      <trkpt lat="41.30712" lon="2.08299">
        <ele>46.18986</ele>
        <time>2022-12-31T15:07:18.038Z</time>
      </trkpt>
      <trkpt lat="41.30722" lon="2.08293">
        <ele>46.208391</ele>
        <time>2022-12-31T15:07:21.023Z</time>
      </trkpt>
      <trkpt lat="41.30732" lon="2.08287">
        <ele>46.227005</ele>
        <time>2022-12-31T15:07:24.030Z</time>
      </trkpt>
      <trkpt lat="41.30742" lon="2.08281">
        <ele>46.245468</ele>
        <time>2022-12-31T15:07:27.019Z</time>
      </trkpt>
      <trkpt lat="41.30753" lon="2.08274">
        <ele>46.265205</ele>
        <time>2022-12-31T15:07:30.029Z</time>
      </trkpt>
      <trkpt lat="41.30764" lon="2.08267">
        <ele>46.285043</ele>
        <time>2022-12-31T15:07:33.024Z</time>
      </trkpt>
      <trkpt lat="41.30775" lon="2.08261">
        <ele>46.305249</ele>
        <time>2022-12-31T15:07:36.024Z</time>
      </trkpt>
      <trkpt lat="41.30786" lon="2.08255">
        <ele>46.32478</ele>
        <time>2022-12-31T15:07:39.014Z</time>
      </trkpt>
      <trkpt lat="41.30797" lon="2.08249">
        <ele>46.34513</ele>
        <time>2022-12-31T15:07:42.003Z</time>
      </trkpt>
      <trkpt lat="41.30808" lon="2.08243">
        <ele>46.365914</ele>
        <time>2022-12-31T15:07:45.017Z</time>
      </trkpt>
      <trkpt lat="41.30819" lon="2.08236">
        <ele>46.425844</ele>
        <time>2022-12-31T15:07:48.045Z</time>
      </trkpt>
      <trkpt lat="41.30829" lon="2.08229">
        <ele>46.53398</ele>
        <time>2022-12-31T15:07:51.018Z</time>
      </trkpt>
      <trkpt lat="41.30839" lon="2.08224">
        <ele>46.634687</ele>
        <time>2022-12-31T15:07:55.022Z</time>
      </trkpt>
      <trkpt lat="41.30846" lon="2.08234">
        <ele>46.730296</ele>
        <time>2022-12-31T15:07:59.011Z</time>
      </trkpt>
      <trkpt lat="41.30854" lon="2.08243">
        <ele>46.822387</ele>
        <time>2022-12-31T15:08:03.022Z</time>
      </trkpt>
      <trkpt lat="41.30864" lon="2.08243">
        <ele>46.913883</ele>
        <time>2022-12-31T15:08:06.018Z</time>
      </trkpt>
      <trkpt lat="41.30872" lon="2.08249">
        <ele>46.997824</ele>
        <time>2022-12-31T15:08:09.027Z</time>
      </trkpt>
      <trkpt lat="41.30877" lon="2.08258">
        <ele>47.082971</ele>
        <time>2022-12-31T15:08:12.021Z</time>
      </trkpt>
      <trkpt lat="41.30877" lon="2.08272">
        <ele>47.179076</ele>
        <time>2022-12-31T15:08:15.013Z</time>
      </trkpt>
      <trkpt lat="41.30881" lon="2.08286">
        <ele>47.28201</ele>
        <time>2022-12-31T15:08:18.032Z</time>
      </trkpt>
      <trkpt lat="41.30886" lon="2.08299">
        <ele>47.38682</ele>
        <time>2022-12-31T15:08:21.036Z</time>
      </trkpt>
      <trkpt lat="41.3089" lon="2.08312">
        <ele>47.484851</ele>
        <time>2022-12-31T15:08:24.019Z</time>
      </trkpt>
      <trkpt lat="41.30895" lon="2.08324">
        <ele>47.582793</ele>
        <time>2022-12-31T15:08:27.032Z</time>
      </trkpt>
      <trkpt lat="41.30898" lon="2.08335">
        <ele>47.667098</ele>
        <time>2022-12-31T15:08:30.039Z</time>
      </trkpt>
      <trkpt lat="41.30903" lon="2.08349">
        <ele>47.769397</ele>
        <time>2022-12-31T15:08:34.018Z</time>
      </trkpt>
      <trkpt lat="41.30907" lon="2.0836">
        <ele>47.858297</ele>
        <time>2022-12-31T15:08:43.014Z</time>
      </trkpt>
      <trkpt lat="41.30912" lon="2.0837">
        <ele>47.943486</ele>
        <time>2022-12-31T15:08:48.028Z</time>
      </trkpt>
      <trkpt lat="41.30922" lon="2.08379">
        <ele>48.058194</ele>
        <time>2022-12-31T15:08:52.022Z</time>
      </trkpt>
      <trkpt lat="41.30932" lon="2.08379">
        <ele>48.162789</ele>
        <time>2022-12-31T15:08:56.016Z</time>
      </trkpt>
      <trkpt lat="41.3094" lon="2.08374">
        <ele>48.260775</ele>
        <time>2022-12-31T15:09:00.027Z</time>
      </trkpt>
      <trkpt lat="41.30952" lon="2.08377">
        <ele>48.382387</ele>
        <time>2022-12-31T15:09:04.025Z</time>
      </trkpt>
      <trkpt lat="41.30955" lon="2.0839">
        <ele>48.496524</ele>
        <time>2022-12-31T15:09:07.010Z</time>
      </trkpt>
      <trkpt lat="41.3096" lon="2.08406">
        <ele>48.633477</ele>
        <time>2022-12-31T15:09:10.022Z</time>
      </trkpt>
      <trkpt lat="41.30965" lon="2.08422">
        <ele>48.771754</ele>
        <time>2022-12-31T15:09:13.035Z</time>
      </trkpt>
      <trkpt lat="41.3097" lon="2.08438">
        <ele>48.909731</ele>
        <time>2022-12-31T15:09:16.021Z</time>
      </trkpt>
      <trkpt lat="41.30973" lon="2.08449">
        <ele>49.007665</ele>
        <time>2022-12-31T15:09:18.032Z</time>
      </trkpt>
      <trkpt lat="41.30977" lon="2.0846">
        <ele>49.103358</ele>
        <time>2022-12-31T15:09:20.014Z</time>
      </trkpt>
      <trkpt lat="41.3098" lon="2.08471">
        <ele>49.200413</ele>
        <time>2022-12-31T15:09:22.022Z</time>
      </trkpt>
      <trkpt lat="41.30984" lon="2.08482">
        <ele>49.298804</ele>
        <time>2022-12-31T15:09:24.023Z</time>
      </trkpt>
      <trkpt lat="41.30988" lon="2.08494">
        <ele>49.397491</ele>
        <time>2022-12-31T15:09:26.023Z</time>
      </trkpt>
      <trkpt lat="41.30992" lon="2.08504">
        <ele>49.493549</ele>
        <time>2022-12-31T15:09:28.029Z</time>
      </trkpt>
      <trkpt lat="41.30995" lon="2.08516">
        <ele>49.591103</ele>
        <time>2022-12-31T15:09:30.012Z</time>
      </trkpt>
      <trkpt lat="41.31" lon="2.08531">
        <ele>49.724756</ele>
        <time>2022-12-31T15:09:33.010Z</time>
      </trkpt>
      <trkpt lat="41.31005" lon="2.08545">
        <ele>49.847864</ele>
        <time>2022-12-31T15:09:36.040Z</time>
      </trkpt>
      <trkpt lat="41.31015" lon="2.08554">
        <ele>49.971273</ele>
        <time>2022-12-31T15:09:39.026Z</time>
      </trkpt>
      <trkpt lat="41.31024" lon="2.08559">
        <ele>49.923576</ele>
        <time>2022-12-31T15:09:42.021Z</time>
      </trkpt>
      <trkpt lat="41.31032" lon="2.08563">
        <ele>49.878139</ele>
        <time>2022-12-31T15:09:45.012Z</time>
      </trkpt>
      <trkpt lat="41.31032" lon="2.08576">
        <ele>49.829471</ele>
        <time>2022-12-31T15:09:48.027Z</time>
      </trkpt>
      <trkpt lat="41.31026" lon="2.08587">
        <ele>49.780421</ele>
        <time>2022-12-31T15:09:51.018Z</time>
      </trkpt>
      <trkpt lat="41.31026" lon="2.08602">
        <ele>49.723618</ele>
        <time>2022-12-31T15:09:54.016Z</time>
      </trkpt>
      <trkpt lat="41.3103" lon="2.08618">
        <ele>49.658362</ele>
        <time>2022-12-31T15:09:57.014Z</time>
      </trkpt>
      <trkpt lat="41.31036" lon="2.08634">
        <ele>49.592856</ele>
        <time>2022-12-31T15:10:00.017Z</time>
      </trkpt>
      <trkpt lat="41.31041" lon="2.0865">
        <ele>49.527252</ele>
        <time>2022-12-31T15:10:03.012Z</time>
      </trkpt>
      <trkpt lat="41.31044" lon="2.08661">
        <ele>49.481886</ele>
        <time>2022-12-31T15:10:05.008Z</time>
      </trkpt>
      <trkpt lat="41.31048" lon="2.08672">
        <ele>49.435977</ele>
        <time>2022-12-31T15:10:07.033Z</time>
      </trkpt>
      <trkpt lat="41.31052" lon="2.08684">
        <ele>49.38871</ele>
        <time>2022-12-31T15:10:09.023Z</time>
      </trkpt>
      <trkpt lat="41.31057" lon="2.08695">
        <ele>49.342071</ele>
        <time>2022-12-31T15:10:11.016Z</time>
      </trkpt>
      <trkpt lat="41.31061" lon="2.08706">
        <ele>49.293842</ele>
        <time>2022-12-31T15:10:13.020Z</time>
      </trkpt>
      <trkpt lat="41.31066" lon="2.08723">
        <ele>49.224852</ele>
        <time>2022-12-31T15:10:16.024Z</time>
      </trkpt>
      <trkpt lat="41.31069" lon="2.08735">
        <ele>49.178607</ele>
        <time>2022-12-31T15:10:18.045Z</time>
      </trkpt>
      <trkpt lat="41.31074" lon="2.08746">
        <ele>49.132921</ele>
        <time>2022-12-31T15:10:20.020Z</time>
      </trkpt>
      <trkpt lat="41.3108" lon="2.08761">
        <ele>49.076213</ele>
        <time>2022-12-31T15:10:23.022Z</time>
      </trkpt>
      <trkpt lat="41.31085" lon="2.08777">
        <ele>49.097574</ele>
        <time>2022-12-31T15:10:26.030Z</time>
      </trkpt>
      <trkpt lat="41.31091" lon="2.08793">
        <ele>49.119631</ele>
        <time>2022-12-31T15:10:29.027Z</time>
      </trkpt>
      <trkpt lat="41.31095" lon="2.08804">
        <ele>49.134923</ele>
        <time>2022-12-31T15:10:31.021Z</time>
      </trkpt>
      <trkpt lat="41.31099" lon="2.08816">
        <ele>49.150446</ele>
        <time>2022-12-31T15:10:33.021Z</time>
      </trkpt>
      <trkpt lat="41.31102" lon="2.08827">
        <ele>49.165823</ele>
        <time>2022-12-31T15:10:35.016Z</time>
      </trkpt>
      <trkpt lat="41.31106" lon="2.08839">
        <ele>49.181572</ele>
        <time>2022-12-31T15:10:37.016Z</time>
      </trkpt>
      <trkpt lat="41.3111" lon="2.0885">
        <ele>49.19716</ele>
        <time>2022-12-31T15:10:39.019Z</time>
      </trkpt>
      <trkpt lat="41.31115" lon="2.08861">
        <ele>49.212689</ele>
        <time>2022-12-31T15:10:41.022Z</time>
      </trkpt>
      <trkpt lat="41.31122" lon="2.08869">
        <ele>49.228044</ele>
        <time>2022-12-31T15:10:43.026Z</time>
      </trkpt>
      <trkpt lat="41.31129" lon="2.08878">
        <ele>49.243757</ele>
        <time>2022-12-31T15:10:45.032Z</time>
      </trkpt>
      <trkpt lat="41.31134" lon="2.08889">
        <ele>49.259864</ele>
        <time>2022-12-31T15:10:47.013Z</time>
      </trkpt>
      <trkpt lat="41.31136" lon="2.08901">
        <ele>49.275502</ele>
        <time>2022-12-31T15:10:49.018Z</time>
      </trkpt>
      <trkpt lat="41.31133" lon="2.08914">
        <ele>49.291653</ele>
        <time>2022-12-31T15:10:51.011Z</time>
      </trkpt>
      <trkpt lat="41.31126" lon="2.08928">
        <ele>49.313275</ele>
        <time>2022-12-31T15:10:54.031Z</time>
      </trkpt>
      <trkpt lat="41.31121" lon="2.08945">
        <ele>49.335784</ele>
        <time>2022-12-31T15:10:57.016Z</time>
      </trkpt>
      <trkpt lat="41.31127" lon="2.08961">
        <ele>49.35721</ele>
        <time>2022-12-31T15:11:00.022Z</time>
      </trkpt>
      <trkpt lat="41.3113" lon="2.08972">
        <ele>49.378568</ele>
        <time>2022-12-31T15:11:02.029Z</time>
      </trkpt>
      <trkpt lat="41.31136" lon="2.08987">
        <ele>49.467995</ele>
        <time>2022-12-31T15:11:05.018Z</time>
      </trkpt>
      <trkpt lat="41.31142" lon="2.09003">
        <ele>49.55826</ele>
        <time>2022-12-31T15:11:08.034Z</time>
      </trkpt>
      <trkpt lat="41.31148" lon="2.09019">
        <ele>49.650768</ele>
        <time>2022-12-31T15:11:11.018Z</time>
      </trkpt>
      <trkpt lat="41.31153" lon="2.09034">
        <ele>49.738043</ele>
        <time>2022-12-31T15:11:14.021Z</time>
      </trkpt>
      <trkpt lat="41.31158" lon="2.0905">
        <ele>49.827002</ele>
        <time>2022-12-31T15:11:17.015Z</time>
      </trkpt>
      <trkpt lat="41.31164" lon="2.09066">
        <ele>49.916513</ele>
        <time>2022-12-31T15:11:20.029Z</time>
      </trkpt>
      <trkpt lat="41.31169" lon="2.09081">
        <ele>50.004139</ele>
        <time>2022-12-31T15:11:23.020Z</time>
      </trkpt>
      <trkpt lat="41.31175" lon="2.09096">
        <ele>50.091269</ele>
        <time>2022-12-31T15:11:26.021Z</time>
      </trkpt>
      <trkpt lat="41.3118" lon="2.09112">
        <ele>50.180912</ele>
        <time>2022-12-31T15:11:29.014Z</time>
      </trkpt>
      <trkpt lat="41.31185" lon="2.09128">
        <ele>50.268596</ele>
        <time>2022-12-31T15:11:32.019Z</time>
      </trkpt>
      <trkpt lat="41.3119" lon="2.09145">
        <ele>50.361698</ele>
        <time>2022-12-31T15:11:35.035Z</time>
      </trkpt>
      <trkpt lat="41.31194" lon="2.09156">
        <ele>50.424917</ele>
        <time>2022-12-31T15:11:37.022Z</time>
      </trkpt>
      <trkpt lat="41.312" lon="2.09172">
        <ele>50.518507</ele>
        <time>2022-12-31T15:11:40.036Z</time>
      </trkpt>
      <trkpt lat="41.31204" lon="2.09183">
        <ele>50.583573</ele>
        <time>2022-12-31T15:11:42.020Z</time>
      </trkpt>
      <trkpt lat="41.31209" lon="2.09194">
        <ele>50.548181</ele>
        <time>2022-12-31T15:11:44.013Z</time>
      </trkpt>
      <trkpt lat="41.31212" lon="2.09206">
        <ele>50.447708</ele>
        <time>2022-12-31T15:11:46.022Z</time>
      </trkpt>
      <trkpt lat="41.31216" lon="2.09217">
        <ele>50.353681</ele>
        <time>2022-12-31T15:11:48.043Z</time>
      </trkpt>
      <trkpt lat="41.31222" lon="2.09233">
        <ele>50.218517</ele>
        <time>2022-12-31T15:11:51.018Z</time>
      </trkpt>
      <trkpt lat="41.31226" lon="2.09249">
        <ele>50.088311</ele>
        <time>2022-12-31T15:11:54.039Z</time>
      </trkpt>
      <trkpt lat="41.31232" lon="2.09264">
        <ele>49.95509</ele>
        <time>2022-12-31T15:11:57.020Z</time>
      </trkpt>
      <trkpt lat="41.31238" lon="2.09279">
        <ele>49.826787</ele>
        <time>2022-12-31T15:12:00.022Z</time>
      </trkpt>
      <trkpt lat="41.31242" lon="2.09293">
        <ele>49.706318</ele>
        <time>2022-12-31T15:12:03.010Z</time>
      </trkpt>
      <trkpt lat="41.31251" lon="2.09298">
        <ele>49.60438</ele>
        <time>2022-12-31T15:12:06.029Z</time>
      </trkpt>
      <trkpt lat="41.31261" lon="2.09291">
        <ele>49.494764</ele>
        <time>2022-12-31T15:12:09.017Z</time>
      </trkpt>
      <trkpt lat="41.3127" lon="2.09292">
        <ele>49.398029</ele>
        <time>2022-12-31T15:12:12.018Z</time>
      </trkpt>
      <trkpt lat="41.31282" lon="2.09291">
        <ele>49.275762</ele>
        <time>2022-12-31T15:12:15.020Z</time>
      </trkpt>
      <trkpt lat="41.31293" lon="2.09291">
        <ele>49.154667</ele>
        <time>2022-12-31T15:12:18.035Z</time>
      </trkpt>
      <trkpt lat="41.31304" lon="2.09285">
        <ele>49.037416</ele>
        <time>2022-12-31T15:12:21.022Z</time>
      </trkpt>
      <trkpt lat="41.31313" lon="2.09273">
        <ele>48.905428</ele>
        <time>2022-12-31T15:12:24.021Z</time>
      </trkpt>
      <trkpt lat="41.31324" lon="2.09264">
        <ele>48.76654</ele>
        <time>2022-12-31T15:12:27.016Z</time>
      </trkpt>
      <trkpt lat="41.31333" lon="2.09263">
        <ele>48.709385</ele>
        <time>2022-12-31T15:12:29.019Z</time>
      </trkpt>
      <trkpt lat="41.31343" lon="2.09264">
        <ele>48.658401</ele>
        <time>2022-12-31T15:12:31.019Z</time>
      </trkpt>
      <trkpt lat="41.31353" lon="2.09266">
        <ele>48.603165</ele>
        <time>2022-12-31T15:12:33.034Z</time>
      </trkpt>
      <trkpt lat="41.31364" lon="2.09268">
        <ele>48.545992</ele>
        <time>2022-12-31T15:12:35.018Z</time>
      </trkpt>
      <trkpt lat="41.31374" lon="2.0927">
        <ele>48.490856</ele>
        <time>2022-12-31T15:12:37.030Z</time>
      </trkpt>
      <trkpt lat="41.31384" lon="2.09272">
        <ele>48.438131</ele>
        <time>2022-12-31T15:12:39.025Z</time>
      </trkpt>
      <trkpt lat="41.31393" lon="2.09274">
        <ele>48.388513</ele>
        <time>2022-12-31T15:12:41.005Z</time>
      </trkpt>
      <trkpt lat="41.31401" lon="2.09282">
        <ele>48.33509</ele>
        <time>2022-12-31T15:12:45.020Z</time>
      </trkpt>
      <trkpt lat="41.31412" lon="2.09285">
        <ele>48.277749</ele>
        <time>2022-12-31T15:12:50.013Z</time>
      </trkpt>
      <trkpt lat="41.31421" lon="2.09287">
        <ele>48.228811</ele>
        <time>2022-12-31T15:12:53.032Z</time>
      </trkpt>
      <trkpt lat="41.31432" lon="2.09289">
        <ele>48.172628</ele>
        <time>2022-12-31T15:12:56.020Z</time>
      </trkpt>
      <trkpt lat="41.31443" lon="2.09292">
        <ele>48.111095</ele>
        <time>2022-12-31T15:12:59.005Z</time>
      </trkpt>
      <trkpt lat="41.31454" lon="2.09295">
        <ele>48.050645</ele>
        <time>2022-12-31T15:13:02.019Z</time>
      </trkpt>
      <trkpt lat="41.31467" lon="2.09297">
        <ele>47.982248</ele>
        <time>2022-12-31T15:13:05.023Z</time>
      </trkpt>
      <trkpt lat="41.3148" lon="2.09299">
        <ele>47.912076</ele>
        <time>2022-12-31T15:13:08.040Z</time>
      </trkpt>
      <trkpt lat="41.31494" lon="2.093">
        <ele>47.841977</ele>
        <time>2022-12-31T15:13:11.022Z</time>
      </trkpt>
      <trkpt lat="41.31507" lon="2.09302">
        <ele>47.813477</ele>
        <time>2022-12-31T15:13:14.029Z</time>
      </trkpt>
      <trkpt lat="41.3152" lon="2.09304">
        <ele>47.857925</ele>
        <time>2022-12-31T15:13:17.035Z</time>
      </trkpt>
      <trkpt lat="41.31533" lon="2.09306">
        <ele>47.903653</ele>
        <time>2022-12-31T15:13:20.023Z</time>
      </trkpt>
      <trkpt lat="41.31546" lon="2.09308">
        <ele>47.950069</ele>
        <time>2022-12-31T15:13:23.005Z</time>
      </trkpt>
      <trkpt lat="41.31555" lon="2.09309">
        <ele>47.981558</ele>
        <time>2022-12-31T15:13:25.031Z</time>
      </trkpt>
      <trkpt lat="41.31568" lon="2.09312">
        <ele>48.028138</ele>
        <time>2022-12-31T15:13:28.026Z</time>
      </trkpt>
      <trkpt lat="41.31581" lon="2.09314">
        <ele>48.072587</ele>
        <time>2022-12-31T15:13:31.018Z</time>
      </trkpt>
      <trkpt lat="41.31594" lon="2.09316">
        <ele>48.117886</ele>
        <time>2022-12-31T15:13:34.016Z</time>
      </trkpt>
      <trkpt lat="41.31603" lon="2.09317">
        <ele>48.14983</ele>
        <time>2022-12-31T15:13:36.038Z</time>
      </trkpt>
      <trkpt lat="41.31616" lon="2.09319">
        <ele>48.195</ele>
        <time>2022-12-31T15:13:39.016Z</time>
      </trkpt>
      <trkpt lat="41.31629" lon="2.09318">
        <ele>48.238716</ele>
        <time>2022-12-31T15:13:42.014Z</time>
      </trkpt>
      <trkpt lat="41.31639" lon="2.0932">
        <ele>48.275608</ele>
        <time>2022-12-31T15:13:45.012Z</time>
      </trkpt>
      <trkpt lat="41.31649" lon="2.09323">
        <ele>48.31054</ele>
        <time>2022-12-31T15:13:48.032Z</time>
      </trkpt>
      <trkpt lat="41.31656" lon="2.09336">
        <ele>48.351843</ele>
        <time>2022-12-31T15:13:51.008Z</time>
      </trkpt>
      <trkpt lat="41.3166" lon="2.09352">
        <ele>48.39598</ele>
        <time>2022-12-31T15:13:54.024Z</time>
      </trkpt>
      <trkpt lat="41.31665" lon="2.09367">
        <ele>48.407201</ele>
        <time>2022-12-31T15:13:57.017Z</time>
      </trkpt>
      <trkpt lat="41.3167" lon="2.09383">
        <ele>48.377016</ele>
        <time>2022-12-31T15:14:00.023Z</time>
      </trkpt>
      <trkpt lat="41.31675" lon="2.09399">
        <ele>48.346449</ele>
        <time>2022-12-31T15:14:03.014Z</time>
      </trkpt>
      <trkpt lat="41.31681" lon="2.09415">
        <ele>48.3162</ele>
        <time>2022-12-31T15:14:06.023Z</time>
      </trkpt>
      <trkpt lat="41.31685" lon="2.09427">
        <ele>48.293828</ele>
        <time>2022-12-31T15:14:08.036Z</time>
      </trkpt>
      <trkpt lat="41.31688" lon="2.09439">
        <ele>48.272206</ele>
        <time>2022-12-31T15:14:10.020Z</time>
      </trkpt>
      <trkpt lat="41.31692" lon="2.09451">
        <ele>48.249279</ele>
        <time>2022-12-31T15:14:12.018Z</time>
      </trkpt>
      <trkpt lat="41.31696" lon="2.09463">
        <ele>48.226719</ele>
        <time>2022-12-31T15:14:14.027Z</time>
      </trkpt>
      <trkpt lat="41.317" lon="2.09475">
        <ele>48.204115</ele>
        <time>2022-12-31T15:14:16.022Z</time>
      </trkpt>
      <trkpt lat="41.31703" lon="2.09487">
        <ele>48.181683</ele>
        <time>2022-12-31T15:14:18.044Z</time>
      </trkpt>
      <trkpt lat="41.31707" lon="2.09499">
        <ele>48.15868</ele>
        <time>2022-12-31T15:14:20.039Z</time>
      </trkpt>
      <trkpt lat="41.3171" lon="2.09511">
        <ele>48.136147</ele>
        <time>2022-12-31T15:14:22.022Z</time>
      </trkpt>
      <trkpt lat="41.31714" lon="2.09523">
        <ele>48.113454</ele>
        <time>2022-12-31T15:14:24.038Z</time>
      </trkpt>
      <trkpt lat="41.31718" lon="2.09535">
        <ele>48.090203</ele>
        <time>2022-12-31T15:14:26.025Z</time>
      </trkpt>
      <trkpt lat="41.31721" lon="2.09547">
        <ele>48.067772</ele>
        <time>2022-12-31T15:14:28.044Z</time>
      </trkpt>
      <trkpt lat="41.31725" lon="2.09559">
        <ele>48.044596</ele>
        <time>2022-12-31T15:14:30.032Z</time>
      </trkpt>
      <trkpt lat="41.31729" lon="2.09571">
        <ele>48.023046</ele>
        <time>2022-12-31T15:14:32.008Z</time>
      </trkpt>
      <trkpt lat="41.31732" lon="2.09583">
        <ele>48.002261</ele>
        <time>2022-12-31T15:14:34.007Z</time>
      </trkpt>
      <trkpt lat="41.31736" lon="2.09595">
        <ele>47.99571</ele>
        <time>2022-12-31T15:14:36.039Z</time>
      </trkpt>
      <trkpt lat="41.3174" lon="2.09608">
        <ele>47.988925</ele>
        <time>2022-12-31T15:14:38.033Z</time>
      </trkpt>
      <trkpt lat="41.31744" lon="2.0962">
        <ele>47.982114</ele>
        <time>2022-12-31T15:14:40.035Z</time>
      </trkpt>
      <trkpt lat="41.31748" lon="2.09634">
        <ele>47.974878</ele>
        <time>2022-12-31T15:14:42.027Z</time>
      </trkpt>
      <trkpt lat="41.31752" lon="2.09647">
        <ele>47.967687</ele>
        <time>2022-12-31T15:14:44.033Z</time>
      </trkpt>
      <trkpt lat="41.31756" lon="2.0966">
        <ele>47.960805</ele>
        <time>2022-12-31T15:14:46.043Z</time>
      </trkpt>
      <trkpt lat="41.3176" lon="2.09672">
        <ele>47.953876</ele>
        <time>2022-12-31T15:14:48.038Z</time>
      </trkpt>
      <trkpt lat="41.31764" lon="2.09685">
        <ele>47.947068</ele>
        <time>2022-12-31T15:14:50.022Z</time>
      </trkpt>
      <trkpt lat="41.31768" lon="2.09698">
        <ele>47.940261</ele>
        <time>2022-12-31T15:14:52.024Z</time>
      </trkpt>
      <trkpt lat="41.31771" lon="2.0971">
        <ele>47.933614</ele>
        <time>2022-12-31T15:14:54.031Z</time>
      </trkpt>
      <trkpt lat="41.31775" lon="2.09723">
        <ele>47.926994</ele>
        <time>2022-12-31T15:14:56.026Z</time>
      </trkpt>
      <trkpt lat="41.31779" lon="2.09735">
        <ele>47.920275</ele>
        <time>2022-12-31T15:14:58.038Z</time>
      </trkpt>
      <trkpt lat="41.31783" lon="2.09747">
        <ele>47.913649</ele>
        <time>2022-12-31T15:15:00.024Z</time>
      </trkpt>
      <trkpt lat="41.31787" lon="2.0976">
        <ele>47.906741</ele>
        <time>2022-12-31T15:15:02.026Z</time>
      </trkpt>
      <trkpt lat="41.31792" lon="2.09772">
        <ele>47.899844</ele>
        <time>2022-12-31T15:15:04.032Z</time>
      </trkpt>
      <trkpt lat="41.31795" lon="2.09785">
        <ele>47.893126</ele>
        <time>2022-12-31T15:15:06.027Z</time>
      </trkpt>
      <trkpt lat="41.31799" lon="2.09797">
        <ele>47.886598</ele>
        <time>2022-12-31T15:15:08.034Z</time>
      </trkpt>
      <trkpt lat="41.31803" lon="2.09809">
        <ele>47.894069</ele>
        <time>2022-12-31T15:15:10.029Z</time>
      </trkpt>
      <trkpt lat="41.31806" lon="2.09821">
        <ele>47.914306</ele>
        <time>2022-12-31T15:15:12.040Z</time>
      </trkpt>
      <trkpt lat="41.3181" lon="2.09833">
        <ele>47.935135</ele>
        <time>2022-12-31T15:15:14.022Z</time>
      </trkpt>
      <trkpt lat="41.31813" lon="2.09846">
        <ele>47.955668</ele>
        <time>2022-12-31T15:15:16.023Z</time>
      </trkpt>
      <trkpt lat="41.31816" lon="2.09858">
        <ele>47.975613</ele>
        <time>2022-12-31T15:15:18.039Z</time>
      </trkpt>
      <trkpt lat="41.31821" lon="2.0987">
        <ele>47.997055</ele>
        <time>2022-12-31T15:15:20.021Z</time>
      </trkpt>
      <trkpt lat="41.31824" lon="2.09882">
        <ele>48.01788</ele>
        <time>2022-12-31T15:15:22.024Z</time>
      </trkpt>
      <trkpt lat="41.31828" lon="2.09895">
        <ele>48.039371</ele>
        <time>2022-12-31T15:15:24.027Z</time>
      </trkpt>
      <trkpt lat="41.31832" lon="2.09908">
        <ele>48.060862</ele>
        <time>2022-12-31T15:15:26.026Z</time>
      </trkpt>
      <trkpt lat="41.31835" lon="2.09921">
        <ele>48.082201</ele>
        <time>2022-12-31T15:15:28.039Z</time>
      </trkpt>
      <trkpt lat="41.31839" lon="2.09934">
        <ele>48.104131</ele>
        <time>2022-12-31T15:15:30.039Z</time>
      </trkpt>
      <trkpt lat="41.31842" lon="2.09946">
        <ele>48.124735</ele>
        <time>2022-12-31T15:15:32.025Z</time>
      </trkpt>
      <trkpt lat="41.31847" lon="2.09958">
        <ele>48.146178</ele>
        <time>2022-12-31T15:15:34.023Z</time>
      </trkpt>
      <trkpt lat="41.3185" lon="2.0997">
        <ele>48.166492</ele>
        <time>2022-12-31T15:15:36.040Z</time>
      </trkpt>
      <trkpt lat="41.31853" lon="2.09982">
        <ele>48.186214</ele>
        <time>2022-12-31T15:15:38.022Z</time>
      </trkpt>
      <trkpt lat="41.31857" lon="2.09994">
        <ele>48.205496</ele>
        <time>2022-12-31T15:15:40.029Z</time>
      </trkpt>
      <trkpt lat="41.31862" lon="2.10009">
        <ele>48.231708</ele>
        <time>2022-12-31T15:15:43.016Z</time>
      </trkpt>
      <trkpt lat="41.31868" lon="2.10023">
        <ele>48.257182</ele>
        <time>2022-12-31T15:15:46.031Z</time>
      </trkpt>
      <trkpt lat="41.31879" lon="2.1003">
        <ele>48.316432</ele>
        <time>2022-12-31T15:15:49.023Z</time>
      </trkpt>
      <trkpt lat="41.31886" lon="2.10018">
        <ele>48.376826</ele>
        <time>2022-12-31T15:15:52.020Z</time>
      </trkpt>
      <trkpt lat="41.31892" lon="2.10006">
        <ele>48.433052</ele>
        <time>2022-12-31T15:15:55.040Z</time>
      </trkpt>
      <trkpt lat="41.31902" lon="2.09996">
        <ele>48.496201</ele>
        <time>2022-12-31T15:15:58.025Z</time>
      </trkpt>
      <trkpt lat="41.31911" lon="2.09987">
        <ele>48.557782</ele>
        <time>2022-12-31T15:16:01.027Z</time>
      </trkpt>
      <trkpt lat="41.3192" lon="2.09976">
        <ele>48.619992</ele>
        <time>2022-12-31T15:16:04.018Z</time>
      </trkpt>
      <trkpt lat="41.31929" lon="2.09964">
        <ele>48.687593</ele>
        <time>2022-12-31T15:16:07.033Z</time>
      </trkpt>
      <trkpt lat="41.31939" lon="2.09954">
        <ele>48.754581</ele>
        <time>2022-12-31T15:16:10.031Z</time>
      </trkpt>
      <trkpt lat="41.31949" lon="2.09942">
        <ele>48.824142</ele>
        <time>2022-12-31T15:16:13.025Z</time>
      </trkpt>
      <trkpt lat="41.31959" lon="2.09931">
        <ele>48.893685</ele>
        <time>2022-12-31T15:16:16.026Z</time>
      </trkpt>
      <trkpt lat="41.31969" lon="2.0992">
        <ele>48.961083</ele>
        <time>2022-12-31T15:16:19.016Z</time>
      </trkpt>
      <trkpt lat="41.31978" lon="2.09909">
        <ele>49.025038</ele>
        <time>2022-12-31T15:16:22.042Z</time>
      </trkpt>
      <trkpt lat="41.31987" lon="2.09898">
        <ele>49.089473</ele>
        <time>2022-12-31T15:16:25.016Z</time>
      </trkpt>
      <trkpt lat="41.31994" lon="2.0989">
        <ele>49.138237</ele>
        <time>2022-12-31T15:16:27.020Z</time>
      </trkpt>
      <trkpt lat="41.32004" lon="2.09878">
        <ele>49.204481</ele>
        <time>2022-12-31T15:16:30.018Z</time>
      </trkpt>
      <trkpt lat="41.32011" lon="2.09871">
        <ele>49.199657</ele>
        <time>2022-12-31T15:16:32.029Z</time>
      </trkpt>
      <trkpt lat="41.32021" lon="2.0986">
        <ele>49.192842</ele>
        <time>2022-12-31T15:16:35.021Z</time>
      </trkpt>
      <trkpt lat="41.32033" lon="2.09854">
        <ele>49.186068</ele>
        <time>2022-12-31T15:16:38.027Z</time>
      </trkpt>
      <trkpt lat="41.32042" lon="2.09864">
        <ele>49.179704</ele>
        <time>2022-12-31T15:16:41.017Z</time>
      </trkpt>
      <trkpt lat="41.32046" lon="2.09879">
        <ele>49.173405</ele>
        <time>2022-12-31T15:16:44.020Z</time>
      </trkpt>
      <trkpt lat="41.3205" lon="2.09894">
        <ele>49.167418</ele>
        <time>2022-12-31T15:16:47.020Z</time>
      </trkpt>
      <trkpt lat="41.32054" lon="2.09908">
        <ele>49.161083</ele>
        <time>2022-12-31T15:16:50.021Z</time>
      </trkpt>
      <trkpt lat="41.32059" lon="2.09923">
        <ele>49.154789</ele>
        <time>2022-12-31T15:16:53.016Z</time>
      </trkpt>
      <trkpt lat="41.32063" lon="2.09934">
        <ele>49.149976</ele>
        <time>2022-12-31T15:16:55.014Z</time>
      </trkpt>
      <trkpt lat="41.32068" lon="2.0995">
        <ele>49.143154</ele>
        <time>2022-12-31T15:16:58.038Z</time>
      </trkpt>
      <trkpt lat="41.32073" lon="2.09963">
        <ele>49.137118</ele>
        <time>2022-12-31T15:17:01.022Z</time>
      </trkpt>
      <trkpt lat="41.32077" lon="2.09979">
        <ele>49.130592</ele>
        <time>2022-12-31T15:17:04.025Z</time>
      </trkpt>
      <trkpt lat="41.32081" lon="2.09995">
        <ele>49.123662</ele>
        <time>2022-12-31T15:17:07.008Z</time>
      </trkpt>
      <trkpt lat="41.32085" lon="2.10011">
        <ele>49.117077</ele>
        <time>2022-12-31T15:17:10.012Z</time>
      </trkpt>
      <trkpt lat="41.32089" lon="2.10027">
        <ele>49.110637</ele>
        <time>2022-12-31T15:17:13.014Z</time>
      </trkpt>
      <trkpt lat="41.32093" lon="2.10042">
        <ele>49.099384</ele>
        <time>2022-12-31T15:17:16.024Z</time>
      </trkpt>
      <trkpt lat="41.32097" lon="2.10058">
        <ele>49.087002</ele>
        <time>2022-12-31T15:17:19.011Z</time>
      </trkpt>
      <trkpt lat="41.32099" lon="2.1007">
        <ele>49.078286</ele>
        <time>2022-12-31T15:17:21.025Z</time>
      </trkpt>
      <trkpt lat="41.32103" lon="2.10081">
        <ele>49.069579</ele>
        <time>2022-12-31T15:17:23.014Z</time>
      </trkpt>
      <trkpt lat="41.32107" lon="2.10096">
        <ele>49.05825</ele>
        <time>2022-12-31T15:17:26.013Z</time>
      </trkpt>
      <trkpt lat="41.32111" lon="2.10107">
        <ele>49.049222</ele>
        <time>2022-12-31T15:17:28.032Z</time>
      </trkpt>
      <trkpt lat="41.32115" lon="2.10118">
        <ele>49.040259</ele>
        <time>2022-12-31T15:17:30.024Z</time>
      </trkpt>
      <trkpt lat="41.3212" lon="2.10134">
        <ele>49.027873</ele>
        <time>2022-12-31T15:17:33.028Z</time>
      </trkpt>
      <trkpt lat="41.32126" lon="2.10145">
        <ele>49.018394</ele>
        <time>2022-12-31T15:17:36.018Z</time>
      </trkpt>
      <trkpt lat="41.32133" lon="2.10154">
        <ele>49.008495</ele>
        <time>2022-12-31T15:17:39.033Z</time>
      </trkpt>
      <trkpt lat="41.32138" lon="2.10167">
        <ele>48.997847</ele>
        <time>2022-12-31T15:17:42.027Z</time>
      </trkpt>
      <trkpt lat="41.32143" lon="2.10182">
        <ele>48.986077</ele>
        <time>2022-12-31T15:17:45.036Z</time>
      </trkpt>
      <trkpt lat="41.32148" lon="2.10197">
        <ele>48.974137</ele>
        <time>2022-12-31T15:17:48.044Z</time>
      </trkpt>
      <trkpt lat="41.32152" lon="2.10213">
        <ele>48.961758</ele>
        <time>2022-12-31T15:17:51.023Z</time>
      </trkpt>
      <trkpt lat="41.32155" lon="2.10225">
        <ele>48.95304</ele>
        <time>2022-12-31T15:17:53.032Z</time>
      </trkpt>
      <trkpt lat="41.3216" lon="2.10241">
        <ele>48.939911</ele>
        <time>2022-12-31T15:17:56.022Z</time>
      </trkpt>
      <trkpt lat="41.32164" lon="2.10253">
        <ele>48.903708</ele>
        <time>2022-12-31T15:17:58.031Z</time>
      </trkpt>
      <trkpt lat="41.32169" lon="2.10269">
        <ele>48.820368</ele>
        <time>2022-12-31T15:18:01.006Z</time>
      </trkpt>
      <trkpt lat="41.32174" lon="2.10285">
        <ele>48.738684</ele>
        <time>2022-12-31T15:18:04.024Z</time>
      </trkpt>
      <trkpt lat="41.32178" lon="2.10296">
        <ele>48.68258</ele>
        <time>2022-12-31T15:18:06.026Z</time>
      </trkpt>
      <trkpt lat="41.32183" lon="2.10312">
        <ele>48.600896</ele>
        <time>2022-12-31T15:18:09.015Z</time>
      </trkpt>
      <trkpt lat="41.32187" lon="2.10324">
        <ele>48.54404</ele>
        <time>2022-12-31T15:18:11.020Z</time>
      </trkpt>
      <trkpt lat="41.32191" lon="2.10335">
        <ele>48.485869</ele>
        <time>2022-12-31T15:18:13.018Z</time>
      </trkpt>
      <trkpt lat="41.32195" lon="2.10346">
        <ele>48.429356</ele>
        <time>2022-12-31T15:18:15.016Z</time>
      </trkpt>
      <trkpt lat="41.322" lon="2.10357">
        <ele>48.372144</ele>
        <time>2022-12-31T15:18:17.004Z</time>
      </trkpt>
      <trkpt lat="41.32205" lon="2.10368">
        <ele>48.311999</ele>
        <time>2022-12-31T15:18:19.022Z</time>
      </trkpt>
      <trkpt lat="41.3221" lon="2.1038">
        <ele>48.248529</ele>
        <time>2022-12-31T15:18:21.019Z</time>
      </trkpt>
      <trkpt lat="41.32213" lon="2.10393">
        <ele>48.183495</ele>
        <time>2022-12-31T15:18:23.014Z</time>
      </trkpt>
      <trkpt lat="41.32219" lon="2.10404">
        <ele>48.121359</ele>
        <time>2022-12-31T15:18:25.005Z</time>
      </trkpt>
      <trkpt lat="41.32226" lon="2.10414">
        <ele>48.05411</ele>
        <time>2022-12-31T15:18:27.014Z</time>
      </trkpt>
      <trkpt lat="41.32234" lon="2.10426">
        <ele>47.983786</ele>
        <time>2022-12-31T15:18:29.032Z</time>
      </trkpt>
      <trkpt lat="41.32241" lon="2.10437">
        <ele>47.915633</ele>
        <time>2022-12-31T15:18:31.017Z</time>
      </trkpt>
      <trkpt lat="41.32247" lon="2.10448">
        <ele>47.849846</ele>
        <time>2022-12-31T15:18:33.018Z</time>
      </trkpt>
      <trkpt lat="41.32254" lon="2.1046">
        <ele>47.911808</ele>
        <time>2022-12-31T15:18:35.021Z</time>
      </trkpt>
      <trkpt lat="41.32261" lon="2.10471">
        <ele>48.055802</ele>
        <time>2022-12-31T15:18:37.019Z</time>
      </trkpt>
      <trkpt lat="41.32267" lon="2.10483">
        <ele>48.200608</ele>
        <time>2022-12-31T15:18:39.018Z</time>
      </trkpt>
      <trkpt lat="41.32274" lon="2.10494">
        <ele>48.338873</ele>
        <time>2022-12-31T15:18:41.020Z</time>
      </trkpt>
      <trkpt lat="41.32281" lon="2.10504">
        <ele>48.48057</ele>
        <time>2022-12-31T15:18:43.018Z</time>
      </trkpt>
      <trkpt lat="41.32287" lon="2.10516">
        <ele>48.626066</ele>
        <time>2022-12-31T15:18:45.021Z</time>
      </trkpt>
      <trkpt lat="41.32294" lon="2.10527">
        <ele>48.766765</ele>
        <time>2022-12-31T15:18:47.018Z</time>
      </trkpt>
      <trkpt lat="41.323" lon="2.10539">
        <ele>48.909</ele>
        <time>2022-12-31T15:18:49.034Z</time>
      </trkpt>
      <trkpt lat="41.32306" lon="2.1055">
        <ele>49.049832</ele>
        <time>2022-12-31T15:18:51.014Z</time>
      </trkpt>
      <trkpt lat="41.32312" lon="2.10562">
        <ele>49.189681</ele>
        <time>2022-12-31T15:18:53.016Z</time>
      </trkpt>
      <trkpt lat="41.32318" lon="2.10572">
        <ele>49.320741</ele>
        <time>2022-12-31T15:18:55.014Z</time>
      </trkpt>
      <trkpt lat="41.32324" lon="2.10582">
        <ele>49.44861</ele>
        <time>2022-12-31T15:18:57.026Z</time>
      </trkpt>
      <trkpt lat="41.32332" lon="2.10596">
        <ele>49.623734</ele>
        <time>2022-12-31T15:19:00.023Z</time>
      </trkpt>
      <trkpt lat="41.32339" lon="2.10609">
        <ele>49.782753</ele>
        <time>2022-12-31T15:19:03.022Z</time>
      </trkpt>
      <trkpt lat="41.32345" lon="2.10622">
        <ele>49.936484</ele>
        <time>2022-12-31T15:19:06.024Z</time>
      </trkpt>
      <trkpt lat="41.32348" lon="2.10636">
        <ele>50.086639</ele>
        <time>2022-12-31T15:19:09.012Z</time>
      </trkpt>
      <trkpt lat="41.32349" lon="2.10653">
        <ele>50.205797</ele>
        <time>2022-12-31T15:19:12.021Z</time>
      </trkpt>
      <trkpt lat="41.32347" lon="2.10665">
        <ele>50.169556</ele>
        <time>2022-12-31T15:19:14.025Z</time>
      </trkpt>
      <trkpt lat="41.32346" lon="2.10677">
        <ele>50.133528</ele>
        <time>2022-12-31T15:19:16.039Z</time>
      </trkpt>
      <trkpt lat="41.32347" lon="2.10689">
        <ele>50.097012</ele>
        <time>2022-12-31T15:19:18.019Z</time>
      </trkpt>
      <trkpt lat="41.32349" lon="2.10701">
        <ele>50.061088</ele>
        <time>2022-12-31T15:19:20.012Z</time>
      </trkpt>
      <trkpt lat="41.32351" lon="2.10713">
        <ele>50.024426</ele>
        <time>2022-12-31T15:19:22.017Z</time>
      </trkpt>
      <trkpt lat="41.32352" lon="2.10725">
        <ele>49.988103</ele>
        <time>2022-12-31T15:19:24.020Z</time>
      </trkpt>
      <trkpt lat="41.32352" lon="2.10743">
        <ele>49.933874</ele>
        <time>2022-12-31T15:19:27.025Z</time>
      </trkpt>
      <trkpt lat="41.3235" lon="2.10755">
        <ele>49.89795</ele>
        <time>2022-12-31T15:19:29.016Z</time>
      </trkpt>
      <trkpt lat="41.32346" lon="2.10767">
        <ele>49.855826</ele>
        <time>2022-12-31T15:19:32.017Z</time>
      </trkpt>
      <trkpt lat="41.32339" lon="2.10776">
        <ele>49.817502</ele>
        <time>2022-12-31T15:19:36.029Z</time>
      </trkpt>
      <trkpt lat="41.32331" lon="2.10789">
        <ele>49.76738</ele>
        <time>2022-12-31T15:19:40.021Z</time>
      </trkpt>
      <trkpt lat="41.32322" lon="2.108">
        <ele>49.718931</ele>
        <time>2022-12-31T15:19:43.018Z</time>
      </trkpt>
      <trkpt lat="41.32312" lon="2.10812">
        <ele>49.66685</ele>
        <time>2022-12-31T15:19:46.014Z</time>
      </trkpt>
      <trkpt lat="41.32305" lon="2.10819">
        <ele>49.630565</ele>
        <time>2022-12-31T15:19:48.022Z</time>
      </trkpt>
      <trkpt lat="41.32298" lon="2.10827">
        <ele>49.593967</ele>
        <time>2022-12-31T15:19:50.017Z</time>
      </trkpt>
      <trkpt lat="41.32291" lon="2.10835">
        <ele>49.555261</ele>
        <time>2022-12-31T15:19:52.019Z</time>
      </trkpt>
      <trkpt lat="41.32283" lon="2.10843">
        <ele>49.515301</ele>
        <time>2022-12-31T15:19:54.020Z</time>
      </trkpt>
      <trkpt lat="41.32275" lon="2.10851">
        <ele>49.455517</ele>
        <time>2022-12-31T15:19:56.017Z</time>
      </trkpt>
      <trkpt lat="41.32267" lon="2.10861">
        <ele>49.377369</ele>
        <time>2022-12-31T15:19:58.031Z</time>
      </trkpt>
      <trkpt lat="41.32259" lon="2.1087">
        <ele>49.301437</ele>
        <time>2022-12-31T15:20:00.013Z</time>
      </trkpt>
      <trkpt lat="41.32251" lon="2.10878">
        <ele>49.22567</ele>
        <time>2022-12-31T15:20:02.028Z</time>
      </trkpt>
      <trkpt lat="41.32244" lon="2.10887">
        <ele>49.149179</ele>
        <time>2022-12-31T15:20:04.021Z</time>
      </trkpt>
      <trkpt lat="41.32236" lon="2.10896">
        <ele>49.076108</ele>
        <time>2022-12-31T15:20:06.031Z</time>
      </trkpt>
      <trkpt lat="41.32229" lon="2.10904">
        <ele>49.004604</ele>
        <time>2022-12-31T15:20:08.025Z</time>
      </trkpt>
      <trkpt lat="41.32221" lon="2.10913">
        <ele>48.927379</ele>
        <time>2022-12-31T15:20:10.018Z</time>
      </trkpt>
      <trkpt lat="41.32213" lon="2.10922">
        <ele>48.848977</ele>
        <time>2022-12-31T15:20:12.018Z</time>
      </trkpt>
      <trkpt lat="41.32205" lon="2.10931">
        <ele>48.776911</ele>
        <time>2022-12-31T15:20:14.014Z</time>
      </trkpt>
      <trkpt lat="41.32197" lon="2.10939">
        <ele>48.701406</ele>
        <time>2022-12-31T15:20:16.024Z</time>
      </trkpt>
      <trkpt lat="41.32189" lon="2.10948">
        <ele>48.622863</ele>
        <time>2022-12-31T15:20:18.033Z</time>
      </trkpt>
      <trkpt lat="41.32182" lon="2.10957">
        <ele>48.549145</ele>
        <time>2022-12-31T15:20:20.023Z</time>
      </trkpt>
      <trkpt lat="41.32174" lon="2.10966">
        <ele>48.475615</ele>
        <time>2022-12-31T15:20:22.019Z</time>
      </trkpt>
      <trkpt lat="41.32167" lon="2.10974">
        <ele>48.404111</ele>
        <time>2022-12-31T15:20:24.017Z</time>
      </trkpt>
      <trkpt lat="41.32157" lon="2.10985">
        <ele>48.306257</ele>
        <time>2022-12-31T15:20:27.015Z</time>
      </trkpt>
      <trkpt lat="41.32147" lon="2.10996">
        <ele>48.21034</ele>
        <time>2022-12-31T15:20:30.017Z</time>
      </trkpt>
      <trkpt lat="41.32136" lon="2.11007">
        <ele>48.233409</ele>
        <time>2022-12-31T15:20:33.014Z</time>
      </trkpt>
      <trkpt lat="41.32127" lon="2.11011">
        <ele>48.317533</ele>
        <time>2022-12-31T15:20:35.018Z</time>
      </trkpt>
      <trkpt lat="41.32118" lon="2.1101">
        <ele>48.40317</ele>
        <time>2022-12-31T15:20:37.010Z</time>
      </trkpt>
      <trkpt lat="41.32109" lon="2.11007">
        <ele>48.488112</ele>
        <time>2022-12-31T15:20:39.009Z</time>
      </trkpt>
      <trkpt lat="41.32099" lon="2.11007">
        <ele>48.573619</ele>
        <time>2022-12-31T15:20:41.024Z</time>
      </trkpt>
      <trkpt lat="41.32089" lon="2.11011">
        <ele>48.662692</ele>
        <time>2022-12-31T15:20:43.009Z</time>
      </trkpt>
      <trkpt lat="41.32081" lon="2.11016">
        <ele>48.75057</ele>
        <time>2022-12-31T15:20:45.012Z</time>
      </trkpt>
      <trkpt lat="41.32074" lon="2.11025">
        <ele>48.83592</ele>
        <time>2022-12-31T15:20:47.004Z</time>
      </trkpt>
      <trkpt lat="41.32069" lon="2.11036">
        <ele>48.91959</ele>
        <time>2022-12-31T15:20:49.010Z</time>
      </trkpt>
      <trkpt lat="41.32065" lon="2.11053">
        <ele>49.038585</ele>
        <time>2022-12-31T15:20:52.025Z</time>
      </trkpt>
      <trkpt lat="41.32066" lon="2.1107">
        <ele>49.153786</ele>
        <time>2022-12-31T15:20:55.012Z</time>
      </trkpt>
      <trkpt lat="41.32071" lon="2.11085">
        <ele>49.267745</ele>
        <time>2022-12-31T15:20:58.020Z</time>
      </trkpt>
      <trkpt lat="41.3208" lon="2.11099">
        <ele>49.386829</ele>
        <time>2022-12-31T15:21:01.004Z</time>
      </trkpt>
      <trkpt lat="41.3209" lon="2.11109">
        <ele>49.504463</ele>
        <time>2022-12-31T15:21:04.021Z</time>
      </trkpt>
      <trkpt lat="41.321" lon="2.11121">
        <ele>49.624757</ele>
        <time>2022-12-31T15:21:07.013Z</time>
      </trkpt>
      <trkpt lat="41.32107" lon="2.11136">
        <ele>49.745183</ele>
        <time>2022-12-31T15:21:10.017Z</time>
      </trkpt>
      <trkpt lat="41.32111" lon="2.11151">
        <ele>50.052541</ele>
        <time>2022-12-31T15:21:13.012Z</time>
      </trkpt>
      <trkpt lat="41.32114" lon="2.11165">
        <ele>50.404453</ele>
        <time>2022-12-31T15:21:16.024Z</time>
      </trkpt>
      <trkpt lat="41.32116" lon="2.11177">
        <ele>50.708101</ele>
        <time>2022-12-31T15:21:19.015Z</time>
      </trkpt>
      <trkpt lat="41.32118" lon="2.11188">
        <ele>51.01761</ele>
        <time>2022-12-31T15:21:22.037Z</time>
      </trkpt>
      <trkpt lat="41.3212" lon="2.11201">
        <ele>51.338345</ele>
        <time>2022-12-31T15:21:25.021Z</time>
      </trkpt>
      <trkpt lat="41.32123" lon="2.11212">
        <ele>51.65329</ele>
        <time>2022-12-31T15:21:28.021Z</time>
      </trkpt>
      <trkpt lat="41.32126" lon="2.11228">
        <ele>52.056862</ele>
        <time>2022-12-31T15:21:32.023Z</time>
      </trkpt>
      <trkpt lat="41.3213" lon="2.11243">
        <ele>52.462575</ele>
        <time>2022-12-31T15:21:36.009Z</time>
      </trkpt>
      <trkpt lat="41.32132" lon="2.11255">
        <ele>52.773448</ele>
        <time>2022-12-31T15:21:39.018Z</time>
      </trkpt>
      <trkpt lat="41.32134" lon="2.11267">
        <ele>53.0764</ele>
        <time>2022-12-31T15:21:42.017Z</time>
      </trkpt>
      <trkpt lat="41.32136" lon="2.11278">
        <ele>53.382349</ele>
        <time>2022-12-31T15:21:45.020Z</time>
      </trkpt>
      <trkpt lat="41.32139" lon="2.11294">
        <ele>53.783465</ele>
        <time>2022-12-31T15:21:49.017Z</time>
      </trkpt>
      <trkpt lat="41.32142" lon="2.11308">
        <ele>54.169875</ele>
        <time>2022-12-31T15:21:53.018Z</time>
      </trkpt>
      <trkpt lat="41.32145" lon="2.11323">
        <ele>54.538986</ele>
        <time>2022-12-31T15:21:57.038Z</time>
      </trkpt>
      <trkpt lat="41.32147" lon="2.11335">
        <ele>54.871333</ele>
        <time>2022-12-31T15:22:01.014Z</time>
      </trkpt>
      <trkpt lat="41.3215" lon="2.11348">
        <ele>55.204649</ele>
        <time>2022-12-31T15:22:05.010Z</time>
      </trkpt>
      <trkpt lat="41.32152" lon="2.11361">
        <ele>55.544346</ele>
        <time>2022-12-31T15:22:09.011Z</time>
      </trkpt>
      <trkpt lat="41.32155" lon="2.11374">
        <ele>55.864145</ele>
        <time>2022-12-31T15:22:14.017Z</time>
      </trkpt>
      <trkpt lat="41.32157" lon="2.11388">
        <ele>55.90892</ele>
        <time>2022-12-31T15:22:18.020Z</time>
      </trkpt>
      <trkpt lat="41.3216" lon="2.114">
        <ele>55.949952</ele>
        <time>2022-12-31T15:22:21.026Z</time>
      </trkpt>
      <trkpt lat="41.32162" lon="2.11412">
        <ele>55.989807</ele>
        <time>2022-12-31T15:22:24.037Z</time>
      </trkpt>
      <trkpt lat="41.32165" lon="2.11425">
        <ele>56.031993</ele>
        <time>2022-12-31T15:22:27.026Z</time>
      </trkpt>
      <trkpt lat="41.32167" lon="2.11438">
        <ele>56.073754</ele>
        <time>2022-12-31T15:22:30.028Z</time>
      </trkpt>
      <trkpt lat="41.3217" lon="2.11451">
        <ele>56.119132</ele>
        <time>2022-12-31T15:22:33.034Z</time>
      </trkpt>
      <trkpt lat="41.32173" lon="2.11466">
        <ele>56.168113</ele>
        <time>2022-12-31T15:22:36.026Z</time>
      </trkpt>
      <trkpt lat="41.32176" lon="2.11481">
        <ele>56.218959</ele>
        <time>2022-12-31T15:22:39.022Z</time>
      </trkpt>
      <trkpt lat="41.32179" lon="2.11497">
        <ele>56.269002</ele>
        <time>2022-12-31T15:22:42.022Z</time>
      </trkpt>
      <trkpt lat="41.32182" lon="2.1151">
        <ele>56.3148</ele>
        <time>2022-12-31T15:22:45.000Z</time>
      </trkpt>
      <trkpt lat="41.32184" lon="2.11524">
        <ele>56.360115</ele>
        <time>2022-12-31T15:22:48.037Z</time>
      </trkpt>
      <trkpt lat="41.32187" lon="2.11537">
        <ele>56.403644</ele>
        <time>2022-12-31T15:22:51.010Z</time>
      </trkpt>
      <trkpt lat="41.3219" lon="2.11551">
        <ele>56.44933</ele>
        <time>2022-12-31T15:22:54.002Z</time>
      </trkpt>
      <trkpt lat="41.32192" lon="2.11565">
        <ele>56.495111</ele>
        <time>2022-12-31T15:22:57.017Z</time>
      </trkpt>
      <trkpt lat="41.32195" lon="2.1158">
        <ele>56.543909</ele>
        <time>2022-12-31T15:23:00.023Z</time>
      </trkpt>
      <trkpt lat="41.32198" lon="2.11595">
        <ele>56.594139</ele>
        <time>2022-12-31T15:23:03.020Z</time>
      </trkpt>
      <trkpt lat="41.32201" lon="2.1161">
        <ele>56.473558</ele>
        <time>2022-12-31T15:23:06.029Z</time>
      </trkpt>
      <trkpt lat="41.32204" lon="2.11625">
        <ele>56.08176</ele>
        <time>2022-12-31T15:23:09.029Z</time>
      </trkpt>
      <trkpt lat="41.32207" lon="2.1164">
        <ele>55.669195</ele>
        <time>2022-12-31T15:23:12.014Z</time>
      </trkpt>
      <trkpt lat="41.32208" lon="2.11657">
        <ele>55.242493</ele>
        <time>2022-12-31T15:23:15.023Z</time>
      </trkpt>
      <trkpt lat="41.32202" lon="2.11671">
        <ele>54.814909</ele>
        <time>2022-12-31T15:23:18.048Z</time>
      </trkpt>
      <trkpt lat="41.32193" lon="2.11682">
        <ele>54.398198</ele>
        <time>2022-12-31T15:23:21.017Z</time>
      </trkpt>
      <trkpt lat="41.32182" lon="2.11688">
        <ele>53.976895</ele>
        <time>2022-12-31T15:23:24.017Z</time>
      </trkpt>
      <trkpt lat="41.32172" lon="2.11687">
        <ele>53.655026</ele>
        <time>2022-12-31T15:23:26.022Z</time>
      </trkpt>
      <trkpt lat="41.32163" lon="2.11684">
        <ele>53.312557</ele>
        <time>2022-12-31T15:23:28.016Z</time>
      </trkpt>
      <trkpt lat="41.32152" lon="2.1168">
        <ele>52.944881</ele>
        <time>2022-12-31T15:23:30.019Z</time>
      </trkpt>
      <trkpt lat="41.32141" lon="2.11677">
        <ele>52.535837</ele>
        <time>2022-12-31T15:23:32.024Z</time>
      </trkpt>
      <trkpt lat="41.32128" lon="2.11674">
        <ele>52.101944</ele>
        <time>2022-12-31T15:23:34.018Z</time>
      </trkpt>
      <trkpt lat="41.32115" lon="2.11673">
        <ele>51.653794</ele>
        <time>2022-12-31T15:23:36.018Z</time>
      </trkpt>
      <trkpt lat="41.32102" lon="2.11675">
        <ele>51.203743</ele>
        <time>2022-12-31T15:23:38.030Z</time>
      </trkpt>
      <trkpt lat="41.32089" lon="2.1168">
        <ele>50.735789</ele>
        <time>2022-12-31T15:23:40.027Z</time>
      </trkpt>
      <trkpt lat="41.32077" lon="2.11689">
        <ele>50.431236</ele>
        <time>2022-12-31T15:23:42.038Z</time>
      </trkpt>
      <trkpt lat="41.32066" lon="2.11701">
        <ele>50.409072</ele>
        <time>2022-12-31T15:23:44.020Z</time>
      </trkpt>
      <trkpt lat="41.32055" lon="2.11713">
        <ele>50.387433</ele>
        <time>2022-12-31T15:23:46.030Z</time>
      </trkpt>
      <trkpt lat="41.32045" lon="2.11725">
        <ele>50.365706</ele>
        <time>2022-12-31T15:23:48.032Z</time>
      </trkpt>
      <trkpt lat="41.32036" lon="2.11737">
        <ele>50.345678</ele>
        <time>2022-12-31T15:23:50.015Z</time>
      </trkpt>
      <trkpt lat="41.32027" lon="2.11746">
        <ele>50.328289</ele>
        <time>2022-12-31T15:23:53.020Z</time>
      </trkpt>
      <trkpt lat="41.3203" lon="2.11761">
        <ele>50.311009</ele>
        <time>2022-12-31T15:23:58.028Z</time>
      </trkpt>
      <trkpt lat="41.32035" lon="2.11773">
        <ele>50.293971</ele>
        <time>2022-12-31T15:24:02.015Z</time>
      </trkpt>
      <trkpt lat="41.32034" lon="2.11786">
        <ele>50.279354</ele>
        <time>2022-12-31T15:24:05.013Z</time>
      </trkpt>
      <trkpt lat="41.3203" lon="2.11796">
        <ele>50.264716</ele>
        <time>2022-12-31T15:24:08.023Z</time>
      </trkpt>
      <trkpt lat="41.32024" lon="2.11807">
        <ele>50.24945</ele>
        <time>2022-12-31T15:24:12.000Z</time>
      </trkpt>
      <trkpt lat="41.32016" lon="2.11816">
        <ele>50.232586</ele>
        <time>2022-12-31T15:24:19.015Z</time>
      </trkpt>
      <trkpt lat="41.32008" lon="2.11825">
        <ele>50.216797</ele>
        <time>2022-12-31T15:24:22.015Z</time>
      </trkpt>
      <trkpt lat="41.32001" lon="2.11834">
        <ele>50.200779</ele>
        <time>2022-12-31T15:24:25.012Z</time>
      </trkpt>
      <trkpt lat="41.31993" lon="2.11845">
        <ele>50.183695</ele>
        <time>2022-12-31T15:24:28.044Z</time>
      </trkpt>
      <trkpt lat="41.31984" lon="2.11857">
        <ele>50.16386</ele>
        <time>2022-12-31T15:24:31.021Z</time>
      </trkpt>
      <trkpt lat="41.31977" lon="2.11869">
        <ele>50.214092</ele>
        <time>2022-12-31T15:24:34.015Z</time>
      </trkpt>
      <trkpt lat="41.31969" lon="2.11882">
        <ele>50.292278</ele>
        <time>2022-12-31T15:24:37.021Z</time>
      </trkpt>
      <trkpt lat="41.3196" lon="2.11894">
        <ele>50.370175</ele>
        <time>2022-12-31T15:24:40.023Z</time>
      </trkpt>
      <trkpt lat="41.31951" lon="2.11904">
        <ele>50.443491</ele>
        <time>2022-12-31T15:24:43.011Z</time>
      </trkpt>
      <trkpt lat="41.31943" lon="2.11912">
        <ele>50.506471</ele>
        <time>2022-12-31T15:24:47.030Z</time>
      </trkpt>
      <trkpt lat="41.31933" lon="2.11912">
        <ele>50.56797</ele>
        <time>2022-12-31T15:24:51.017Z</time>
      </trkpt>
      <trkpt lat="41.31922" lon="2.11916">
        <ele>50.639021</ele>
        <time>2022-12-31T15:24:55.014Z</time>
      </trkpt>
      <trkpt lat="41.31913" lon="2.11925">
        <ele>50.712259</ele>
        <time>2022-12-31T15:24:58.022Z</time>
      </trkpt>
      <trkpt lat="41.31906" lon="2.11934">
        <ele>50.769528</ele>
        <time>2022-12-31T15:25:00.010Z</time>
      </trkpt>
      <trkpt lat="41.319" lon="2.11942">
        <ele>50.828891</ele>
        <time>2022-12-31T15:25:02.015Z</time>
      </trkpt>
      <trkpt lat="41.31893" lon="2.11952">
        <ele>50.889085</ele>
        <time>2022-12-31T15:25:04.029Z</time>
      </trkpt>
      <trkpt lat="41.31887" lon="2.11961">
        <ele>50.949142</ele>
        <time>2022-12-31T15:25:06.031Z</time>
      </trkpt>
      <trkpt lat="41.3188" lon="2.1197">
        <ele>51.009073</ele>
        <time>2022-12-31T15:25:08.025Z</time>
      </trkpt>
      <trkpt lat="41.31872" lon="2.1198">
        <ele>51.075529</ele>
        <time>2022-12-31T15:25:10.024Z</time>
      </trkpt>
      <trkpt lat="41.31864" lon="2.11986">
        <ele>51.133355</ele>
        <time>2022-12-31T15:25:12.018Z</time>
      </trkpt>
      <trkpt lat="41.31855" lon="2.11998">
        <ele>51.21364</ele>
        <time>2022-12-31T15:25:15.020Z</time>
      </trkpt>
      <trkpt lat="41.31845" lon="2.1201">
        <ele>51.276593</ele>
        <time>2022-12-31T15:25:18.040Z</time>
      </trkpt>
      <trkpt lat="41.31835" lon="2.12021">
        <ele>51.199046</ele>
        <time>2022-12-31T15:25:21.035Z</time>
      </trkpt>
      <trkpt lat="41.31825" lon="2.12033">
        <ele>51.120156</ele>
        <time>2022-12-31T15:25:24.014Z</time>
      </trkpt>
      <trkpt lat="41.31818" lon="2.12042">
        <ele>51.064654</ele>
        <time>2022-12-31T15:25:26.040Z</time>
      </trkpt>
      <trkpt lat="41.31808" lon="2.12054">
        <ele>50.983002</ele>
        <time>2022-12-31T15:25:29.014Z</time>
      </trkpt>
      <trkpt lat="41.31802" lon="2.12064">
        <ele>50.925915</ele>
        <time>2022-12-31T15:25:31.021Z</time>
      </trkpt>
      <trkpt lat="41.31795" lon="2.12072">
        <ele>50.871756</ele>
        <time>2022-12-31T15:25:33.021Z</time>
      </trkpt>
      <trkpt lat="41.31789" lon="2.12081">
        <ele>50.817132</ele>
        <time>2022-12-31T15:25:35.015Z</time>
      </trkpt>
      <trkpt lat="41.31782" lon="2.12089">
        <ele>50.761478</ele>
        <time>2022-12-31T15:25:37.025Z</time>
      </trkpt>
      <trkpt lat="41.31772" lon="2.12102">
        <ele>50.680258</ele>
        <time>2022-12-31T15:25:40.018Z</time>
      </trkpt>
      <trkpt lat="41.31765" lon="2.12112">
        <ele>50.620124</ele>
        <time>2022-12-31T15:25:42.000Z</time>
      </trkpt>
      <trkpt lat="41.31758" lon="2.12121">
        <ele>50.562572</ele>
        <time>2022-12-31T15:25:44.018Z</time>
      </trkpt>
      <trkpt lat="41.31751" lon="2.12131">
        <ele>50.502832</ele>
        <time>2022-12-31T15:25:46.019Z</time>
      </trkpt>
      <trkpt lat="41.31744" lon="2.1214">
        <ele>50.443193</ele>
        <time>2022-12-31T15:25:48.024Z</time>
      </trkpt>
      <trkpt lat="41.31737" lon="2.12149">
        <ele>50.387749</ele>
        <time>2022-12-31T15:25:50.020Z</time>
      </trkpt>
      <trkpt lat="41.3173" lon="2.12157">
        <ele>50.333279</ele>
        <time>2022-12-31T15:25:52.042Z</time>
      </trkpt>
      <trkpt lat="41.31724" lon="2.12167">
        <ele>50.273539</ele>
        <time>2022-12-31T15:25:54.023Z</time>
      </trkpt>
      <trkpt lat="41.31716" lon="2.12175">
        <ele>50.223529</ele>
        <time>2022-12-31T15:25:56.017Z</time>
      </trkpt>
      <trkpt lat="41.3171" lon="2.12184">
        <ele>50.239214</ele>
        <time>2022-12-31T15:25:58.051Z</time>
      </trkpt>
      <trkpt lat="41.31703" lon="2.12193">
        <ele>50.25545</ele>
        <time>2022-12-31T15:26:00.024Z</time>
      </trkpt>
      <trkpt lat="41.31697" lon="2.12202">
        <ele>50.271156</ele>
        <time>2022-12-31T15:26:02.020Z</time>
      </trkpt>
      <trkpt lat="41.31689" lon="2.12211">
        <ele>50.287884</ele>
        <time>2022-12-31T15:26:04.030Z</time>
      </trkpt>
      <trkpt lat="41.31679" lon="2.12224">
        <ele>50.310528</ele>
        <time>2022-12-31T15:26:07.019Z</time>
      </trkpt>
      <trkpt lat="41.31673" lon="2.12233">
        <ele>50.327087</ele>
        <time>2022-12-31T15:26:09.032Z</time>
      </trkpt>
      <trkpt lat="41.31665" lon="2.12242">
        <ele>50.34374</ele>
        <time>2022-12-31T15:26:11.023Z</time>
      </trkpt>
      <trkpt lat="41.31658" lon="2.12251">
        <ele>50.360134</ele>
        <time>2022-12-31T15:26:13.018Z</time>
      </trkpt>
      <trkpt lat="41.31651" lon="2.1226">
        <ele>50.376129</ele>
        <time>2022-12-31T15:26:15.009Z</time>
      </trkpt>
      <trkpt lat="41.31644" lon="2.12269">
        <ele>50.392663</ele>
        <time>2022-12-31T15:26:17.020Z</time>
      </trkpt>
      <trkpt lat="41.31638" lon="2.12278">
        <ele>50.40845</ele>
        <time>2022-12-31T15:26:19.018Z</time>
      </trkpt>
      <trkpt lat="41.31631" lon="2.12287">
        <ele>50.424547</ele>
        <time>2022-12-31T15:26:21.016Z</time>
      </trkpt>
      <trkpt lat="41.31621" lon="2.123">
        <ele>50.447521</ele>
        <time>2022-12-31T15:26:24.017Z</time>
      </trkpt>
      <trkpt lat="41.31614" lon="2.12308">
        <ele>50.463091</ele>
        <time>2022-12-31T15:26:26.023Z</time>
      </trkpt>
      <trkpt lat="41.31607" lon="2.12316">
        <ele>50.478945</ele>
        <time>2022-12-31T15:26:28.036Z</time>
      </trkpt>
      <trkpt lat="41.31601" lon="2.12325">
        <ele>50.494288</ele>
        <time>2022-12-31T15:26:30.012Z</time>
      </trkpt>
      <trkpt lat="41.31594" lon="2.12333">
        <ele>50.509809</ele>
        <time>2022-12-31T15:26:32.019Z</time>
      </trkpt>
      <trkpt lat="41.31587" lon="2.12342">
        <ele>50.510397</ele>
        <time>2022-12-31T15:26:34.020Z</time>
      </trkpt>
      <trkpt lat="41.31578" lon="2.12354">
        <ele>50.308737</ele>
        <time>2022-12-31T15:26:37.029Z</time>
      </trkpt>
      <trkpt lat="41.31571" lon="2.12363">
        <ele>50.173756</ele>
        <time>2022-12-31T15:26:39.015Z</time>
      </trkpt>
      <trkpt lat="41.31562" lon="2.12375">
        <ele>49.976296</ele>
        <time>2022-12-31T15:26:42.018Z</time>
      </trkpt>
      <trkpt lat="41.31555" lon="2.12383">
        <ele>49.841013</ele>
        <time>2022-12-31T15:26:44.042Z</time>
      </trkpt>
      <trkpt lat="41.31549" lon="2.12392">
        <ele>49.706496</ele>
        <time>2022-12-31T15:26:46.019Z</time>
      </trkpt>
      <trkpt lat="41.31539" lon="2.12404">
        <ele>49.506681</ele>
        <time>2022-12-31T15:26:49.021Z</time>
      </trkpt>
      <trkpt lat="41.3153" lon="2.12416">
        <ele>49.322415</ele>
        <time>2022-12-31T15:26:52.037Z</time>
      </trkpt>
      <trkpt lat="41.31524" lon="2.12427">
        <ele>49.1621</ele>
        <time>2022-12-31T15:26:55.026Z</time>
      </trkpt>
      <trkpt lat="41.31526" lon="2.1244">
        <ele>49.011388</ele>
        <time>2022-12-31T15:26:58.029Z</time>
      </trkpt>
      <trkpt lat="41.31524" lon="2.12453">
        <ele>48.864261</ele>
        <time>2022-12-31T15:27:01.021Z</time>
      </trkpt>
      <trkpt lat="41.3152" lon="2.12465">
        <ele>48.717024</ele>
        <time>2022-12-31T15:27:04.024Z</time>
      </trkpt>
      <trkpt lat="41.31525" lon="2.12478">
        <ele>48.55922</ele>
        <time>2022-12-31T15:27:07.011Z</time>
      </trkpt>
      <trkpt lat="41.31531" lon="2.12488">
        <ele>48.416845</ele>
        <time>2022-12-31T15:27:10.009Z</time>
      </trkpt>
      <trkpt lat="41.31528" lon="2.125">
        <ele>48.279063</ele>
        <time>2022-12-31T15:27:13.011Z</time>
      </trkpt>
      <trkpt lat="41.31523" lon="2.12511">
        <ele>48.128585</ele>
        <time>2022-12-31T15:27:17.015Z</time>
      </trkpt>
      <trkpt lat="41.31528" lon="2.12523">
        <ele>47.98329</ele>
        <time>2022-12-31T15:27:20.027Z</time>
      </trkpt>
      <trkpt lat="41.31538" lon="2.12531">
        <ele>47.833066</ele>
        <time>2022-12-31T15:27:23.012Z</time>
      </trkpt>
      <trkpt lat="41.31548" lon="2.12539">
        <ele>47.787375</ele>
        <time>2022-12-31T15:27:26.013Z</time>
      </trkpt>
      <trkpt lat="41.31558" lon="2.12549">
        <ele>47.740693</ele>
        <time>2022-12-31T15:27:28.993Z</time>
      </trkpt>
      <trkpt lat="41.31569" lon="2.1256">
        <ele>47.690015</ele>
        <time>2022-12-31T15:27:32.021Z</time>
      </trkpt>
      <trkpt lat="41.31576" lon="2.12568">
        <ele>47.654264</ele>
        <time>2022-12-31T15:27:34.019Z</time>
      </trkpt>
      <trkpt lat="41.31583" lon="2.12577">
        <ele>47.617767</ele>
        <time>2022-12-31T15:27:36.018Z</time>
      </trkpt>
      <trkpt lat="41.31589" lon="2.12586">
        <ele>47.580533</ele>
        <time>2022-12-31T15:27:38.018Z</time>
      </trkpt>
      <trkpt lat="41.31597" lon="2.12596">
        <ele>47.540045</ele>
        <time>2022-12-31T15:27:40.012Z</time>
      </trkpt>
      <trkpt lat="41.31604" lon="2.12606">
        <ele>47.500305</ele>
        <time>2022-12-31T15:27:42.013Z</time>
      </trkpt>
      <trkpt lat="41.31612" lon="2.12615">
        <ele>47.459076</ele>
        <time>2022-12-31T15:27:44.019Z</time>
      </trkpt>
      <trkpt lat="41.3162" lon="2.12625">
        <ele>47.419129</ele>
        <time>2022-12-31T15:27:46.012Z</time>
      </trkpt>
      <trkpt lat="41.31628" lon="2.12635">
        <ele>47.377132</ele>
        <time>2022-12-31T15:27:48.038Z</time>
      </trkpt>
      <trkpt lat="41.31635" lon="2.12646">
        <ele>47.334043</ele>
        <time>2022-12-31T15:27:50.014Z</time>
      </trkpt>
      <trkpt lat="41.31643" lon="2.12657">
        <ele>47.291061</ele>
        <time>2022-12-31T15:27:52.029Z</time>
      </trkpt>
      <trkpt lat="41.31651" lon="2.12668">
        <ele>47.247882</ele>
        <time>2022-12-31T15:27:54.016Z</time>
      </trkpt>
      <trkpt lat="41.31659" lon="2.12679">
        <ele>47.204955</ele>
        <time>2022-12-31T15:27:56.021Z</time>
      </trkpt>
      <trkpt lat="41.31666" lon="2.1269">
        <ele>47.162197</ele>
        <time>2022-12-31T15:27:58.037Z</time>
      </trkpt>
      <trkpt lat="41.31675" lon="2.127">
        <ele>47.203359</ele>
        <time>2022-12-31T15:28:00.017Z</time>
      </trkpt>
      <trkpt lat="41.31683" lon="2.12711">
        <ele>47.257097</ele>
        <time>2022-12-31T15:28:02.023Z</time>
      </trkpt>
      <trkpt lat="41.31691" lon="2.12722">
        <ele>47.312102</ele>
        <time>2022-12-31T15:28:04.011Z</time>
      </trkpt>
      <trkpt lat="41.31699" lon="2.12733">
        <ele>47.366795</ele>
        <time>2022-12-31T15:28:06.019Z</time>
      </trkpt>
      <trkpt lat="41.31707" lon="2.12744">
        <ele>47.420303</ele>
        <time>2022-12-31T15:28:08.025Z</time>
      </trkpt>
      <trkpt lat="41.31715" lon="2.12755">
        <ele>47.474575</ele>
        <time>2022-12-31T15:28:10.015Z</time>
      </trkpt>
      <trkpt lat="41.31723" lon="2.12766">
        <ele>47.52863</ele>
        <time>2022-12-31T15:28:12.006Z</time>
      </trkpt>
      <trkpt lat="41.31731" lon="2.12778">
        <ele>47.581966</ele>
        <time>2022-12-31T15:28:14.019Z</time>
      </trkpt>
      <trkpt lat="41.31739" lon="2.12788">
        <ele>47.635561</ele>
        <time>2022-12-31T15:28:16.016Z</time>
      </trkpt>
      <trkpt lat="41.31747" lon="2.12799">
        <ele>47.689156</ele>
        <time>2022-12-31T15:28:18.040Z</time>
      </trkpt>
      <trkpt lat="41.31755" lon="2.1281">
        <ele>47.743742</ele>
        <time>2022-12-31T15:28:20.016Z</time>
      </trkpt>
      <trkpt lat="41.31763" lon="2.12821">
        <ele>47.798251</ele>
        <time>2022-12-31T15:28:22.030Z</time>
      </trkpt>
      <trkpt lat="41.31771" lon="2.12832">
        <ele>47.851676</ele>
        <time>2022-12-31T15:28:24.018Z</time>
      </trkpt>
      <trkpt lat="41.3178" lon="2.12842">
        <ele>47.906191</ele>
        <time>2022-12-31T15:28:26.031Z</time>
      </trkpt>
      <trkpt lat="41.31788" lon="2.12853">
        <ele>47.959947</ele>
        <time>2022-12-31T15:28:28.031Z</time>
      </trkpt>
      <trkpt lat="41.31795" lon="2.12864">
        <ele>47.996976</ele>
        <time>2022-12-31T15:28:30.040Z</time>
      </trkpt>
      <trkpt lat="41.31803" lon="2.12875">
        <ele>47.98572</ele>
        <time>2022-12-31T15:28:32.021Z</time>
      </trkpt>
      <trkpt lat="41.31811" lon="2.12886">
        <ele>47.974196</ele>
        <time>2022-12-31T15:28:34.025Z</time>
      </trkpt>
      <trkpt lat="41.3182" lon="2.12896">
        <ele>47.962867</ele>
        <time>2022-12-31T15:28:36.021Z</time>
      </trkpt>
      <trkpt lat="41.31829" lon="2.12906">
        <ele>47.950984</ele>
        <time>2022-12-31T15:28:38.020Z</time>
      </trkpt>
      <trkpt lat="41.31836" lon="2.12917">
        <ele>47.939494</ele>
        <time>2022-12-31T15:28:40.042Z</time>
      </trkpt>
      <trkpt lat="41.31843" lon="2.12929">
        <ele>47.927846</ele>
        <time>2022-12-31T15:28:42.015Z</time>
      </trkpt>
      <trkpt lat="41.31844" lon="2.12944">
        <ele>47.916641</ele>
        <time>2022-12-31T15:28:44.026Z</time>
      </trkpt>
      <trkpt lat="41.3184" lon="2.12959">
        <ele>47.904662</ele>
        <time>2022-12-31T15:28:46.017Z</time>
      </trkpt>
      <trkpt lat="41.31836" lon="2.12973">
        <ele>47.893294</ele>
        <time>2022-12-31T15:28:48.028Z</time>
      </trkpt>
      <trkpt lat="41.31838" lon="2.12987">
        <ele>47.882276</ele>
        <time>2022-12-31T15:28:50.023Z</time>
      </trkpt>
      <trkpt lat="41.31846" lon="2.12997">
        <ele>47.871215</ele>
        <time>2022-12-31T15:28:52.029Z</time>
      </trkpt>
      <trkpt lat="41.31857" lon="2.12999">
        <ele>47.860381</ele>
        <time>2022-12-31T15:28:54.019Z</time>
      </trkpt>
      <trkpt lat="41.31867" lon="2.12998">
        <ele>47.849716</ele>
        <time>2022-12-31T15:28:56.015Z</time>
      </trkpt>
      <trkpt lat="41.31877" lon="2.13002">
        <ele>47.838983</ele>
        <time>2022-12-31T15:28:58.022Z</time>
      </trkpt>
      <trkpt lat="41.31886" lon="2.13012">
        <ele>47.82765</ele>
        <time>2022-12-31T15:29:00.015Z</time>
      </trkpt>
      <trkpt lat="41.31893" lon="2.13023">
        <ele>47.810924</ele>
        <time>2022-12-31T15:29:02.014Z</time>
      </trkpt>
      <trkpt lat="41.31901" lon="2.13034">
        <ele>47.762508</ele>
        <time>2022-12-31T15:29:04.009Z</time>
      </trkpt>
      <trkpt lat="41.31909" lon="2.13045">
        <ele>47.714208</ele>
        <time>2022-12-31T15:29:06.022Z</time>
      </trkpt>
      <trkpt lat="41.31917" lon="2.13056">
        <ele>47.663285</ele>
        <time>2022-12-31T15:29:08.031Z</time>
      </trkpt>
      <trkpt lat="41.31926" lon="2.13067">
        <ele>47.614897</ele>
        <time>2022-12-31T15:29:10.029Z</time>
      </trkpt>
      <trkpt lat="41.31933" lon="2.13076">
        <ele>47.569584</ele>
        <time>2022-12-31T15:29:12.019Z</time>
      </trkpt>
      <trkpt lat="41.31941" lon="2.13087">
        <ele>47.522719</ele>
        <time>2022-12-31T15:29:14.020Z</time>
      </trkpt>
      <trkpt lat="41.31948" lon="2.13097">
        <ele>47.478777</ele>
        <time>2022-12-31T15:29:16.014Z</time>
      </trkpt>
      <trkpt lat="41.31956" lon="2.13106">
        <ele>47.435518</ele>
        <time>2022-12-31T15:29:18.018Z</time>
      </trkpt>
      <trkpt lat="41.31963" lon="2.13117">
        <ele>47.388559</ele>
        <time>2022-12-31T15:29:19.996Z</time>
      </trkpt>
      <trkpt lat="41.3197" lon="2.13128">
        <ele>47.342273</ele>
        <time>2022-12-31T15:29:22.020Z</time>
      </trkpt>
      <trkpt lat="41.31977" lon="2.1314">
        <ele>47.295613</ele>
        <time>2022-12-31T15:29:24.007Z</time>
      </trkpt>
      <trkpt lat="41.31983" lon="2.13151">
        <ele>47.250439</ele>
        <time>2022-12-31T15:29:26.014Z</time>
      </trkpt>
      <trkpt lat="41.31991" lon="2.13162">
        <ele>47.200495</ele>
        <time>2022-12-31T15:29:29.007Z</time>
      </trkpt>
      <trkpt lat="41.31999" lon="2.13169">
        <ele>47.161091</ele>
        <time>2022-12-31T15:29:34.004Z</time>
      </trkpt>
      <trkpt lat="41.32006" lon="2.13178">
        <ele>47.121885</ele>
        <time>2022-12-31T15:29:52.020Z</time>
      </trkpt>
      <trkpt lat="41.32011" lon="2.1319">
        <ele>47.078045</ele>
        <time>2022-12-31T15:29:56.009Z</time>
      </trkpt>
      <trkpt lat="41.3202" lon="2.13194">
        <ele>47.067881</ele>
        <time>2022-12-31T15:29:59.021Z</time>
      </trkpt>
      <trkpt lat="41.32033" lon="2.13196">
        <ele>47.104388</ele>
        <time>2022-12-31T15:30:02.019Z</time>
      </trkpt>
      <trkpt lat="41.32047" lon="2.13198">
        <ele>47.143995</ele>
        <time>2022-12-31T15:30:05.018Z</time>
      </trkpt>
      <trkpt lat="41.32057" lon="2.132">
        <ele>47.172973</ele>
        <time>2022-12-31T15:30:07.018Z</time>
      </trkpt>
      <trkpt lat="41.32067" lon="2.13201">
        <ele>47.201287</ele>
        <time>2022-12-31T15:30:09.023Z</time>
      </trkpt>
      <trkpt lat="41.32076" lon="2.13202">
        <ele>47.22819</ele>
        <time>2022-12-31T15:30:11.014Z</time>
      </trkpt>
      <trkpt lat="41.32085" lon="2.13203">
        <ele>47.255034</ele>
        <time>2022-12-31T15:30:13.021Z</time>
      </trkpt>
      <trkpt lat="41.32099" lon="2.13205">
        <ele>47.293828</ele>
        <time>2022-12-31T15:30:16.019Z</time>
      </trkpt>
      <trkpt lat="41.32111" lon="2.13207">
        <ele>47.330491</ele>
        <time>2022-12-31T15:30:19.024Z</time>
      </trkpt>
      <trkpt lat="41.32124" lon="2.13209">
        <ele>47.367208</ele>
        <time>2022-12-31T15:30:22.021Z</time>
      </trkpt>
      <trkpt lat="41.32135" lon="2.13211">
        <ele>47.400761</ele>
        <time>2022-12-31T15:30:25.025Z</time>
      </trkpt>
      <trkpt lat="41.32146" lon="2.13212">
        <ele>47.429899</ele>
        <time>2022-12-31T15:30:28.029Z</time>
      </trkpt>
      <trkpt lat="41.32155" lon="2.13215">
        <ele>47.458319</ele>
        <time>2022-12-31T15:30:31.031Z</time>
      </trkpt>
      <trkpt lat="41.32165" lon="2.13217">
        <ele>47.487981</ele>
        <time>2022-12-31T15:30:34.017Z</time>
      </trkpt>
      <trkpt lat="41.32176" lon="2.13219">
        <ele>47.519773</ele>
        <time>2022-12-31T15:30:37.023Z</time>
      </trkpt>
      <trkpt lat="41.32187" lon="2.1322">
        <ele>47.551659</ele>
        <time>2022-12-31T15:30:40.027Z</time>
      </trkpt>
      <trkpt lat="41.32198" lon="2.13222">
        <ele>47.638325</ele>
        <time>2022-12-31T15:30:43.037Z</time>
      </trkpt>
      <trkpt lat="41.32205" lon="2.1323">
        <ele>47.824726</ele>
        <time>2022-12-31T15:30:49.013Z</time>
      </trkpt>
      <trkpt lat="41.32205" lon="2.13242">
        <ele>48.007533</ele>
        <time>2022-12-31T15:30:53.023Z</time>
      </trkpt>
      <trkpt lat="41.32215" lon="2.13249">
        <ele>48.227703</ele>
        <time>2022-12-31T15:30:58.013Z</time>
      </trkpt>
      <trkpt lat="41.32225" lon="2.13253">
        <ele>48.45244</ele>
        <time>2022-12-31T15:31:02.033Z</time>
      </trkpt>
      <trkpt lat="41.32231" lon="2.13264">
        <ele>48.64935</ele>
        <time>2022-12-31T15:31:05.023Z</time>
      </trkpt>
      <trkpt lat="41.32236" lon="2.13276">
        <ele>48.856931</ele>
        <time>2022-12-31T15:31:08.019Z</time>
      </trkpt>
      <trkpt lat="41.32245" lon="2.13286">
        <ele>49.095827</ele>
        <time>2022-12-31T15:31:11.027Z</time>
      </trkpt>
      <trkpt lat="41.32257" lon="2.13295">
        <ele>49.372105</ele>
        <time>2022-12-31T15:31:14.038Z</time>
      </trkpt>
      <trkpt lat="41.32267" lon="2.13296">
        <ele>49.567812</ele>
        <time>2022-12-31T15:31:16.006Z</time>
      </trkpt>
      <trkpt lat="41.32276" lon="2.13298">
        <ele>49.759298</ele>
        <time>2022-12-31T15:31:18.025Z</time>
      </trkpt>
      <trkpt lat="41.32288" lon="2.13296">
        <ele>50.007899</ele>
        <time>2022-12-31T15:31:24.011Z</time>
      </trkpt>
      <trkpt lat="41.32299" lon="2.13299">
        <ele>50.225579</ele>
        <time>2022-12-31T15:31:27.011Z</time>
      </trkpt>
      <trkpt lat="41.32309" lon="2.13306">
        <ele>50.44897</ele>
        <time>2022-12-31T15:31:30.018Z</time>
      </trkpt>
      <trkpt lat="41.32317" lon="2.13313">
        <ele>50.652517</ele>
        <time>2022-12-31T15:31:33.005Z</time>
      </trkpt>
      <trkpt lat="41.32327" lon="2.13321">
        <ele>50.886413</ele>
        <time>2022-12-31T15:31:36.032Z</time>
      </trkpt>
      <trkpt lat="41.32336" lon="2.13326">
        <ele>51.071499</ele>
        <time>2022-12-31T15:31:38.027Z</time>
      </trkpt>
      <trkpt lat="41.32347" lon="2.13334">
        <ele>51.432218</ele>
        <time>2022-12-31T15:31:41.022Z</time>
      </trkpt>
      <trkpt lat="41.32355" lon="2.13339">
        <ele>51.785877</ele>
        <time>2022-12-31T15:31:43.017Z</time>
      </trkpt>
      <trkpt lat="41.32365" lon="2.13347">
        <ele>52.22441</ele>
        <time>2022-12-31T15:31:46.023Z</time>
      </trkpt>
      <trkpt lat="41.32376" lon="2.13355">
        <ele>52.676707</ele>
        <time>2022-12-31T15:31:49.040Z</time>
      </trkpt>
      <trkpt lat="41.32385" lon="2.13358">
        <ele>53.027194</ele>
        <time>2022-12-31T15:31:51.017Z</time>
      </trkpt>
      <trkpt lat="41.32396" lon="2.13365">
        <ele>53.508365</ele>
        <time>2022-12-31T15:31:54.011Z</time>
      </trkpt>
      <trkpt lat="41.32406" lon="2.13369">
        <ele>53.886444</ele>
        <time>2022-12-31T15:31:57.005Z</time>
      </trkpt>
      <trkpt lat="41.32415" lon="2.13372">
        <ele>54.247008</ele>
        <time>2022-12-31T15:32:00.024Z</time>
      </trkpt>
      <trkpt lat="41.32425" lon="2.13376">
        <ele>54.632414</ele>
        <time>2022-12-31T15:32:04.021Z</time>
      </trkpt>
      <trkpt lat="41.32435" lon="2.13382">
        <ele>55.057271</ele>
        <time>2022-12-31T15:32:08.023Z</time>
      </trkpt>
      <trkpt lat="41.32443" lon="2.1339">
        <ele>55.439977</ele>
        <time>2022-12-31T15:32:11.031Z</time>
      </trkpt>
      <trkpt lat="41.32454" lon="2.13398">
        <ele>55.887618</ele>
        <time>2022-12-31T15:32:14.015Z</time>
      </trkpt>
      <trkpt lat="41.32463" lon="2.13405">
        <ele>56.292371</ele>
        <time>2022-12-31T15:32:17.013Z</time>
      </trkpt>
      <trkpt lat="41.32472" lon="2.13411">
        <ele>56.669542</ele>
        <time>2022-12-31T15:32:20.020Z</time>
      </trkpt>
      <trkpt lat="41.3248" lon="2.13418">
        <ele>57.024439</ele>
        <time>2022-12-31T15:32:23.018Z</time>
      </trkpt>
      <trkpt lat="41.32489" lon="2.13425">
        <ele>57.415371</ele>
        <time>2022-12-31T15:32:27.019Z</time>
      </trkpt>
      <trkpt lat="41.32502" lon="2.13434">
        <ele>57.981369</ele>
        <time>2022-12-31T15:32:30.009Z</time>
      </trkpt>
      <trkpt lat="41.32515" lon="2.13441">
        <ele>58.554308</ele>
        <time>2022-12-31T15:32:32.008Z</time>
      </trkpt>
      <trkpt lat="41.32526" lon="2.13446">
        <ele>59.030951</ele>
        <time>2022-12-31T15:32:34.011Z</time>
      </trkpt>
      <trkpt lat="41.32537" lon="2.13452">
        <ele>59.527393</ele>
        <time>2022-12-31T15:32:36.021Z</time>
      </trkpt>
      <trkpt lat="41.32549" lon="2.13458">
        <ele>60.067335</ele>
        <time>2022-12-31T15:32:38.031Z</time>
      </trkpt>
      <trkpt lat="41.32559" lon="2.13464">
        <ele>60.515746</ele>
        <time>2022-12-31T15:32:40.017Z</time>
      </trkpt>
      <trkpt lat="41.32569" lon="2.13467">
        <ele>60.946902</ele>
        <time>2022-12-31T15:32:42.014Z</time>
      </trkpt>
      <trkpt lat="41.32578" lon="2.13472">
        <ele>61.338484</ele>
        <time>2022-12-31T15:32:44.008Z</time>
      </trkpt>
      <trkpt lat="41.32587" lon="2.13478">
        <ele>61.774365</ele>
        <time>2022-12-31T15:32:45.995Z</time>
      </trkpt>
      <trkpt lat="41.32596" lon="2.13482">
        <ele>62.174037</ele>
        <time>2022-12-31T15:32:48.012Z</time>
      </trkpt>
      <trkpt lat="41.32607" lon="2.13488">
        <ele>62.663027</ele>
        <time>2022-12-31T15:32:51.013Z</time>
      </trkpt>
      <trkpt lat="41.32618" lon="2.13495">
        <ele>63.15083</ele>
        <time>2022-12-31T15:32:54.019Z</time>
      </trkpt>
      <trkpt lat="41.3263" lon="2.13504">
        <ele>63.703393</ele>
        <time>2022-12-31T15:32:57.016Z</time>
      </trkpt>
      <trkpt lat="41.32641" lon="2.13509">
        <ele>64.19021</ele>
        <time>2022-12-31T15:32:59.020Z</time>
      </trkpt>
      <trkpt lat="41.32651" lon="2.13514">
        <ele>64.631429</ele>
        <time>2022-12-31T15:33:01.012Z</time>
      </trkpt>
      <trkpt lat="41.3266" lon="2.1352">
        <ele>65.056139</ele>
        <time>2022-12-31T15:33:03.036Z</time>
      </trkpt>
      <trkpt lat="41.32669" lon="2.13525">
        <ele>65.330704</ele>
        <time>2022-12-31T15:33:05.012Z</time>
      </trkpt>
      <trkpt lat="41.32679" lon="2.1353">
        <ele>64.688906</ele>
        <time>2022-12-31T15:33:06.996Z</time>
      </trkpt>
      <trkpt lat="41.32688" lon="2.13534">
        <ele>64.079431</ele>
        <time>2022-12-31T15:33:09.004Z</time>
      </trkpt>
      <trkpt lat="41.32698" lon="2.13541">
        <ele>63.292113</ele>
        <time>2022-12-31T15:33:12.006Z</time>
      </trkpt>
      <trkpt lat="41.32707" lon="2.13548">
        <ele>62.598014</ele>
        <time>2022-12-31T15:33:15.002Z</time>
      </trkpt>
      <trkpt lat="41.32717" lon="2.13555">
        <ele>61.905007</ele>
        <time>2022-12-31T15:33:18.028Z</time>
      </trkpt>
      <trkpt lat="41.32726" lon="2.13561">
        <ele>61.270474</ele>
        <time>2022-12-31T15:33:21.004Z</time>
      </trkpt>
      <trkpt lat="41.32733" lon="2.1357">
        <ele>60.625098</ele>
        <time>2022-12-31T15:33:24.010Z</time>
      </trkpt>
      <trkpt lat="41.32743" lon="2.13579">
        <ele>59.831064</ele>
        <time>2022-12-31T15:33:28.022Z</time>
      </trkpt>
      <trkpt lat="41.32755" lon="2.13586">
        <ele>59.013224</ele>
        <time>2022-12-31T15:33:31.012Z</time>
      </trkpt>
      <trkpt lat="41.32763" lon="2.13591">
        <ele>58.431759</ele>
        <time>2022-12-31T15:33:33.012Z</time>
      </trkpt>
      <trkpt lat="41.32773" lon="2.13598">
        <ele>57.66188</ele>
        <time>2022-12-31T15:33:35.995Z</time>
      </trkpt>
      <trkpt lat="41.32782" lon="2.13602">
        <ele>57.059758</ele>
        <time>2022-12-31T15:33:39.014Z</time>
      </trkpt>
      <trkpt lat="41.32794" lon="2.13602">
        <ele>56.320075</ele>
        <time>2022-12-31T15:33:43.013Z</time>
      </trkpt>
      <trkpt lat="41.328" lon="2.13594">
        <ele>55.714933</ele>
        <time>2022-12-31T15:33:46.019Z</time>
      </trkpt>
      <trkpt lat="41.32808" lon="2.13601">
        <ele>55.096346</ele>
        <time>2022-12-31T15:33:51.018Z</time>
      </trkpt>
      <trkpt lat="41.32819" lon="2.13606">
        <ele>54.319004</ele>
        <time>2022-12-31T15:33:55.010Z</time>
      </trkpt>
      <trkpt lat="41.32828" lon="2.13613">
        <ele>53.622664</ele>
        <time>2022-12-31T15:33:58.021Z</time>
      </trkpt>
      <trkpt lat="41.32837" lon="2.13619">
        <ele>52.725368</ele>
        <time>2022-12-31T15:34:01.013Z</time>
      </trkpt>
      <trkpt lat="41.32848" lon="2.13625">
        <ele>51.609344</ele>
        <time>2022-12-31T15:34:04.999Z</time>
      </trkpt>
      <trkpt lat="41.32857" lon="2.13628">
        <ele>50.783193</ele>
        <time>2022-12-31T15:34:08.039Z</time>
      </trkpt>
      <trkpt lat="41.32868" lon="2.13629">
        <ele>49.753788</ele>
        <time>2022-12-31T15:34:11.016Z</time>
      </trkpt>
      <trkpt lat="41.3288" lon="2.13631">
        <ele>48.602346</ele>
        <time>2022-12-31T15:34:14.016Z</time>
      </trkpt>
      <trkpt lat="41.32891" lon="2.13635">
        <ele>47.59288</ele>
        <time>2022-12-31T15:34:17.021Z</time>
      </trkpt>
      <trkpt lat="41.329" lon="2.1364">
        <ele>46.659175</ele>
        <time>2022-12-31T15:34:20.026Z</time>
      </trkpt>
      <trkpt lat="41.3291" lon="2.13646">
        <ele>45.701678</ele>
        <time>2022-12-31T15:34:23.020Z</time>
      </trkpt>
      <trkpt lat="41.32919" lon="2.13652">
        <ele>44.745968</ele>
        <time>2022-12-31T15:34:26.013Z</time>
      </trkpt>
      <trkpt lat="41.32928" lon="2.13659">
        <ele>43.806489</ele>
        <time>2022-12-31T15:34:29.019Z</time>
      </trkpt>
      <trkpt lat="41.32937" lon="2.13665">
        <ele>42.871126</ele>
        <time>2022-12-31T15:34:32.016Z</time>
      </trkpt>
      <trkpt lat="41.32947" lon="2.1367">
        <ele>41.871002</ele>
        <time>2022-12-31T15:34:35.013Z</time>
      </trkpt>
      <trkpt lat="41.32958" lon="2.13676">
        <ele>40.837789</ele>
        <time>2022-12-31T15:34:38.032Z</time>
      </trkpt>
      <trkpt lat="41.32966" lon="2.13684">
        <ele>39.915777</ele>
        <time>2022-12-31T15:34:41.011Z</time>
      </trkpt>
      <trkpt lat="41.32976" lon="2.13693">
        <ele>38.80228</ele>
        <time>2022-12-31T15:34:43.999Z</time>
      </trkpt>
      <trkpt lat="41.32986" lon="2.13702">
        <ele>37.661348</ele>
        <time>2022-12-31T15:34:47.017Z</time>
      </trkpt>
      <trkpt lat="41.32995" lon="2.13711">
        <ele>37.38547</ele>
        <time>2022-12-31T15:34:50.021Z</time>
      </trkpt>
      <trkpt lat="41.33007" lon="2.13719">
        <ele>37.6932</ele>
        <time>2022-12-31T15:34:53.013Z</time>
      </trkpt>
      <trkpt lat="41.33018" lon="2.13725">
        <ele>37.983642</ele>
        <time>2022-12-31T15:34:56.039Z</time>
      </trkpt>
      <trkpt lat="41.33027" lon="2.13729">
        <ele>38.206487</ele>
        <time>2022-12-31T15:34:58.037Z</time>
      </trkpt>
      <trkpt lat="41.33038" lon="2.13735">
        <ele>38.503829</ele>
        <time>2022-12-31T15:35:01.013Z</time>
      </trkpt>
      <trkpt lat="41.3305" lon="2.13744">
        <ele>38.816382</ele>
        <time>2022-12-31T15:35:04.022Z</time>
      </trkpt>
      <trkpt lat="41.33061" lon="2.1375">
        <ele>39.110576</ele>
        <time>2022-12-31T15:35:07.037Z</time>
      </trkpt>
      <trkpt lat="41.3307" lon="2.13749">
        <ele>39.330146</ele>
        <time>2022-12-31T15:35:09.034Z</time>
      </trkpt>
      <trkpt lat="41.33083" lon="2.13752">
        <ele>39.640341</ele>
        <time>2022-12-31T15:35:12.026Z</time>
      </trkpt>
      <trkpt lat="41.33091" lon="2.13756">
        <ele>39.855835</ele>
        <time>2022-12-31T15:35:14.030Z</time>
      </trkpt>
      <trkpt lat="41.33103" lon="2.13763">
        <ele>40.154949</ele>
        <time>2022-12-31T15:35:17.022Z</time>
      </trkpt>
      <trkpt lat="41.33114" lon="2.1377">
        <ele>40.454141</ele>
        <time>2022-12-31T15:35:20.035Z</time>
      </trkpt>
      <trkpt lat="41.33125" lon="2.13779">
        <ele>40.758152</ele>
        <time>2022-12-31T15:35:23.013Z</time>
      </trkpt>
      <trkpt lat="41.33133" lon="2.13786">
        <ele>40.992861</ele>
        <time>2022-12-31T15:35:25.013Z</time>
      </trkpt>
      <trkpt lat="41.33144" lon="2.13795">
        <ele>41.310009</ele>
        <time>2022-12-31T15:35:28.035Z</time>
      </trkpt>
      <trkpt lat="41.33156" lon="2.138">
        <ele>41.651629</ele>
        <time>2022-12-31T15:35:31.025Z</time>
      </trkpt>
      <trkpt lat="41.33169" lon="2.13806">
        <ele>42.11451</ele>
        <time>2022-12-31T15:35:34.022Z</time>
      </trkpt>
      <trkpt lat="41.3318" lon="2.13812">
        <ele>42.537251</ele>
        <time>2022-12-31T15:35:37.019Z</time>
      </trkpt>
      <trkpt lat="41.33189" lon="2.13817">
        <ele>42.908618</ele>
        <time>2022-12-31T15:35:40.019Z</time>
      </trkpt>
      <trkpt lat="41.33199" lon="2.13823">
        <ele>43.305179</ele>
        <time>2022-12-31T15:35:43.007Z</time>
      </trkpt>
      <trkpt lat="41.33209" lon="2.13829">
        <ele>43.690743</ele>
        <time>2022-12-31T15:35:46.020Z</time>
      </trkpt>
      <trkpt lat="41.33219" lon="2.13832">
        <ele>44.037276</ele>
        <time>2022-12-31T15:35:49.002Z</time>
      </trkpt>
      <trkpt lat="41.33228" lon="2.13834">
        <ele>44.366332</ele>
        <time>2022-12-31T15:35:53.013Z</time>
      </trkpt>
      <trkpt lat="41.33226" lon="2.13846">
        <ele>44.691766</ele>
        <time>2022-12-31T15:36:05.021Z</time>
      </trkpt>
      <trkpt lat="41.33225" lon="2.1386">
        <ele>45.070319</ele>
        <time>2022-12-31T15:36:10.018Z</time>
      </trkpt>
      <trkpt lat="41.33234" lon="2.13867">
        <ele>45.449788</ele>
        <time>2022-12-31T15:36:13.011Z</time>
      </trkpt>
      <trkpt lat="41.3324" lon="2.13881">
        <ele>45.886066</ele>
        <time>2022-12-31T15:36:16.031Z</time>
      </trkpt>
      <trkpt lat="41.33244" lon="2.13897">
        <ele>46.349814</ele>
        <time>2022-12-31T15:36:19.027Z</time>
      </trkpt>
      <trkpt lat="41.33249" lon="2.13909">
        <ele>46.692854</ele>
        <time>2022-12-31T15:36:21.013Z</time>
      </trkpt>
      <trkpt lat="41.33255" lon="2.13918">
        <ele>47.026514</ele>
        <time>2022-12-31T15:36:23.023Z</time>
      </trkpt>
      <trkpt lat="41.33262" lon="2.13927">
        <ele>47.364313</ele>
        <time>2022-12-31T15:36:25.010Z</time>
      </trkpt>
      <trkpt lat="41.3327" lon="2.13934">
        <ele>47.709023</ele>
        <time>2022-12-31T15:36:27.026Z</time>
      </trkpt>
      <trkpt lat="41.33278" lon="2.13939">
        <ele>47.996259</ele>
        <time>2022-12-31T15:36:29.021Z</time>
      </trkpt>
      <trkpt lat="41.33287" lon="2.13941">
        <ele>48.06902</ele>
        <time>2022-12-31T15:36:31.020Z</time>
      </trkpt>
      <trkpt lat="41.33297" lon="2.13941">
        <ele>48.145645</ele>
        <time>2022-12-31T15:36:33.011Z</time>
      </trkpt>
      <trkpt lat="41.33306" lon="2.13939">
        <ele>48.217495</ele>
        <time>2022-12-31T15:36:35.037Z</time>
      </trkpt>
      <trkpt lat="41.33318" lon="2.13932">
        <ele>48.321513</ele>
        <time>2022-12-31T15:36:38.021Z</time>
      </trkpt>
      <trkpt lat="41.33329" lon="2.13928">
        <ele>48.411834</ele>
        <time>2022-12-31T15:36:41.011Z</time>
      </trkpt>
      <trkpt lat="41.33339" lon="2.13926">
        <ele>48.48928</ele>
        <time>2022-12-31T15:36:44.019Z</time>
      </trkpt>
      <trkpt lat="41.33347" lon="2.13921">
        <ele>48.562704</ele>
        <time>2022-12-31T15:36:47.020Z</time>
      </trkpt>
      <trkpt lat="41.33359" lon="2.1392">
        <ele>48.653668</ele>
        <time>2022-12-31T15:36:51.008Z</time>
      </trkpt>
      <trkpt lat="41.33369" lon="2.13925">
        <ele>48.738632</ele>
        <time>2022-12-31T15:36:54.029Z</time>
      </trkpt>
      <trkpt lat="41.33379" lon="2.13932">
        <ele>48.833511</ele>
        <time>2022-12-31T15:36:57.011Z</time>
      </trkpt>
      <trkpt lat="41.33392" lon="2.1394">
        <ele>48.939405</ele>
        <time>2022-12-31T15:37:00.016Z</time>
      </trkpt>
      <trkpt lat="41.334" lon="2.13945">
        <ele>49.013048</ele>
        <time>2022-12-31T15:37:02.022Z</time>
      </trkpt>
      <trkpt lat="41.33409" lon="2.1395">
        <ele>49.087897</ele>
        <time>2022-12-31T15:37:04.027Z</time>
      </trkpt>
      <trkpt lat="41.33418" lon="2.13956">
        <ele>49.165722</ele>
        <time>2022-12-31T15:37:06.033Z</time>
      </trkpt>
      <trkpt lat="41.33426" lon="2.13961">
        <ele>49.237982</ele>
        <time>2022-12-31T15:37:08.047Z</time>
      </trkpt>
      <trkpt lat="41.33434" lon="2.13966">
        <ele>49.312597</ele>
        <time>2022-12-31T15:37:10.016Z</time>
      </trkpt>
      <trkpt lat="41.33443" lon="2.13971">
        <ele>49.387213</ele>
        <time>2022-12-31T15:37:12.029Z</time>
      </trkpt>
      <trkpt lat="41.33452" lon="2.13977">
        <ele>49.272476</ele>
        <time>2022-12-31T15:37:14.020Z</time>
      </trkpt>
      <trkpt lat="41.33461" lon="2.13983">
        <ele>49.115846</ele>
        <time>2022-12-31T15:37:16.004Z</time>
      </trkpt>
      <trkpt lat="41.3347" lon="2.13989">
        <ele>48.954142</ele>
        <time>2022-12-31T15:37:18.042Z</time>
      </trkpt>
      <trkpt lat="41.33479" lon="2.13995">
        <ele>48.792365</ele>
        <time>2022-12-31T15:37:20.032Z</time>
      </trkpt>
      <trkpt lat="41.33488" lon="2.14">
        <ele>48.640294</ele>
        <time>2022-12-31T15:37:22.037Z</time>
      </trkpt>
      <trkpt lat="41.33497" lon="2.14005">
        <ele>48.493551</ele>
        <time>2022-12-31T15:37:24.023Z</time>
      </trkpt>
      <trkpt lat="41.33505" lon="2.14011">
        <ele>48.343358</ele>
        <time>2022-12-31T15:37:26.024Z</time>
      </trkpt>
      <trkpt lat="41.33513" lon="2.14018">
        <ele>48.186262</ele>
        <time>2022-12-31T15:37:28.021Z</time>
      </trkpt>
      <trkpt lat="41.33522" lon="2.14024">
        <ele>48.029932</ele>
        <time>2022-12-31T15:37:30.023Z</time>
      </trkpt>
      <trkpt lat="41.33531" lon="2.14029">
        <ele>47.872051</ele>
        <time>2022-12-31T15:37:32.026Z</time>
      </trkpt>
      <trkpt lat="41.3354" lon="2.14034">
        <ele>47.715631</ele>
        <time>2022-12-31T15:37:34.026Z</time>
      </trkpt>
      <trkpt lat="41.33549" lon="2.14039">
        <ele>47.571736</ele>
        <time>2022-12-31T15:37:36.025Z</time>
      </trkpt>
      <trkpt lat="41.3356" lon="2.14046">
        <ele>47.37141</ele>
        <time>2022-12-31T15:37:39.019Z</time>
      </trkpt>
      <trkpt lat="41.3357" lon="2.14056">
        <ele>47.175981</ele>
        <time>2022-12-31T15:37:42.023Z</time>
      </trkpt>
      <trkpt lat="41.33577" lon="2.14064">
        <ele>47.027494</ele>
        <time>2022-12-31T15:37:44.011Z</time>
      </trkpt>
      <trkpt lat="41.33585" lon="2.14069">
        <ele>46.883983</ele>
        <time>2022-12-31T15:37:46.029Z</time>
      </trkpt>
      <trkpt lat="41.33593" lon="2.14076">
        <ele>46.731002</ele>
        <time>2022-12-31T15:37:48.019Z</time>
      </trkpt>
      <trkpt lat="41.33606" lon="2.14084">
        <ele>46.60005</ele>
        <time>2022-12-31T15:37:51.028Z</time>
      </trkpt>
      <trkpt lat="41.33618" lon="2.14091">
        <ele>46.852722</ele>
        <time>2022-12-31T15:37:54.025Z</time>
      </trkpt>
      <trkpt lat="41.33626" lon="2.14097">
        <ele>47.027903</ele>
        <time>2022-12-31T15:37:56.015Z</time>
      </trkpt>
      <trkpt lat="41.33637" lon="2.14106">
        <ele>47.282746</ele>
        <time>2022-12-31T15:37:59.014Z</time>
      </trkpt>
      <trkpt lat="41.33646" lon="2.1411">
        <ele>47.458442</ele>
        <time>2022-12-31T15:38:01.020Z</time>
      </trkpt>
      <trkpt lat="41.33658" lon="2.1411">
        <ele>47.703406</ele>
        <time>2022-12-31T15:38:04.020Z</time>
      </trkpt>
      <trkpt lat="41.33671" lon="2.14115">
        <ele>47.948334</ele>
        <time>2022-12-31T15:38:07.018Z</time>
      </trkpt>
      <trkpt lat="41.33682" lon="2.1412">
        <ele>48.187143</ele>
        <time>2022-12-31T15:38:10.019Z</time>
      </trkpt>
      <trkpt lat="41.33691" lon="2.14124">
        <ele>48.360695</ele>
        <time>2022-12-31T15:38:12.018Z</time>
      </trkpt>
      <trkpt lat="41.33703" lon="2.1413">
        <ele>48.613818</ele>
        <time>2022-12-31T15:38:15.020Z</time>
      </trkpt>
      <trkpt lat="41.33715" lon="2.14137">
        <ele>48.873553</ele>
        <time>2022-12-31T15:38:18.020Z</time>
      </trkpt>
      <trkpt lat="41.33728" lon="2.14145">
        <ele>49.14152</ele>
        <time>2022-12-31T15:38:21.033Z</time>
      </trkpt>
      <trkpt lat="41.33736" lon="2.1415">
        <ele>49.315147</ele>
        <time>2022-12-31T15:38:23.033Z</time>
      </trkpt>
      <trkpt lat="41.33745" lon="2.14154">
        <ele>49.492819</ele>
        <time>2022-12-31T15:38:25.018Z</time>
      </trkpt>
      <trkpt lat="41.33753" lon="2.1416">
        <ele>49.666789</ele>
        <time>2022-12-31T15:38:27.018Z</time>
      </trkpt>
      <trkpt lat="41.33761" lon="2.14166">
        <ele>49.847553</ele>
        <time>2022-12-31T15:38:29.013Z</time>
      </trkpt>
      <trkpt lat="41.33769" lon="2.14171">
        <ele>50.023859</ele>
        <time>2022-12-31T15:38:31.036Z</time>
      </trkpt>
      <trkpt lat="41.33778" lon="2.14176">
        <ele>50.123045</ele>
        <time>2022-12-31T15:38:33.029Z</time>
      </trkpt>
      <trkpt lat="41.33789" lon="2.14185">
        <ele>50.261931</ele>
        <time>2022-12-31T15:38:36.005Z</time>
      </trkpt>
      <trkpt lat="41.33797" lon="2.14191">
        <ele>50.360566</ele>
        <time>2022-12-31T15:38:38.039Z</time>
      </trkpt>
      <trkpt lat="41.33809" lon="2.14198">
        <ele>50.505603</ele>
        <time>2022-12-31T15:38:41.020Z</time>
      </trkpt>
      <trkpt lat="41.33821" lon="2.14207">
        <ele>50.643297</ele>
        <time>2022-12-31T15:38:44.029Z</time>
      </trkpt>
      <trkpt lat="41.33829" lon="2.14213">
        <ele>50.747025</ele>
        <time>2022-12-31T15:38:46.031Z</time>
      </trkpt>
      <trkpt lat="41.33837" lon="2.14218">
        <ele>50.844594</ele>
        <time>2022-12-31T15:38:48.009Z</time>
      </trkpt>
      <trkpt lat="41.3385" lon="2.14225">
        <ele>50.987055</ele>
        <time>2022-12-31T15:38:51.015Z</time>
      </trkpt>
      <trkpt lat="41.33862" lon="2.14231">
        <ele>51.134511</ele>
        <time>2022-12-31T15:38:54.020Z</time>
      </trkpt>
      <trkpt lat="41.33875" lon="2.14239">
        <ele>51.279204</ele>
        <time>2022-12-31T15:38:57.023Z</time>
      </trkpt>
      <trkpt lat="41.33883" lon="2.14244">
        <ele>51.38263</ele>
        <time>2022-12-31T15:38:59.016Z</time>
      </trkpt>
      <trkpt lat="41.33892" lon="2.14249">
        <ele>51.481503</ele>
        <time>2022-12-31T15:39:01.013Z</time>
      </trkpt>
      <trkpt lat="41.339" lon="2.14253">
        <ele>51.578771</ele>
        <time>2022-12-31T15:39:03.017Z</time>
      </trkpt>
      <trkpt lat="41.33909" lon="2.14258">
        <ele>51.681548</ele>
        <time>2022-12-31T15:39:05.016Z</time>
      </trkpt>
      <trkpt lat="41.33918" lon="2.14263">
        <ele>51.781723</ele>
        <time>2022-12-31T15:39:07.036Z</time>
      </trkpt>
      <trkpt lat="41.33926" lon="2.14267">
        <ele>51.878814</ele>
        <time>2022-12-31T15:39:09.013Z</time>
      </trkpt>
      <trkpt lat="41.33935" lon="2.14272">
        <ele>51.949533</ele>
        <time>2022-12-31T15:39:11.018Z</time>
      </trkpt>
      <trkpt lat="41.33944" lon="2.14277">
        <ele>51.936559</ele>
        <time>2022-12-31T15:39:13.011Z</time>
      </trkpt>
      <trkpt lat="41.33952" lon="2.14284">
        <ele>51.923529</ele>
        <time>2022-12-31T15:39:15.022Z</time>
      </trkpt>
      <trkpt lat="41.33961" lon="2.1429">
        <ele>51.91051</ele>
        <time>2022-12-31T15:39:17.011Z</time>
      </trkpt>
      <trkpt lat="41.3397" lon="2.14296">
        <ele>51.8972</ele>
        <time>2022-12-31T15:39:19.017Z</time>
      </trkpt>
      <trkpt lat="41.33978" lon="2.14302">
        <ele>51.884063</ele>
        <time>2022-12-31T15:39:21.032Z</time>
      </trkpt>
      <trkpt lat="41.33987" lon="2.14307">
        <ele>51.870803</ele>
        <time>2022-12-31T15:39:23.029Z</time>
      </trkpt>
      <trkpt lat="41.33996" lon="2.14313">
        <ele>51.857613</ele>
        <time>2022-12-31T15:39:25.019Z</time>
      </trkpt>
      <trkpt lat="41.34006" lon="2.14318">
        <ele>51.84362</ele>
        <time>2022-12-31T15:39:26.998Z</time>
      </trkpt>
      <trkpt lat="41.34015" lon="2.14324">
        <ele>51.829418</ele>
        <time>2022-12-31T15:39:29.015Z</time>
      </trkpt>
      <trkpt lat="41.34025" lon="2.1433">
        <ele>51.815428</ele>
        <time>2022-12-31T15:39:31.019Z</time>
      </trkpt>
      <trkpt lat="41.34034" lon="2.14336">
        <ele>51.802073</ele>
        <time>2022-12-31T15:39:33.020Z</time>
      </trkpt>
      <trkpt lat="41.34043" lon="2.14341">
        <ele>51.788494</ele>
        <time>2022-12-31T15:39:35.019Z</time>
      </trkpt>
      <trkpt lat="41.34052" lon="2.14347">
        <ele>51.774643</ele>
        <time>2022-12-31T15:39:37.014Z</time>
      </trkpt>
      <trkpt lat="41.34061" lon="2.14353">
        <ele>51.760723</ele>
        <time>2022-12-31T15:39:39.016Z</time>
      </trkpt>
      <trkpt lat="41.3407" lon="2.1436">
        <ele>51.747506</ele>
        <time>2022-12-31T15:39:41.027Z</time>
      </trkpt>
      <trkpt lat="41.34079" lon="2.14366">
        <ele>51.7337</ele>
        <time>2022-12-31T15:39:43.030Z</time>
      </trkpt>
      <trkpt lat="41.34088" lon="2.14371">
        <ele>51.720552</ele>
        <time>2022-12-31T15:39:45.018Z</time>
      </trkpt>
      <trkpt lat="41.34098" lon="2.14376">
        <ele>51.667589</ele>
        <time>2022-12-31T15:39:47.017Z</time>
      </trkpt>
      <trkpt lat="41.34107" lon="2.14382">
        <ele>51.545286</ele>
        <time>2022-12-31T15:39:49.013Z</time>
      </trkpt>
      <trkpt lat="41.34115" lon="2.14388">
        <ele>51.428983</ele>
        <time>2022-12-31T15:39:51.015Z</time>
      </trkpt>
      <trkpt lat="41.34124" lon="2.14392">
        <ele>51.313791</ele>
        <time>2022-12-31T15:39:53.025Z</time>
      </trkpt>
      <trkpt lat="41.34135" lon="2.144">
        <ele>51.164138</ele>
        <time>2022-12-31T15:39:56.003Z</time>
      </trkpt>
      <trkpt lat="41.34146" lon="2.14408">
        <ele>51.011266</ele>
        <time>2022-12-31T15:39:59.016Z</time>
      </trkpt>
      <trkpt lat="41.34156" lon="2.14413">
        <ele>50.880088</ele>
        <time>2022-12-31T15:40:02.011Z</time>
      </trkpt>
      <trkpt lat="41.34164" lon="2.14419">
        <ele>50.766943</ele>
        <time>2022-12-31T15:40:05.012Z</time>
      </trkpt>
      <trkpt lat="41.34173" lon="2.14424">
        <ele>50.640231</ele>
        <time>2022-12-31T15:40:08.038Z</time>
      </trkpt>
      <trkpt lat="41.34183" lon="2.1443">
        <ele>50.513506</ele>
        <time>2022-12-31T15:40:11.025Z</time>
      </trkpt>
      <trkpt lat="41.34194" lon="2.14436">
        <ele>50.36401</ele>
        <time>2022-12-31T15:40:14.019Z</time>
      </trkpt>
      <trkpt lat="41.34202" lon="2.14442">
        <ele>50.254105</ele>
        <time>2022-12-31T15:40:16.022Z</time>
      </trkpt>
      <trkpt lat="41.34214" lon="2.14448">
        <ele>50.100411</ele>
        <time>2022-12-31T15:40:19.027Z</time>
      </trkpt>
      <trkpt lat="41.34222" lon="2.14454">
        <ele>49.987917</ele>
        <time>2022-12-31T15:40:21.020Z</time>
      </trkpt>
      <trkpt lat="41.3423" lon="2.1446">
        <ele>49.877572</ele>
        <time>2022-12-31T15:40:23.017Z</time>
      </trkpt>
      <trkpt lat="41.34242" lon="2.14466">
        <ele>49.715702</ele>
        <time>2022-12-31T15:40:26.024Z</time>
      </trkpt>
      <trkpt lat="41.34254" lon="2.14473">
        <ele>49.560275</ele>
        <time>2022-12-31T15:40:29.020Z</time>
      </trkpt>
      <trkpt lat="41.34265" lon="2.14481">
        <ele>49.42563</ele>
        <time>2022-12-31T15:40:32.023Z</time>
      </trkpt>
      <trkpt lat="41.34273" lon="2.14487">
        <ele>49.339633</ele>
        <time>2022-12-31T15:40:34.020Z</time>
      </trkpt>
      <trkpt lat="41.3428" lon="2.14495">
        <ele>49.253944</ele>
        <time>2022-12-31T15:40:36.021Z</time>
      </trkpt>
      <trkpt lat="41.34292" lon="2.14503">
        <ele>49.131648</ele>
        <time>2022-12-31T15:40:39.016Z</time>
      </trkpt>
      <trkpt lat="41.34303" lon="2.1451">
        <ele>49.013446</ele>
        <time>2022-12-31T15:40:42.015Z</time>
      </trkpt>
      <trkpt lat="41.34314" lon="2.14518">
        <ele>48.894479</ele>
        <time>2022-12-31T15:40:45.019Z</time>
      </trkpt>
      <trkpt lat="41.34326" lon="2.14525">
        <ele>48.775792</ele>
        <time>2022-12-31T15:40:48.032Z</time>
      </trkpt>
      <trkpt lat="41.34337" lon="2.14532">
        <ele>48.657104</ele>
        <time>2022-12-31T15:40:51.018Z</time>
      </trkpt>
      <trkpt lat="41.34349" lon="2.14536">
        <ele>48.542982</ele>
        <time>2022-12-31T15:40:54.030Z</time>
      </trkpt>
      <trkpt lat="41.34361" lon="2.14539">
        <ele>48.42626</ele>
        <time>2022-12-31T15:40:57.035Z</time>
      </trkpt>
      <trkpt lat="41.34373" lon="2.14546">
        <ele>48.30557</ele>
        <time>2022-12-31T15:41:00.038Z</time>
      </trkpt>
      <trkpt lat="41.34385" lon="2.14553">
        <ele>48.18488</ele>
        <time>2022-12-31T15:41:03.014Z</time>
      </trkpt>
      <trkpt lat="41.34397" lon="2.1456">
        <ele>48.063009</ele>
        <time>2022-12-31T15:41:06.045Z</time>
      </trkpt>
      <trkpt lat="41.34408" lon="2.14566">
        <ele>47.953164</ele>
        <time>2022-12-31T15:41:09.024Z</time>
      </trkpt>
      <trkpt lat="41.34417" lon="2.14573">
        <ele>47.84788</ele>
        <time>2022-12-31T15:41:12.016Z</time>
      </trkpt>
      <trkpt lat="41.34427" lon="2.14578">
        <ele>47.952291</ele>
        <time>2022-12-31T15:41:15.016Z</time>
      </trkpt>
      <trkpt lat="41.34438" lon="2.14584">
        <ele>48.131092</ele>
        <time>2022-12-31T15:41:19.026Z</time>
      </trkpt>
      <trkpt lat="41.34449" lon="2.14584">
        <ele>48.314374</ele>
        <time>2022-12-31T15:41:23.011Z</time>
      </trkpt>
      <trkpt lat="41.34458" lon="2.14585">
        <ele>48.462176</ele>
        <time>2022-12-31T15:41:28.020Z</time>
      </trkpt>
      <trkpt lat="41.34468" lon="2.14592">
        <ele>48.651024</ele>
        <time>2022-12-31T15:41:32.008Z</time>
      </trkpt>
      <trkpt lat="41.34478" lon="2.14598">
        <ele>48.814455</ele>
        <time>2022-12-31T15:41:35.024Z</time>
      </trkpt>
      <trkpt lat="41.34487" lon="2.14604">
        <ele>48.982967</ele>
        <time>2022-12-31T15:41:38.011Z</time>
      </trkpt>
      <trkpt lat="41.34496" lon="2.1461">
        <ele>49.153808</ele>
        <time>2022-12-31T15:41:41.018Z</time>
      </trkpt>
      <trkpt lat="41.34507" lon="2.14617">
        <ele>49.345947</ele>
        <time>2022-12-31T15:41:44.019Z</time>
      </trkpt>
      <trkpt lat="41.34518" lon="2.14623">
        <ele>49.544951</ele>
        <time>2022-12-31T15:41:47.022Z</time>
      </trkpt>
      <trkpt lat="41.3453" lon="2.1463">
        <ele>49.753321</ele>
        <time>2022-12-31T15:41:50.018Z</time>
      </trkpt>
      <trkpt lat="41.34539" lon="2.14635">
        <ele>49.9079</ele>
        <time>2022-12-31T15:41:52.023Z</time>
      </trkpt>
      <trkpt lat="41.34547" lon="2.1464">
        <ele>50.060516</ele>
        <time>2022-12-31T15:41:54.017Z</time>
      </trkpt>
      <trkpt lat="41.3456" lon="2.14648">
        <ele>50.283207</ele>
        <time>2022-12-31T15:41:57.030Z</time>
      </trkpt>
      <trkpt lat="41.34569" lon="2.14652">
        <ele>50.435361</ele>
        <time>2022-12-31T15:41:59.021Z</time>
      </trkpt>
      <trkpt lat="41.34577" lon="2.14657">
        <ele>50.582029</ele>
        <time>2022-12-31T15:42:01.028Z</time>
      </trkpt>
      <trkpt lat="41.34589" lon="2.14663">
        <ele>50.776002</ele>
        <time>2022-12-31T15:42:04.006Z</time>
      </trkpt>
      <trkpt lat="41.346" lon="2.14669">
        <ele>50.938771</ele>
        <time>2022-12-31T15:42:07.025Z</time>
      </trkpt>
      <trkpt lat="41.3461" lon="2.14676">
        <ele>51.088201</ele>
        <time>2022-12-31T15:42:10.028Z</time>
      </trkpt>
      <trkpt lat="41.3462" lon="2.1468">
        <ele>51.220937</ele>
        <time>2022-12-31T15:42:13.019Z</time>
      </trkpt>
      <trkpt lat="41.34628" lon="2.14686">
        <ele>51.340074</ele>
        <time>2022-12-31T15:42:16.033Z</time>
      </trkpt>
      <trkpt lat="41.34639" lon="2.1469">
        <ele>51.486838</ele>
        <time>2022-12-31T15:42:20.017Z</time>
      </trkpt>
      <trkpt lat="41.34648" lon="2.14694">
        <ele>51.610834</ele>
        <time>2022-12-31T15:42:23.023Z</time>
      </trkpt>
      <trkpt lat="41.34656" lon="2.14698">
        <ele>51.730115</ele>
        <time>2022-12-31T15:42:26.025Z</time>
      </trkpt>
      <trkpt lat="41.34667" lon="2.14701">
        <ele>51.882267</ele>
        <time>2022-12-31T15:42:29.997Z</time>
      </trkpt>
      <trkpt lat="41.34678" lon="2.14703">
        <ele>52.021764</ele>
        <time>2022-12-31T15:42:34.043Z</time>
      </trkpt>
      <trkpt lat="41.34688" lon="2.14704">
        <ele>52.150838</ele>
        <time>2022-12-31T15:42:38.022Z</time>
      </trkpt>
      <trkpt lat="41.34698" lon="2.14705">
        <ele>52.292477</ele>
        <time>2022-12-31T15:42:43.017Z</time>
      </trkpt>
      <trkpt lat="41.34714" lon="2.14711">
        <ele>52.51026</ele>
        <time>2022-12-31T15:43:09.031Z</time>
      </trkpt>
      <trkpt lat="41.34726" lon="2.14713">
        <ele>52.662938</ele>
        <time>2022-12-31T15:43:13.020Z</time>
      </trkpt>
      <trkpt lat="41.34735" lon="2.14714">
        <ele>52.782011</ele>
        <time>2022-12-31T15:43:16.025Z</time>
      </trkpt>
      <trkpt lat="41.34744" lon="2.14715">
        <ele>52.903913</ele>
        <time>2022-12-31T15:43:19.033Z</time>
      </trkpt>
      <trkpt lat="41.34755" lon="2.14717">
        <ele>53.04667</ele>
        <time>2022-12-31T15:43:22.025Z</time>
      </trkpt>
      <trkpt lat="41.34767" lon="2.14718">
        <ele>53.007278</ele>
        <time>2022-12-31T15:43:25.019Z</time>
      </trkpt>
      <trkpt lat="41.34779" lon="2.14719">
        <ele>52.843649</ele>
        <time>2022-12-31T15:43:28.034Z</time>
      </trkpt>
      <trkpt lat="41.34792" lon="2.1472">
        <ele>52.6761</ele>
        <time>2022-12-31T15:43:31.019Z</time>
      </trkpt>
      <trkpt lat="41.34801" lon="2.1472">
        <ele>52.55525</ele>
        <time>2022-12-31T15:43:33.021Z</time>
      </trkpt>
      <trkpt lat="41.3481" lon="2.1472">
        <ele>52.434399</ele>
        <time>2022-12-31T15:43:35.013Z</time>
      </trkpt>
      <trkpt lat="41.3482" lon="2.1472">
        <ele>52.298867</ele>
        <time>2022-12-31T15:43:37.017Z</time>
      </trkpt>
      <trkpt lat="41.3483" lon="2.1472">
        <ele>52.162009</ele>
        <time>2022-12-31T15:43:39.013Z</time>
      </trkpt>
      <trkpt lat="41.34841" lon="2.1472">
        <ele>52.022571</ele>
        <time>2022-12-31T15:43:41.012Z</time>
      </trkpt>
      <trkpt lat="41.34852" lon="2.1472">
        <ele>51.877832</ele>
        <time>2022-12-31T15:43:43.017Z</time>
      </trkpt>
      <trkpt lat="41.34863" lon="2.14719">
        <ele>51.732754</ele>
        <time>2022-12-31T15:43:45.011Z</time>
      </trkpt>
      <trkpt lat="41.34874" lon="2.14716">
        <ele>51.582744</ele>
        <time>2022-12-31T15:43:47.017Z</time>
      </trkpt>
      <trkpt lat="41.34885" lon="2.14713">
        <ele>51.428248</ele>
        <time>2022-12-31T15:43:49.009Z</time>
      </trkpt>
      <trkpt lat="41.34896" lon="2.1471">
        <ele>51.275261</ele>
        <time>2022-12-31T15:43:51.004Z</time>
      </trkpt>
      <trkpt lat="41.34907" lon="2.14705">
        <ele>51.130032</ele>
        <time>2022-12-31T15:43:53.019Z</time>
      </trkpt>
      <trkpt lat="41.34917" lon="2.14699">
        <ele>50.984807</ele>
        <time>2022-12-31T15:43:55.010Z</time>
      </trkpt>
      <trkpt lat="41.34927" lon="2.14693">
        <ele>50.842376</ele>
        <time>2022-12-31T15:43:57.014Z</time>
      </trkpt>
      <trkpt lat="41.34936" lon="2.14688">
        <ele>50.714318</ele>
        <time>2022-12-31T15:43:59.020Z</time>
      </trkpt>
      <trkpt lat="41.34946" lon="2.14684">
        <ele>50.668032</ele>
        <time>2022-12-31T15:44:01.005Z</time>
      </trkpt>
      <trkpt lat="41.34956" lon="2.14677">
        <ele>50.616674</ele>
        <time>2022-12-31T15:44:03.019Z</time>
      </trkpt>
      <trkpt lat="41.34964" lon="2.14669">
        <ele>50.57174</ele>
        <time>2022-12-31T15:44:05.021Z</time>
      </trkpt>
      <trkpt lat="41.34973" lon="2.14662">
        <ele>50.524171</ele>
        <time>2022-12-31T15:44:07.027Z</time>
      </trkpt>
      <trkpt lat="41.34983" lon="2.14655">
        <ele>50.471599</ele>
        <time>2022-12-31T15:44:09.031Z</time>
      </trkpt>
      <trkpt lat="41.34994" lon="2.14647">
        <ele>50.416365</ele>
        <time>2022-12-31T15:44:11.034Z</time>
      </trkpt>
      <trkpt lat="41.35003" lon="2.1464">
        <ele>50.367114</ele>
        <time>2022-12-31T15:44:13.019Z</time>
      </trkpt>
      <trkpt lat="41.35014" lon="2.14631">
        <ele>50.311149</ele>
        <time>2022-12-31T15:44:15.011Z</time>
      </trkpt>
      <trkpt lat="41.35024" lon="2.14624">
        <ele>50.260388</ele>
        <time>2022-12-31T15:44:17.018Z</time>
      </trkpt>
      <trkpt lat="41.35033" lon="2.14617">
        <ele>50.212109</ele>
        <time>2022-12-31T15:44:19.013Z</time>
      </trkpt>
      <trkpt lat="41.35045" lon="2.14609">
        <ele>50.150781</ele>
        <time>2022-12-31T15:44:22.031Z</time>
      </trkpt>
      <trkpt lat="41.35054" lon="2.14603">
        <ele>50.107346</ele>
        <time>2022-12-31T15:44:24.011Z</time>
      </trkpt>
      <trkpt lat="41.35062" lon="2.14597">
        <ele>50.065668</ele>
        <time>2022-12-31T15:44:26.017Z</time>
      </trkpt>
      <trkpt lat="41.35074" lon="2.14589">
        <ele>50.006127</ele>
        <time>2022-12-31T15:44:29.013Z</time>
      </trkpt>
      <trkpt lat="41.35082" lon="2.14582">
        <ele>49.960115</ele>
        <time>2022-12-31T15:44:32.035Z</time>
      </trkpt>
      <trkpt lat="41.35097" lon="2.14572">
        <ele>49.979984</ele>
        <time>2022-12-31T15:45:40.030Z</time>
      </trkpt>
      <trkpt lat="41.35107" lon="2.14565">
        <ele>50.148937</ele>
        <time>2022-12-31T15:45:44.018Z</time>
      </trkpt>
      <trkpt lat="41.35117" lon="2.14558">
        <ele>50.312844</ele>
        <time>2022-12-31T15:45:48.034Z</time>
      </trkpt>
      <trkpt lat="41.35125" lon="2.14552">
        <ele>50.458756</ele>
        <time>2022-12-31T15:45:52.022Z</time>
      </trkpt>
      <trkpt lat="41.35134" lon="2.14545">
        <ele>50.610335</ele>
        <time>2022-12-31T15:45:56.026Z</time>
      </trkpt>
      <trkpt lat="41.35141" lon="2.14553">
        <ele>50.751387</ele>
        <time>2022-12-31T15:46:01.020Z</time>
      </trkpt>
      <trkpt lat="41.35151" lon="2.1455">
        <ele>50.908861</ele>
        <time>2022-12-31T15:46:05.031Z</time>
      </trkpt>
      <trkpt lat="41.3516" lon="2.14543">
        <ele>51.063923</ele>
        <time>2022-12-31T15:46:08.036Z</time>
      </trkpt>
      <trkpt lat="41.35169" lon="2.14536">
        <ele>51.220119</ele>
        <time>2022-12-31T15:46:11.011Z</time>
      </trkpt>
      <trkpt lat="41.35177" lon="2.14531">
        <ele>51.363375</ele>
        <time>2022-12-31T15:46:14.025Z</time>
      </trkpt>
      <trkpt lat="41.35185" lon="2.14525">
        <ele>51.504512</ele>
        <time>2022-12-31T15:46:17.011Z</time>
      </trkpt>
      <trkpt lat="41.35196" lon="2.14518">
        <ele>51.68148</ele>
        <time>2022-12-31T15:46:20.022Z</time>
      </trkpt>
      <trkpt lat="41.35206" lon="2.1451">
        <ele>51.867824</ele>
        <time>2022-12-31T15:46:23.017Z</time>
      </trkpt>
      <trkpt lat="41.35217" lon="2.14502">
        <ele>52.056308</ele>
        <time>2022-12-31T15:46:26.030Z</time>
      </trkpt>
      <trkpt lat="41.35228" lon="2.14494">
        <ele>52.248465</ele>
        <time>2022-12-31T15:46:29.013Z</time>
      </trkpt>
      <trkpt lat="41.35239" lon="2.14485">
        <ele>52.437588</ele>
        <time>2022-12-31T15:46:32.033Z</time>
      </trkpt>
      <trkpt lat="41.3525" lon="2.14477">
        <ele>52.624829</ele>
        <time>2022-12-31T15:46:35.006Z</time>
      </trkpt>
      <trkpt lat="41.35261" lon="2.14468">
        <ele>52.830068</ele>
        <time>2022-12-31T15:46:38.039Z</time>
      </trkpt>
      <trkpt lat="41.35272" lon="2.1446">
        <ele>53.030838</ele>
        <time>2022-12-31T15:46:41.032Z</time>
      </trkpt>
      <trkpt lat="41.35282" lon="2.14453">
        <ele>53.218812</ele>
        <time>2022-12-31T15:46:44.036Z</time>
      </trkpt>
      <trkpt lat="41.35291" lon="2.14443">
        <ele>53.403069</ele>
        <time>2022-12-31T15:46:47.019Z</time>
      </trkpt>
      <trkpt lat="41.35302" lon="2.14434">
        <ele>53.608959</ele>
        <time>2022-12-31T15:46:50.019Z</time>
      </trkpt>
      <trkpt lat="41.35314" lon="2.14426">
        <ele>53.826838</ele>
        <time>2022-12-31T15:46:53.008Z</time>
      </trkpt>
      <trkpt lat="41.35323" lon="2.14419">
        <ele>54.005201</ele>
        <time>2022-12-31T15:46:56.021Z</time>
      </trkpt>
      <trkpt lat="41.35334" lon="2.14412">
        <ele>54.190335</ele>
        <time>2022-12-31T15:46:59.015Z</time>
      </trkpt>
      <trkpt lat="41.35344" lon="2.14404">
        <ele>54.384913</ele>
        <time>2022-12-31T15:47:02.036Z</time>
      </trkpt>
      <trkpt lat="41.35355" lon="2.14397">
        <ele>54.583129</ele>
        <time>2022-12-31T15:47:05.019Z</time>
      </trkpt>
      <trkpt lat="41.35364" lon="2.14391">
        <ele>54.73195</ele>
        <time>2022-12-31T15:47:07.019Z</time>
      </trkpt>
      <trkpt lat="41.35372" lon="2.14386">
        <ele>54.877883</ele>
        <time>2022-12-31T15:47:09.023Z</time>
      </trkpt>
      <trkpt lat="41.35382" lon="2.14379">
        <ele>55.074111</ele>
        <time>2022-12-31T15:47:12.035Z</time>
      </trkpt>
      <trkpt lat="41.35393" lon="2.14371">
        <ele>55.271217</ele>
        <time>2022-12-31T15:47:15.031Z</time>
      </trkpt>
      <trkpt lat="41.35403" lon="2.14365">
        <ele>55.451021</ele>
        <time>2022-12-31T15:47:18.039Z</time>
      </trkpt>
      <trkpt lat="41.35411" lon="2.14358">
        <ele>55.531315</ele>
        <time>2022-12-31T15:47:21.016Z</time>
      </trkpt>
      <trkpt lat="41.35421" lon="2.14352">
        <ele>55.526362</ele>
        <time>2022-12-31T15:47:26.001Z</time>
      </trkpt>
      <trkpt lat="41.35431" lon="2.14346">
        <ele>55.521428</ele>
        <time>2022-12-31T15:47:30.018Z</time>
      </trkpt>
      <trkpt lat="41.35439" lon="2.14339">
        <ele>55.516992</ele>
        <time>2022-12-31T15:47:34.025Z</time>
      </trkpt>
      <trkpt lat="41.35449" lon="2.14332">
        <ele>55.51209</ele>
        <time>2022-12-31T15:47:38.039Z</time>
      </trkpt>
      <trkpt lat="41.35459" lon="2.14325">
        <ele>55.506803</ele>
        <time>2022-12-31T15:47:42.020Z</time>
      </trkpt>
      <trkpt lat="41.35469" lon="2.1432">
        <ele>55.501808</ele>
        <time>2022-12-31T15:47:46.024Z</time>
      </trkpt>
      <trkpt lat="41.35478" lon="2.14311">
        <ele>55.496456</ele>
        <time>2022-12-31T15:47:50.010Z</time>
      </trkpt>
      <trkpt lat="41.35487" lon="2.14304">
        <ele>55.49197</ele>
        <time>2022-12-31T15:47:53.014Z</time>
      </trkpt>
      <trkpt lat="41.35495" lon="2.14298">
        <ele>55.487511</ele>
        <time>2022-12-31T15:47:56.024Z</time>
      </trkpt>
      <trkpt lat="41.35505" lon="2.14292">
        <ele>55.48271</ele>
        <time>2022-12-31T15:47:59.016Z</time>
      </trkpt>
      <trkpt lat="41.35516" lon="2.14287">
        <ele>55.4775</ele>
        <time>2022-12-31T15:48:02.026Z</time>
      </trkpt>
      <trkpt lat="41.35525" lon="2.1428">
        <ele>55.472666</ele>
        <time>2022-12-31T15:48:05.007Z</time>
      </trkpt>
      <trkpt lat="41.35534" lon="2.14272">
        <ele>55.467744</ele>
        <time>2022-12-31T15:48:08.031Z</time>
      </trkpt>
      <trkpt lat="41.35545" lon="2.14265">
        <ele>55.46231</ele>
        <time>2022-12-31T15:48:11.027Z</time>
      </trkpt>
      <trkpt lat="41.35554" lon="2.14256">
        <ele>55.457171</ele>
        <time>2022-12-31T15:48:14.007Z</time>
      </trkpt>
      <trkpt lat="41.35563" lon="2.14249">
        <ele>55.452303</ele>
        <time>2022-12-31T15:48:17.011Z</time>
      </trkpt>
      <trkpt lat="41.35572" lon="2.14243">
        <ele>55.465507</ele>
        <time>2022-12-31T15:48:20.021Z</time>
      </trkpt>
      <trkpt lat="41.35581" lon="2.14235">
        <ele>55.48815</ele>
        <time>2022-12-31T15:48:23.029Z</time>
      </trkpt>
      <trkpt lat="41.35591" lon="2.14225">
        <ele>55.513137</ele>
        <time>2022-12-31T15:48:26.021Z</time>
      </trkpt>
      <trkpt lat="41.356" lon="2.14217">
        <ele>55.534608</ele>
        <time>2022-12-31T15:48:29.029Z</time>
      </trkpt>
      <trkpt lat="41.3561" lon="2.1421">
        <ele>55.55773</ele>
        <time>2022-12-31T15:48:32.024Z</time>
      </trkpt>
      <trkpt lat="41.35619" lon="2.14203">
        <ele>55.578226</ele>
        <time>2022-12-31T15:48:35.036Z</time>
      </trkpt>
      <trkpt lat="41.35628" lon="2.14198">
        <ele>55.597262</ele>
        <time>2022-12-31T15:48:40.015Z</time>
      </trkpt>
      <trkpt lat="41.35638" lon="2.14193">
        <ele>55.618528</ele>
        <time>2022-12-31T15:49:10.022Z</time>
      </trkpt>
      <trkpt lat="41.35648" lon="2.14187">
        <ele>55.640459</ele>
        <time>2022-12-31T15:49:14.043Z</time>
      </trkpt>
      <trkpt lat="41.35656" lon="2.14181">
        <ele>55.659736</ele>
        <time>2022-12-31T15:49:17.015Z</time>
      </trkpt>
      <trkpt lat="41.35666" lon="2.14174">
        <ele>55.681126</ele>
        <time>2022-12-31T15:49:20.032Z</time>
      </trkpt>
      <trkpt lat="41.35675" lon="2.14167">
        <ele>55.702868</ele>
        <time>2022-12-31T15:49:23.019Z</time>
      </trkpt>
      <trkpt lat="41.35684" lon="2.14161">
        <ele>55.721831</ele>
        <time>2022-12-31T15:49:26.028Z</time>
      </trkpt>
      <trkpt lat="41.35692" lon="2.14156">
        <ele>55.740326</ele>
        <time>2022-12-31T15:49:29.039Z</time>
      </trkpt>
      <trkpt lat="41.35702" lon="2.1415">
        <ele>55.761527</ele>
        <time>2022-12-31T15:49:32.017Z</time>
      </trkpt>
      <trkpt lat="41.3571" lon="2.14142">
        <ele>55.781513</ele>
        <time>2022-12-31T15:49:35.015Z</time>
      </trkpt>
      <trkpt lat="41.35719" lon="2.14134">
        <ele>55.803232</ele>
        <time>2022-12-31T15:49:38.042Z</time>
      </trkpt>
      <trkpt lat="41.35729" lon="2.14127">
        <ele>55.902335</ele>
        <time>2022-12-31T15:49:41.018Z</time>
      </trkpt>
      <trkpt lat="41.35739" lon="2.14118">
        <ele>56.038236</ele>
        <time>2022-12-31T15:49:44.020Z</time>
      </trkpt>
      <trkpt lat="41.3575" lon="2.1411">
        <ele>56.183887</ele>
        <time>2022-12-31T15:49:47.018Z</time>
      </trkpt>
      <trkpt lat="41.35762" lon="2.14103">
        <ele>56.331007</ele>
        <time>2022-12-31T15:49:50.037Z</time>
      </trkpt>
      <trkpt lat="41.35773" lon="2.14095">
        <ele>56.470053</ele>
        <time>2022-12-31T15:49:53.038Z</time>
      </trkpt>
      <trkpt lat="41.35783" lon="2.14086">
        <ele>56.607793</ele>
        <time>2022-12-31T15:49:56.022Z</time>
      </trkpt>
      <trkpt lat="41.35794" lon="2.1408">
        <ele>56.746878</ele>
        <time>2022-12-31T15:49:59.016Z</time>
      </trkpt>
      <trkpt lat="41.35804" lon="2.14071">
        <ele>56.886523</ele>
        <time>2022-12-31T15:50:02.020Z</time>
      </trkpt>
      <trkpt lat="41.35813" lon="2.14064">
        <ele>56.998128</ele>
        <time>2022-12-31T15:50:05.020Z</time>
      </trkpt>
      <trkpt lat="41.3582" lon="2.14057">
        <ele>57.101218</ele>
        <time>2022-12-31T15:50:07.006Z</time>
      </trkpt>
      <trkpt lat="41.35831" lon="2.14051">
        <ele>57.239953</ele>
        <time>2022-12-31T15:50:10.022Z</time>
      </trkpt>
      <trkpt lat="41.35842" lon="2.14046">
        <ele>57.368017</ele>
        <time>2022-12-31T15:50:13.027Z</time>
      </trkpt>
      <trkpt lat="41.35852" lon="2.1404">
        <ele>57.499218</ele>
        <time>2022-12-31T15:50:16.025Z</time>
      </trkpt>
      <trkpt lat="41.35861" lon="2.14031">
        <ele>57.625208</ele>
        <time>2022-12-31T15:50:19.008Z</time>
      </trkpt>
      <trkpt lat="41.35871" lon="2.14022">
        <ele>57.761056</ele>
        <time>2022-12-31T15:50:22.030Z</time>
      </trkpt>
      <trkpt lat="41.3588" lon="2.14015">
        <ele>57.848541</ele>
        <time>2022-12-31T15:50:25.013Z</time>
      </trkpt>
      <trkpt lat="41.35891" lon="2.14007">
        <ele>57.753602</ele>
        <time>2022-12-31T15:50:28.032Z</time>
      </trkpt>
      <trkpt lat="41.35902" lon="2.14">
        <ele>57.655501</ele>
        <time>2022-12-31T15:50:31.015Z</time>
      </trkpt>
      <trkpt lat="41.35912" lon="2.13991">
        <ele>57.560071</ele>
        <time>2022-12-31T15:50:34.017Z</time>
      </trkpt>
      <trkpt lat="41.35923" lon="2.13984">
        <ele>57.461634</ele>
        <time>2022-12-31T15:50:37.024Z</time>
      </trkpt>
      <trkpt lat="41.35933" lon="2.13977">
        <ele>57.369269</ele>
        <time>2022-12-31T15:50:40.019Z</time>
      </trkpt>
      <trkpt lat="41.35943" lon="2.13971">
        <ele>57.283517</ele>
        <time>2022-12-31T15:50:43.014Z</time>
      </trkpt>
      <trkpt lat="41.35951" lon="2.13964">
        <ele>57.210963</ele>
        <time>2022-12-31T15:50:46.017Z</time>
      </trkpt>
      <trkpt lat="41.35959" lon="2.13959">
        <ele>57.13593</ele>
        <time>2022-12-31T15:50:49.014Z</time>
      </trkpt>
      <trkpt lat="41.35968" lon="2.13952">
        <ele>57.053748</ele>
        <time>2022-12-31T15:50:52.024Z</time>
      </trkpt>
      <trkpt lat="41.35976" lon="2.13944">
        <ele>56.974631</ele>
        <time>2022-12-31T15:50:55.016Z</time>
      </trkpt>
      <trkpt lat="41.35986" lon="2.13937">
        <ele>56.88692</ele>
        <time>2022-12-31T15:50:58.038Z</time>
      </trkpt>
      <trkpt lat="41.35995" lon="2.1393">
        <ele>56.797029</ele>
        <time>2022-12-31T15:51:00.997Z</time>
      </trkpt>
      <trkpt lat="41.36006" lon="2.13922">
        <ele>56.701859</ele>
        <time>2022-12-31T15:51:04.012Z</time>
      </trkpt>
      <trkpt lat="41.36016" lon="2.13915">
        <ele>56.60697</ele>
        <time>2022-12-31T15:51:06.997Z</time>
      </trkpt>
      <trkpt lat="41.36028" lon="2.13909">
        <ele>56.511726</ele>
        <time>2022-12-31T15:51:10.021Z</time>
      </trkpt>
      <trkpt lat="41.36038" lon="2.13903">
        <ele>56.427246</ele>
        <time>2022-12-31T15:51:13.014Z</time>
      </trkpt>
      <trkpt lat="41.36049" lon="2.13895">
        <ele>56.431375</ele>
        <time>2022-12-31T15:51:16.026Z</time>
      </trkpt>
      <trkpt lat="41.36059" lon="2.13887">
        <ele>56.435621</ele>
        <time>2022-12-31T15:51:19.014Z</time>
      </trkpt>
      <trkpt lat="41.3607" lon="2.13879">
        <ele>56.439756</ele>
        <time>2022-12-31T15:51:22.027Z</time>
      </trkpt>
      <trkpt lat="41.3608" lon="2.13872">
        <ele>56.443682</ele>
        <time>2022-12-31T15:51:25.019Z</time>
      </trkpt>
      <trkpt lat="41.3609" lon="2.13865">
        <ele>56.447785</ele>
        <time>2022-12-31T15:51:28.041Z</time>
      </trkpt>
      <trkpt lat="41.36101" lon="2.13856">
        <ele>56.452257</ele>
        <time>2022-12-31T15:51:31.015Z</time>
      </trkpt>
      <trkpt lat="41.36112" lon="2.13847">
        <ele>56.456772</ele>
        <time>2022-12-31T15:51:34.019Z</time>
      </trkpt>
      <trkpt lat="41.36123" lon="2.1384">
        <ele>56.460869</ele>
        <time>2022-12-31T15:51:37.020Z</time>
      </trkpt>
      <trkpt lat="41.36133" lon="2.13832">
        <ele>56.464935</ele>
        <time>2022-12-31T15:51:40.026Z</time>
      </trkpt>
      <trkpt lat="41.36144" lon="2.13825">
        <ele>56.469161</ele>
        <time>2022-12-31T15:51:43.009Z</time>
      </trkpt>
      <trkpt lat="41.36155" lon="2.13818">
        <ele>56.473389</ele>
        <time>2022-12-31T15:51:45.998Z</time>
      </trkpt>
      <trkpt lat="41.36165" lon="2.1381">
        <ele>56.477555</ele>
        <time>2022-12-31T15:51:49.022Z</time>
      </trkpt>
      <trkpt lat="41.36175" lon="2.13803">
        <ele>56.481744</ele>
        <time>2022-12-31T15:51:52.027Z</time>
      </trkpt>
      <trkpt lat="41.36186" lon="2.13796">
        <ele>56.485779</ele>
        <time>2022-12-31T15:51:55.021Z</time>
      </trkpt>
      <trkpt lat="41.36195" lon="2.13789">
        <ele>56.490105</ele>
        <time>2022-12-31T15:51:58.031Z</time>
      </trkpt>
      <trkpt lat="41.36205" lon="2.13783">
        <ele>56.519728</ele>
        <time>2022-12-31T15:52:01.014Z</time>
      </trkpt>
      <trkpt lat="41.36215" lon="2.13775">
        <ele>56.555123</ele>
        <time>2022-12-31T15:52:05.019Z</time>
      </trkpt>
      <trkpt lat="41.36224" lon="2.13769">
        <ele>56.583229</ele>
        <time>2022-12-31T15:52:08.037Z</time>
      </trkpt>
      <trkpt lat="41.36233" lon="2.13763">
        <ele>56.613475</ele>
        <time>2022-12-31T15:52:11.005Z</time>
      </trkpt>
      <trkpt lat="41.36242" lon="2.13757">
        <ele>56.642057</ele>
        <time>2022-12-31T15:52:14.005Z</time>
      </trkpt>
      <trkpt lat="41.36252" lon="2.13748">
        <ele>56.677238</ele>
        <time>2022-12-31T15:52:17.018Z</time>
      </trkpt>
      <trkpt lat="41.36262" lon="2.13741">
        <ele>56.709271</ele>
        <time>2022-12-31T15:52:20.025Z</time>
      </trkpt>
      <trkpt lat="41.36273" lon="2.13734">
        <ele>56.744607</ele>
        <time>2022-12-31T15:52:23.033Z</time>
      </trkpt>
      <trkpt lat="41.36282" lon="2.13726">
        <ele>56.77559</ele>
        <time>2022-12-31T15:52:26.018Z</time>
      </trkpt>
      <trkpt lat="41.36292" lon="2.13719">
        <ele>56.806511</ele>
        <time>2022-12-31T15:52:29.011Z</time>
      </trkpt>
      <trkpt lat="41.36301" lon="2.13712">
        <ele>56.837114</ele>
        <time>2022-12-31T15:52:32.022Z</time>
      </trkpt>
      <trkpt lat="41.3631" lon="2.13705">
        <ele>56.867287</ele>
        <time>2022-12-31T15:52:35.016Z</time>
      </trkpt>
      <trkpt lat="41.36319" lon="2.13698">
        <ele>56.896923</ele>
        <time>2022-12-31T15:52:38.031Z</time>
      </trkpt>
      <trkpt lat="41.36328" lon="2.13692">
        <ele>56.926202</ele>
        <time>2022-12-31T15:52:41.020Z</time>
      </trkpt>
      <trkpt lat="41.36336" lon="2.13685">
        <ele>56.955299</ele>
        <time>2022-12-31T15:52:44.026Z</time>
      </trkpt>
      <trkpt lat="41.36345" lon="2.13679">
        <ele>56.983405</ele>
        <time>2022-12-31T15:52:47.036Z</time>
      </trkpt>
      <trkpt lat="41.36355" lon="2.13671">
        <ele>57.040051</ele>
        <time>2022-12-31T15:52:51.018Z</time>
      </trkpt>
      <trkpt lat="41.36364" lon="2.13675">
        <ele>57.169381</ele>
        <time>2022-12-31T15:52:57.009Z</time>
      </trkpt>
      <trkpt lat="41.36366" lon="2.13675">
        <ele>57.183805</ele>
        <time>2022-12-31T15:53:00.974Z</time>
      </trkpt>
      <trkpt lat="41.36406" lon="2.13722">
        <ele>57.86164</ele>
        <time>2022-12-31T15:54:43.022Z</time>
      </trkpt>
      <trkpt lat="41.36414" lon="2.13732">
        <ele>57.999485</ele>
        <time>2022-12-31T15:54:47.019Z</time>
      </trkpt>
      <trkpt lat="41.36422" lon="2.13741">
        <ele>58.134746</ele>
        <time>2022-12-31T15:54:51.014Z</time>
      </trkpt>
      <trkpt lat="41.36437" lon="2.13751">
        <ele>58.351778</ele>
        <time>2022-12-31T15:55:12.020Z</time>
      </trkpt>
      <trkpt lat="41.36448" lon="2.13763">
        <ele>58.527262</ele>
        <time>2022-12-31T15:55:50.012Z</time>
      </trkpt>
      <trkpt lat="41.36457" lon="2.13774">
        <ele>58.676252</ele>
        <time>2022-12-31T15:55:54.021Z</time>
      </trkpt>
      <trkpt lat="41.36463" lon="2.13784">
        <ele>58.801026</ele>
        <time>2022-12-31T15:55:57.013Z</time>
      </trkpt>
      <trkpt lat="41.36469" lon="2.13793">
        <ele>58.91787</ele>
        <time>2022-12-31T15:56:00.020Z</time>
      </trkpt>
      <trkpt lat="41.36476" lon="2.13804">
        <ele>59.055519</ele>
        <time>2022-12-31T15:56:04.027Z</time>
      </trkpt>
      <trkpt lat="41.36484" lon="2.13815">
        <ele>59.200882</ele>
        <time>2022-12-31T15:56:08.028Z</time>
      </trkpt>
      <trkpt lat="41.3649" lon="2.13824">
        <ele>59.288619</ele>
        <time>2022-12-31T15:56:12.016Z</time>
      </trkpt>
      <trkpt lat="41.36499" lon="2.13832">
        <ele>59.309316</ele>
        <time>2022-12-31T15:56:18.017Z</time>
      </trkpt>
      <trkpt lat="41.36505" lon="2.13841">
        <ele>59.327473</ele>
        <time>2022-12-31T15:56:23.015Z</time>
      </trkpt>
      <trkpt lat="41.36512" lon="2.13849">
        <ele>59.346976</ele>
        <time>2022-12-31T15:56:28.026Z</time>
      </trkpt>
      <trkpt lat="41.3652" lon="2.13858">
        <ele>59.368409</ele>
        <time>2022-12-31T15:56:38.017Z</time>
      </trkpt>
      <trkpt lat="41.36526" lon="2.13868">
        <ele>59.387388</ele>
        <time>2022-12-31T15:56:44.011Z</time>
      </trkpt>
      <trkpt lat="41.36529" lon="2.13889">
        <ele>59.419033</ele>
        <time>2022-12-31T15:57:33.017Z</time>
      </trkpt>
      <trkpt lat="41.36524" lon="2.139">
        <ele>59.439431</ele>
        <time>2022-12-31T15:57:38.043Z</time>
      </trkpt>
      <trkpt lat="41.36528" lon="2.13915">
        <ele>59.462262</ele>
        <time>2022-12-31T15:57:43.017Z</time>
      </trkpt>
      <trkpt lat="41.36535" lon="2.13923">
        <ele>59.480624</ele>
        <time>2022-12-31T15:57:46.008Z</time>
      </trkpt>
      <trkpt lat="41.36543" lon="2.13934">
        <ele>59.503899</ele>
        <time>2022-12-31T15:57:50.015Z</time>
      </trkpt>
      <trkpt lat="41.36551" lon="2.13944">
        <ele>59.525785</ele>
        <time>2022-12-31T15:57:54.032Z</time>
      </trkpt>
      <trkpt lat="41.36558" lon="2.13954">
        <ele>59.546992</ele>
        <time>2022-12-31T15:57:58.016Z</time>
      </trkpt>
      <trkpt lat="41.36566" lon="2.13964">
        <ele>59.569583</ele>
        <time>2022-12-31T15:58:02.008Z</time>
      </trkpt>
      <trkpt lat="41.36574" lon="2.13973">
        <ele>59.589194</ele>
        <time>2022-12-31T15:58:07.012Z</time>
      </trkpt>
      <trkpt lat="41.3658" lon="2.13985">
        <ele>59.611306</ele>
        <time>2022-12-31T15:58:11.014Z</time>
      </trkpt>
      <trkpt lat="41.36588" lon="2.13993">
        <ele>59.631578</ele>
        <time>2022-12-31T15:58:15.011Z</time>
      </trkpt>
      <trkpt lat="41.36593" lon="2.14004">
        <ele>59.778375</ele>
        <time>2022-12-31T15:58:22.024Z</time>
      </trkpt>
      <trkpt lat="41.36594" lon="2.14018">
        <ele>60.292752</ele>
        <time>2022-12-31T15:58:28.018Z</time>
      </trkpt>
      <trkpt lat="41.36594" lon="2.14032">
        <ele>60.805795</ele>
        <time>2022-12-31T15:58:33.012Z</time>
      </trkpt>
      <trkpt lat="41.36595" lon="2.14045">
        <ele>61.303411</ele>
        <time>2022-12-31T15:58:38.028Z</time>
      </trkpt>
      <trkpt lat="41.36595" lon="2.14058">
        <ele>61.782462</ele>
        <time>2022-12-31T15:58:43.020Z</time>
      </trkpt>
      <trkpt lat="41.36595" lon="2.14072">
        <ele>62.306142</ele>
        <time>2022-12-31T15:58:48.021Z</time>
      </trkpt>
      <trkpt lat="41.36595" lon="2.14084">
        <ele>62.759417</ele>
        <time>2022-12-31T15:58:53.026Z</time>
      </trkpt>
      <trkpt lat="41.36595" lon="2.14097">
        <ele>63.245969</ele>
        <time>2022-12-31T15:58:58.025Z</time>
      </trkpt>
      <trkpt lat="41.36595" lon="2.1411">
        <ele>63.710563</ele>
        <time>2022-12-31T15:59:03.006Z</time>
      </trkpt>
      <trkpt lat="41.366" lon="2.14123">
        <ele>64.256309</ele>
        <time>2022-12-31T15:59:09.008Z</time>
      </trkpt>
      <trkpt lat="41.36604" lon="2.14134">
        <ele>64.71421</ele>
        <time>2022-12-31T15:59:13.024Z</time>
      </trkpt>
      <trkpt lat="41.36611" lon="2.14146">
        <ele>65.263671</ele>
        <time>2022-12-31T15:59:18.023Z</time>
      </trkpt>
      <trkpt lat="41.36619" lon="2.14155">
        <ele>65.7902</ele>
        <time>2022-12-31T15:59:23.015Z</time>
      </trkpt>
      <trkpt lat="41.36627" lon="2.14161">
        <ele>66.253289</ele>
        <time>2022-12-31T15:59:28.028Z</time>
      </trkpt>
      <trkpt lat="41.36636" lon="2.14167">
        <ele>66.765922</ele>
        <time>2022-12-31T15:59:33.003Z</time>
      </trkpt>
      <trkpt lat="41.36645" lon="2.1417">
        <ele>67.221574</ele>
        <time>2022-12-31T15:59:38.023Z</time>
      </trkpt>
      <trkpt lat="41.36654" lon="2.14172">
        <ele>67.666771</ele>
        <time>2022-12-31T15:59:43.030Z</time>
      </trkpt>
      <trkpt lat="41.36664" lon="2.14174">
        <ele>68.165109</ele>
        <time>2022-12-31T15:59:48.026Z</time>
      </trkpt>
      <trkpt lat="41.36674" lon="2.14177">
        <ele>68.537131</ele>
        <time>2022-12-31T15:59:53.016Z</time>
      </trkpt>
      <trkpt lat="41.36683" lon="2.1418">
        <ele>68.507345</ele>
        <time>2022-12-31T15:59:58.027Z</time>
      </trkpt>
      <trkpt lat="41.36694" lon="2.14181">
        <ele>68.474063</ele>
        <time>2022-12-31T16:00:03.015Z</time>
      </trkpt>
      <trkpt lat="41.36713" lon="2.14188">
        <ele>68.413544</ele>
        <time>2022-12-31T16:00:41.021Z</time>
      </trkpt>
      <trkpt lat="41.36722" lon="2.14193">
        <ele>68.384847</ele>
        <time>2022-12-31T16:00:45.010Z</time>
      </trkpt>
      <trkpt lat="41.3673" lon="2.142">
        <ele>68.355831</ele>
        <time>2022-12-31T16:00:49.015Z</time>
      </trkpt>
      <trkpt lat="41.36737" lon="2.14208">
        <ele>68.32778</ele>
        <time>2022-12-31T16:00:53.018Z</time>
      </trkpt>
      <trkpt lat="41.36744" lon="2.14217">
        <ele>68.298035</ele>
        <time>2022-12-31T16:00:57.016Z</time>
      </trkpt>
      <trkpt lat="41.36752" lon="2.14224">
        <ele>68.268134</ele>
        <time>2022-12-31T16:01:01.019Z</time>
      </trkpt>
      <trkpt lat="41.3676" lon="2.14233">
        <ele>68.236881</ele>
        <time>2022-12-31T16:01:05.019Z</time>
      </trkpt>
      <trkpt lat="41.36768" lon="2.14242">
        <ele>68.202576</ele>
        <time>2022-12-31T16:01:09.018Z</time>
      </trkpt>
      <trkpt lat="41.36777" lon="2.14251">
        <ele>68.170079</ele>
        <time>2022-12-31T16:01:12.998Z</time>
      </trkpt>
      <trkpt lat="41.36784" lon="2.14259">
        <ele>68.142176</ele>
        <time>2022-12-31T16:01:18.018Z</time>
      </trkpt>
      <trkpt lat="41.36792" lon="2.14266">
        <ele>68.112515</ele>
        <time>2022-12-31T16:01:23.007Z</time>
      </trkpt>
      <trkpt lat="41.36803" lon="2.14261">
        <ele>68.077363</ele>
        <time>2022-12-31T16:01:28.019Z</time>
      </trkpt>
      <trkpt lat="41.36809" lon="2.14248">
        <ele>68.041154</ele>
        <time>2022-12-31T16:01:31.022Z</time>
      </trkpt>
      <trkpt lat="41.36817" lon="2.14235">
        <ele>68.003893</ele>
        <time>2022-12-31T16:01:34.033Z</time>
      </trkpt>
      <trkpt lat="41.36823" lon="2.14223">
        <ele>67.801718</ele>
        <time>2022-12-31T16:01:37.012Z</time>
      </trkpt>
      <trkpt lat="41.36831" lon="2.1421">
        <ele>67.529597</ele>
        <time>2022-12-31T16:01:41.014Z</time>
      </trkpt>
      <trkpt lat="41.36839" lon="2.14204">
        <ele>67.314393</ele>
        <time>2022-12-31T16:01:44.015Z</time>
      </trkpt>
      <trkpt lat="41.36848" lon="2.14208">
        <ele>67.081021</ele>
        <time>2022-12-31T16:01:47.009Z</time>
      </trkpt>
      <trkpt lat="41.36856" lon="2.14217">
        <ele>66.842138</ele>
        <time>2022-12-31T16:01:49.002Z</time>
      </trkpt>
      <trkpt lat="41.36862" lon="2.14228">
        <ele>66.600243</ele>
        <time>2022-12-31T16:01:51.013Z</time>
      </trkpt>
      <trkpt lat="41.36868" lon="2.1424">
        <ele>66.351221</ele>
        <time>2022-12-31T16:01:53.008Z</time>
      </trkpt>
      <trkpt lat="41.36875" lon="2.14255">
        <ele>66.055868</ele>
        <time>2022-12-31T16:01:56.021Z</time>
      </trkpt>
      <trkpt lat="41.36883" lon="2.14268">
        <ele>65.750919</ele>
        <time>2022-12-31T16:01:59.013Z</time>
      </trkpt>
      <trkpt lat="41.36892" lon="2.1428">
        <ele>65.460521</ele>
        <time>2022-12-31T16:02:02.034Z</time>
      </trkpt>
      <trkpt lat="41.36898" lon="2.1429">
        <ele>65.23421</ele>
        <time>2022-12-31T16:02:06.013Z</time>
      </trkpt>
      <trkpt lat="41.36904" lon="2.143">
        <ele>65.021114</ele>
        <time>2022-12-31T16:02:13.006Z</time>
      </trkpt>
      <trkpt lat="41.36915" lon="2.14297">
        <ele>64.768141</ele>
        <time>2022-12-31T16:02:18.994Z</time>
      </trkpt>
      <trkpt lat="41.36923" lon="2.14291">
        <ele>64.545188</ele>
        <time>2022-12-31T16:02:25.005Z</time>
      </trkpt>
      <trkpt lat="41.3693" lon="2.14279">
        <ele>64.285561</ele>
        <time>2022-12-31T16:02:30.007Z</time>
      </trkpt>
      <trkpt lat="41.36937" lon="2.1427">
        <ele>64.053219</ele>
        <time>2022-12-31T16:02:34.014Z</time>
      </trkpt>
      <trkpt lat="41.36943" lon="2.14259">
        <ele>63.832217</ele>
        <time>2022-12-31T16:02:39.014Z</time>
      </trkpt>
      <trkpt lat="41.36947" lon="2.14248">
        <ele>63.764045</ele>
        <time>2022-12-31T16:02:43.021Z</time>
      </trkpt>
      <trkpt lat="41.36953" lon="2.14237">
        <ele>63.68891</ele>
        <time>2022-12-31T16:02:48.082Z</time>
      </trkpt>
      <trkpt lat="41.36962" lon="2.14237">
        <ele>63.622216</ele>
        <time>2022-12-31T16:02:54.013Z</time>
      </trkpt>
      <trkpt lat="41.36969" lon="2.14245">
        <ele>63.555656</ele>
        <time>2022-12-31T16:03:00.031Z</time>
      </trkpt>
      <trkpt lat="41.36977" lon="2.14253">
        <ele>63.485902</ele>
        <time>2022-12-31T16:03:05.008Z</time>
      </trkpt>
      <trkpt lat="41.36985" lon="2.14259">
        <ele>63.414436</ele>
        <time>2022-12-31T16:04:58.033Z</time>
      </trkpt>
      <trkpt lat="41.36991" lon="2.1427">
        <ele>63.342323</ele>
        <time>2022-12-31T16:05:08.012Z</time>
      </trkpt>
      <trkpt lat="41.36998" lon="2.14278">
        <ele>63.274965</ele>
        <time>2022-12-31T16:05:13.048Z</time>
      </trkpt>
      <trkpt lat="41.37005" lon="2.14286">
        <ele>63.204186</ele>
        <time>2022-12-31T16:05:19.011Z</time>
      </trkpt>
      <trkpt lat="41.37011" lon="2.14297">
        <ele>63.130369</ele>
        <time>2022-12-31T16:05:24.005Z</time>
      </trkpt>
      <trkpt lat="41.37016" lon="2.14308">
        <ele>63.056841</ele>
        <time>2022-12-31T16:05:29.011Z</time>
      </trkpt>
      <trkpt lat="41.37021" lon="2.14319">
        <ele>62.990312</ele>
        <time>2022-12-31T16:05:35.011Z</time>
      </trkpt>
      <trkpt lat="41.37032" lon="2.14324">
        <ele>62.90929</ele>
        <time>2022-12-31T16:05:39.028Z</time>
      </trkpt>
      <trkpt lat="41.37038" lon="2.14334">
        <ele>62.836464</ele>
        <time>2022-12-31T16:05:44.010Z</time>
      </trkpt>
      <trkpt lat="41.37045" lon="2.14344">
        <ele>62.760618</ele>
        <time>2022-12-31T16:05:49.014Z</time>
      </trkpt>
      <trkpt lat="41.37052" lon="2.14353">
        <ele>62.687741</ele>
        <time>2022-12-31T16:05:54.025Z</time>
      </trkpt>
      <trkpt lat="41.37062" lon="2.14363">
        <ele>62.599621</ele>
        <time>2022-12-31T16:07:00.039Z</time>
      </trkpt>
      <trkpt lat="41.37068" lon="2.14372">
        <ele>62.533143</ele>
        <time>2022-12-31T16:07:04.013Z</time>
      </trkpt>
      <trkpt lat="41.37075" lon="2.14383">
        <ele>62.821529</ele>
        <time>2022-12-31T16:07:09.008Z</time>
      </trkpt>
      <trkpt lat="41.37081" lon="2.14394">
        <ele>63.197456</ele>
        <time>2022-12-31T16:07:14.033Z</time>
      </trkpt>
      <trkpt lat="41.37086" lon="2.14406">
        <ele>63.56854</ele>
        <time>2022-12-31T16:07:21.024Z</time>
      </trkpt>
      <trkpt lat="41.37094" lon="2.14415">
        <ele>63.946011</ele>
        <time>2022-12-31T16:07:25.017Z</time>
      </trkpt>
      <trkpt lat="41.37103" lon="2.14425">
        <ele>64.371655</ele>
        <time>2022-12-31T16:07:29.019Z</time>
      </trkpt>
      <trkpt lat="41.3711" lon="2.14436">
        <ele>64.774938</ele>
        <time>2022-12-31T16:07:32.020Z</time>
      </trkpt>
      <trkpt lat="41.37116" lon="2.14447">
        <ele>65.150951</ele>
        <time>2022-12-31T16:07:35.018Z</time>
      </trkpt>
      <trkpt lat="41.37123" lon="2.14456">
        <ele>65.495317</ele>
        <time>2022-12-31T16:07:41.014Z</time>
      </trkpt>
      <trkpt lat="41.37128" lon="2.14453">
        <ele>65.687353</ele>
        <time>2022-12-31T16:08:10.846Z</time>
      </trkpt>
      <trkpt lat="41.37142" lon="2.14446">
        <ele>66.247634</ele>
        <time>2022-12-31T17:05:00.014Z</time>
      </trkpt>
      <trkpt lat="41.37147" lon="2.14458">
        <ele>66.628629</ele>
        <time>2022-12-31T17:05:07.013Z</time>
      </trkpt>
      <trkpt lat="41.37154" lon="2.14467">
        <ele>66.988538</ele>
        <time>2022-12-31T17:05:12.010Z</time>
      </trkpt>
      <trkpt lat="41.3716" lon="2.14479">
        <ele>67.388497</ele>
        <time>2022-12-31T17:05:17.027Z</time>
      </trkpt>
      <trkpt lat="41.37166" lon="2.14489">
        <ele>67.733824</ele>
        <time>2022-12-31T17:05:21.031Z</time>
      </trkpt>
      <trkpt lat="41.37172" lon="2.14499">
        <ele>68.08355</ele>
        <time>2022-12-31T17:05:26.011Z</time>
      </trkpt>
      <trkpt lat="41.37178" lon="2.14508">
        <ele>68.411377</ele>
        <time>2022-12-31T17:05:31.008Z</time>
      </trkpt>
      <trkpt lat="41.37185" lon="2.14519">
        <ele>68.789655</ele>
        <time>2022-12-31T17:05:36.012Z</time>
      </trkpt>
      <trkpt lat="41.3719" lon="2.1453">
        <ele>69.047487</ele>
        <time>2022-12-31T17:05:42.005Z</time>
      </trkpt>
      <trkpt lat="41.37197" lon="2.14541">
        <ele>68.947955</ele>
        <time>2022-12-31T17:05:46.012Z</time>
      </trkpt>
      <trkpt lat="41.37203" lon="2.14552">
        <ele>68.855211</ele>
        <time>2022-12-31T17:05:50.028Z</time>
      </trkpt>
      <trkpt lat="41.37211" lon="2.14561">
        <ele>68.770741</ele>
        <time>2022-12-31T17:05:54.025Z</time>
      </trkpt>
      <trkpt lat="41.37218" lon="2.1457">
        <ele>68.681858</ele>
        <time>2022-12-31T17:05:58.002Z</time>
      </trkpt>
      <trkpt lat="41.37225" lon="2.14578">
        <ele>68.60111</ele>
        <time>2022-12-31T17:06:02.023Z</time>
      </trkpt>
      <trkpt lat="41.37231" lon="2.14588">
        <ele>68.513783</ele>
        <time>2022-12-31T17:06:06.009Z</time>
      </trkpt>
      <trkpt lat="41.37238" lon="2.14598">
        <ele>68.429443</ele>
        <time>2022-12-31T17:06:10.008Z</time>
      </trkpt>
      <trkpt lat="41.37244" lon="2.14607">
        <ele>68.345613</ele>
        <time>2022-12-31T17:06:14.009Z</time>
      </trkpt>
      <trkpt lat="41.37251" lon="2.14617">
        <ele>68.254056</ele>
        <time>2022-12-31T17:06:19.010Z</time>
      </trkpt>
      <trkpt lat="41.37258" lon="2.14624">
        <ele>68.174492</ele>
        <time>2022-12-31T17:06:23.009Z</time>
      </trkpt>
      <trkpt lat="41.37266" lon="2.14635">
        <ele>68.076227</ele>
        <time>2022-12-31T17:06:28.020Z</time>
      </trkpt>
      <trkpt lat="41.37273" lon="2.14642">
        <ele>67.996396</ele>
        <time>2022-12-31T17:06:34.014Z</time>
      </trkpt>
      <trkpt lat="41.37284" lon="2.14659">
        <ele>67.848283</ele>
        <time>2022-12-31T17:10:30.017Z</time>
      </trkpt>
      <trkpt lat="41.3729" lon="2.1467">
        <ele>67.75851</ele>
        <time>2022-12-31T17:10:43.007Z</time>
      </trkpt>
      <trkpt lat="41.37296" lon="2.14679">
        <ele>67.67672</ele>
        <time>2022-12-31T17:10:48.105Z</time>
      </trkpt>
      <trkpt lat="41.37304" lon="2.14688">
        <ele>67.585407</ele>
        <time>2022-12-31T17:10:52.997Z</time>
      </trkpt>
      <trkpt lat="41.37311" lon="2.14699">
        <ele>67.492684</ele>
        <time>2022-12-31T17:10:58.089Z</time>
      </trkpt>
      <trkpt lat="41.37318" lon="2.14709">
        <ele>67.596063</ele>
        <time>2022-12-31T17:11:02.007Z</time>
      </trkpt>
      <trkpt lat="41.37325" lon="2.14719">
        <ele>67.733916</ele>
        <time>2022-12-31T17:11:06.011Z</time>
      </trkpt>
      <trkpt lat="41.37332" lon="2.14729">
        <ele>67.865702</ele>
        <time>2022-12-31T17:11:10.005Z</time>
      </trkpt>
      <trkpt lat="41.37339" lon="2.14738">
        <ele>67.995434</ele>
        <time>2022-12-31T17:11:14.002Z</time>
      </trkpt>
      <trkpt lat="41.37346" lon="2.14748">
        <ele>68.132041</ele>
        <time>2022-12-31T17:11:18.126Z</time>
      </trkpt>
      <trkpt lat="41.37355" lon="2.14756">
        <ele>68.271586</ele>
        <time>2022-12-31T17:11:22.028Z</time>
      </trkpt>
      <trkpt lat="41.37362" lon="2.14763">
        <ele>68.393175</ele>
        <time>2022-12-31T17:11:29.006Z</time>
      </trkpt>
      <trkpt lat="41.3737" lon="2.14773">
        <ele>68.528919</ele>
        <time>2022-12-31T17:11:34.013Z</time>
      </trkpt>
      <trkpt lat="41.37376" lon="2.14783">
        <ele>68.653331</ele>
        <time>2022-12-31T17:11:38.122Z</time>
      </trkpt>
      <trkpt lat="41.37382" lon="2.14792">
        <ele>68.776654</ele>
        <time>2022-12-31T17:11:41.994Z</time>
      </trkpt>
      <trkpt lat="41.37388" lon="2.14802">
        <ele>68.901704</ele>
        <time>2022-12-31T17:11:47.021Z</time>
      </trkpt>
      <trkpt lat="41.37396" lon="2.14811">
        <ele>69.034245</ele>
        <time>2022-12-31T17:11:53.010Z</time>
      </trkpt>
      <trkpt lat="41.37401" lon="2.14821">
        <ele>69.160846</ele>
        <time>2022-12-31T17:12:00.006Z</time>
      </trkpt>
      <trkpt lat="41.3741" lon="2.14829">
        <ele>69.291188</ele>
        <time>2022-12-31T17:12:04.995Z</time>
      </trkpt>
      <trkpt lat="41.37415" lon="2.14839">
        <ele>69.413099</ele>
        <time>2022-12-31T17:12:10.020Z</time>
      </trkpt>
      <trkpt lat="41.37423" lon="2.14846">
        <ele>69.535203</ele>
        <time>2022-12-31T17:12:15.024Z</time>
      </trkpt>
      <trkpt lat="41.37426" lon="2.14858">
        <ele>69.664982</ele>
        <time>2022-12-31T17:12:20.025Z</time>
      </trkpt>
      <trkpt lat="41.37429" lon="2.14871">
        <ele>69.798529</ele>
        <time>2022-12-31T17:12:25.004Z</time>
      </trkpt>
      <trkpt lat="41.37427" lon="2.14885">
        <ele>69.876375</ele>
        <time>2022-12-31T17:12:30.017Z</time>
      </trkpt>
      <trkpt lat="41.37427" lon="2.149">
        <ele>69.933309</ele>
        <time>2022-12-31T17:12:35.018Z</time>
      </trkpt>
      <trkpt lat="41.37431" lon="2.14911">
        <ele>69.985528</ele>
        <time>2022-12-31T17:12:39.018Z</time>
      </trkpt>
      <trkpt lat="41.37437" lon="2.14922">
        <ele>70.036126</ele>
        <time>2022-12-31T17:12:43.038Z</time>
      </trkpt>
      <trkpt lat="41.37439" lon="2.14934">
        <ele>70.084725</ele>
        <time>2022-12-31T17:12:50.007Z</time>
      </trkpt>
      <trkpt lat="41.37435" lon="2.14947">
        <ele>70.142707</ele>
        <time>2022-12-31T17:13:01.015Z</time>
      </trkpt>
      <trkpt lat="41.37439" lon="2.14959">
        <ele>70.19563</ele>
        <time>2022-12-31T17:13:05.008Z</time>
      </trkpt>
      <trkpt lat="41.37446" lon="2.1497">
        <ele>70.249141</ele>
        <time>2022-12-31T17:13:09.991Z</time>
      </trkpt>
      <trkpt lat="41.37455" lon="2.14972">
        <ele>70.300012</ele>
        <time>2022-12-31T17:13:16.000Z</time>
      </trkpt>
      <trkpt lat="41.37462" lon="2.14983">
        <ele>70.355366</ele>
        <time>2022-12-31T17:13:22.019Z</time>
      </trkpt>
      <trkpt lat="41.3747" lon="2.1499">
        <ele>70.406673</ele>
        <time>2022-12-31T17:13:27.014Z</time>
      </trkpt>
      <trkpt lat="41.37478" lon="2.14999">
        <ele>70.461948</ele>
        <time>2022-12-31T17:13:33.008Z</time>
      </trkpt>
      <trkpt lat="41.37485" lon="2.15008">
        <ele>70.513195</ele>
        <time>2022-12-31T17:13:39.011Z</time>
      </trkpt>
      <trkpt lat="41.37489" lon="2.1502">
        <ele>70.564121</ele>
        <time>2022-12-31T17:13:46.016Z</time>
      </trkpt>
      <trkpt lat="41.37489" lon="2.15034">
        <ele>70.620323</ele>
        <time>2022-12-31T17:13:51.012Z</time>
      </trkpt>
      <trkpt lat="41.37489" lon="2.15047">
        <ele>70.672577</ele>
        <time>2022-12-31T17:13:55.018Z</time>
      </trkpt>
      <trkpt lat="41.37486" lon="2.15062">
        <ele>70.731451</ele>
        <time>2022-12-31T17:13:59.036Z</time>
      </trkpt>
      <trkpt lat="41.37485" lon="2.15074">
        <ele>70.781487</ele>
        <time>2022-12-31T17:14:03.031Z</time>
      </trkpt>
      <trkpt lat="41.37484" lon="2.15087">
        <ele>70.576919</ele>
        <time>2022-12-31T17:14:06.005Z</time>
      </trkpt>
      <trkpt lat="41.37484" lon="2.151">
        <ele>70.341247</ele>
        <time>2022-12-31T17:14:09.019Z</time>
      </trkpt>
      <trkpt lat="41.37485" lon="2.15115">
        <ele>70.082479</ele>
        <time>2022-12-31T17:14:13.010Z</time>
      </trkpt>
      <trkpt lat="41.37484" lon="2.1513">
        <ele>69.808687</ele>
        <time>2022-12-31T17:14:16.999Z</time>
      </trkpt>
      <trkpt lat="41.37484" lon="2.15145">
        <ele>69.555942</ele>
        <time>2022-12-31T17:14:21.024Z</time>
      </trkpt>
      <trkpt lat="41.37484" lon="2.15159">
        <ele>69.297861</ele>
        <time>2022-12-31T17:14:25.014Z</time>
      </trkpt>
      <trkpt lat="41.37482" lon="2.15174">
        <ele>69.033437</ele>
        <time>2022-12-31T17:14:29.009Z</time>
      </trkpt>
      <trkpt lat="41.37483" lon="2.15188">
        <ele>68.785346</ele>
        <time>2022-12-31T17:14:33.009Z</time>
      </trkpt>
      <trkpt lat="41.37482" lon="2.15201">
        <ele>68.555816</ele>
        <time>2022-12-31T17:14:37.017Z</time>
      </trkpt>
      <trkpt lat="41.37481" lon="2.15214">
        <ele>68.341448</ele>
        <time>2022-12-31T17:14:42.005Z</time>
      </trkpt>
      <trkpt lat="41.37483" lon="2.15235">
        <ele>67.970866</ele>
        <time>2022-12-31T17:15:08.009Z</time>
      </trkpt>
      <trkpt lat="41.37482" lon="2.15249">
        <ele>67.718045</ele>
        <time>2022-12-31T17:15:12.015Z</time>
      </trkpt>
      <trkpt lat="41.37482" lon="2.15263">
        <ele>67.4636</ele>
        <time>2022-12-31T17:15:16.018Z</time>
      </trkpt>
      <trkpt lat="41.37484" lon="2.15277">
        <ele>67.225845</ele>
        <time>2022-12-31T17:15:21.004Z</time>
      </trkpt>
      <trkpt lat="41.37485" lon="2.15289">
        <ele>67.004173</ele>
        <time>2022-12-31T17:15:25.022Z</time>
      </trkpt>
      <trkpt lat="41.37484" lon="2.15303">
        <ele>66.766751</ele>
        <time>2022-12-31T17:15:28.086Z</time>
      </trkpt>
      <trkpt lat="41.37485" lon="2.15317">
        <ele>66.566012</ele>
        <time>2022-12-31T17:15:31.005Z</time>
      </trkpt>
      <trkpt lat="41.37485" lon="2.15331">
        <ele>66.515659</ele>
        <time>2022-12-31T17:15:34.009Z</time>
      </trkpt>
      <trkpt lat="41.37485" lon="2.15345">
        <ele>66.462396</ele>
        <time>2022-12-31T17:15:37.031Z</time>
      </trkpt>
      <trkpt lat="41.37485" lon="2.15361">
        <ele>66.405717</ele>
        <time>2022-12-31T17:15:40.999Z</time>
      </trkpt>
      <trkpt lat="41.37489" lon="2.15373">
        <ele>66.359094</ele>
        <time>2022-12-31T17:15:46.016Z</time>
      </trkpt>
      <trkpt lat="41.37499" lon="2.15379">
        <ele>66.30538</ele>
        <time>2022-12-31T17:15:53.002Z</time>
      </trkpt>
      <trkpt lat="41.37503" lon="2.15391">
        <ele>66.259704</ele>
        <time>2022-12-31T17:16:03.010Z</time>
      </trkpt>
      <trkpt lat="41.37503" lon="2.15404">
        <ele>66.210417</ele>
        <time>2022-12-31T17:16:07.015Z</time>
      </trkpt>
      <trkpt lat="41.37503" lon="2.15418">
        <ele>66.160072</ele>
        <time>2022-12-31T17:16:10.027Z</time>
      </trkpt>
      <trkpt lat="41.37502" lon="2.15434">
        <ele>66.103061</ele>
        <time>2022-12-31T17:16:13.014Z</time>
      </trkpt>
      <trkpt lat="41.37502" lon="2.1545">
        <ele>66.042139</ele>
        <time>2022-12-31T17:16:16.016Z</time>
      </trkpt>
      <trkpt lat="41.37502" lon="2.15462">
        <ele>65.997463</ele>
        <time>2022-12-31T17:16:18.097Z</time>
      </trkpt>
      <trkpt lat="41.37502" lon="2.1548">
        <ele>65.932877</ele>
        <time>2022-12-31T17:16:21.010Z</time>
      </trkpt>
      <trkpt lat="41.37501" lon="2.15493">
        <ele>65.886847</ele>
        <time>2022-12-31T17:16:23.019Z</time>
      </trkpt>
      <trkpt lat="41.37501" lon="2.15505">
        <ele>65.842703</ele>
        <time>2022-12-31T17:16:25.017Z</time>
      </trkpt>
      <trkpt lat="41.37501" lon="2.15518">
        <ele>65.796309</ele>
        <time>2022-12-31T17:16:27.010Z</time>
      </trkpt>
      <trkpt lat="41.375" lon="2.1553">
        <ele>65.749551</ele>
        <time>2022-12-31T17:16:28.998Z</time>
      </trkpt>
      <trkpt lat="41.37501" lon="2.15543">
        <ele>65.701053</ele>
        <time>2022-12-31T17:16:31.019Z</time>
      </trkpt>
      <trkpt lat="41.37501" lon="2.15555">
        <ele>65.545239</ele>
        <time>2022-12-31T17:16:33.014Z</time>
      </trkpt>
      <trkpt lat="41.37501" lon="2.15568">
        <ele>65.381428</ele>
        <time>2022-12-31T17:16:35.021Z</time>
      </trkpt>
      <trkpt lat="41.37502" lon="2.1558">
        <ele>65.218401</ele>
        <time>2022-12-31T17:16:37.002Z</time>
      </trkpt>
      <trkpt lat="41.37502" lon="2.15597">
        <ele>64.993256</ele>
        <time>2022-12-31T17:16:40.014Z</time>
      </trkpt>
      <trkpt lat="41.37503" lon="2.15613">
        <ele>64.778351</ele>
        <time>2022-12-31T17:16:43.003Z</time>
      </trkpt>
      <trkpt lat="41.37503" lon="2.15629">
        <ele>64.575514</ele>
        <time>2022-12-31T17:16:46.021Z</time>
      </trkpt>
      <trkpt lat="41.37502" lon="2.15645">
        <ele>64.358887</ele>
        <time>2022-12-31T17:16:49.024Z</time>
      </trkpt>
      <trkpt lat="41.37502" lon="2.15662">
        <ele>64.144265</ele>
        <time>2022-12-31T17:16:52.018Z</time>
      </trkpt>
      <trkpt lat="41.37502" lon="2.15679">
        <ele>63.916557</ele>
        <time>2022-12-31T17:16:55.026Z</time>
      </trkpt>
      <trkpt lat="41.37502" lon="2.15692">
        <ele>63.755511</ele>
        <time>2022-12-31T17:16:57.008Z</time>
      </trkpt>
      <trkpt lat="41.37502" lon="2.15705">
        <ele>63.58538</ele>
        <time>2022-12-31T17:16:59.019Z</time>
      </trkpt>
      <trkpt lat="41.37502" lon="2.15717">
        <ele>63.416342</ele>
        <time>2022-12-31T17:17:01.000Z</time>
      </trkpt>
      <trkpt lat="41.37501" lon="2.15731">
        <ele>63.243041</ele>
        <time>2022-12-31T17:17:03.016Z</time>
      </trkpt>
      <trkpt lat="41.37501" lon="2.15744">
        <ele>63.068915</ele>
        <time>2022-12-31T17:17:05.012Z</time>
      </trkpt>
      <trkpt lat="41.37501" lon="2.15757">
        <ele>62.898793</ele>
        <time>2022-12-31T17:17:07.016Z</time>
      </trkpt>
      <trkpt lat="41.37501" lon="2.15769">
        <ele>62.736485</ele>
        <time>2022-12-31T17:17:09.014Z</time>
      </trkpt>
      <trkpt lat="41.37501" lon="2.15781">
        <ele>62.578132</ele>
        <time>2022-12-31T17:17:11.011Z</time>
      </trkpt>
      <trkpt lat="41.37501" lon="2.15794">
        <ele>62.384049</ele>
        <time>2022-12-31T17:17:13.011Z</time>
      </trkpt>
      <trkpt lat="41.37502" lon="2.15807">
        <ele>62.194048</ele>
        <time>2022-12-31T17:17:15.017Z</time>
      </trkpt>
      <trkpt lat="41.37501" lon="2.15819">
        <ele>62.011768</ele>
        <time>2022-12-31T17:17:17.021Z</time>
      </trkpt>
      <trkpt lat="41.37501" lon="2.15832">
        <ele>61.808182</ele>
        <time>2022-12-31T17:17:20.006Z</time>
      </trkpt>
      <trkpt lat="41.37501" lon="2.15845">
        <ele>61.618182</ele>
        <time>2022-12-31T17:17:25.005Z</time>
      </trkpt>
      <trkpt lat="41.375" lon="2.15867">
        <ele>61.277914</ele>
        <time>2022-12-31T17:17:46.015Z</time>
      </trkpt>
      <trkpt lat="41.375" lon="2.15882">
        <ele>61.048566</ele>
        <time>2022-12-31T17:17:50.019Z</time>
      </trkpt>
      <trkpt lat="41.375" lon="2.15895">
        <ele>60.848108</ele>
        <time>2022-12-31T17:17:53.019Z</time>
      </trkpt>
      <trkpt lat="41.37501" lon="2.15911">
        <ele>60.606511</ele>
        <time>2022-12-31T17:17:56.010Z</time>
      </trkpt>
      <trkpt lat="41.37501" lon="2.15929">
        <ele>60.3453</ele>
        <time>2022-12-31T17:17:59.013Z</time>
      </trkpt>
      <trkpt lat="41.37501" lon="2.15946">
        <ele>60.073399</ele>
        <time>2022-12-31T17:18:02.019Z</time>
      </trkpt>
      <trkpt lat="41.37501" lon="2.1596">
        <ele>59.874449</ele>
        <time>2022-12-31T17:18:04.026Z</time>
      </trkpt>
      <trkpt lat="41.37501" lon="2.15972">
        <ele>59.68461</ele>
        <time>2022-12-31T17:18:06.017Z</time>
      </trkpt>
      <trkpt lat="41.37501" lon="2.15986">
        <ele>59.47647</ele>
        <time>2022-12-31T17:18:08.100Z</time>
      </trkpt>
      <trkpt lat="41.37501" lon="2.15999">
        <ele>59.274453</ele>
        <time>2022-12-31T17:18:10.021Z</time>
      </trkpt>
      <trkpt lat="41.37502" lon="2.16013">
        <ele>59.066724</ele>
        <time>2022-12-31T17:18:12.003Z</time>
      </trkpt>
      <trkpt lat="41.37502" lon="2.16026">
        <ele>58.921275</ele>
        <time>2022-12-31T17:18:14.013Z</time>
      </trkpt>
      <trkpt lat="41.37502" lon="2.16039">
        <ele>58.902567</ele>
        <time>2022-12-31T17:18:16.027Z</time>
      </trkpt>
      <trkpt lat="41.37502" lon="2.16052">
        <ele>58.884567</ele>
        <time>2022-12-31T17:18:18.108Z</time>
      </trkpt>
      <trkpt lat="41.37502" lon="2.16064">
        <ele>58.866705</ele>
        <time>2022-12-31T17:18:20.013Z</time>
      </trkpt>
      <trkpt lat="41.37502" lon="2.16077">
        <ele>58.848706</ele>
        <time>2022-12-31T17:18:22.018Z</time>
      </trkpt>
      <trkpt lat="41.37502" lon="2.1609">
        <ele>58.830561</ele>
        <time>2022-12-31T17:18:24.014Z</time>
      </trkpt>
      <trkpt lat="41.37502" lon="2.16102">
        <ele>58.812703</ele>
        <time>2022-12-31T17:18:26.016Z</time>
      </trkpt>
      <trkpt lat="41.37501" lon="2.1612">
        <ele>58.787984</ele>
        <time>2022-12-31T17:18:29.013Z</time>
      </trkpt>
      <trkpt lat="41.37501" lon="2.16137">
        <ele>58.763746</ele>
        <time>2022-12-31T17:18:32.027Z</time>
      </trkpt>
      <trkpt lat="41.37501" lon="2.1615">
        <ele>58.745581</ele>
        <time>2022-12-31T17:18:35.025Z</time>
      </trkpt>
      <trkpt lat="41.37501" lon="2.16162">
        <ele>58.728007</ele>
        <time>2022-12-31T17:18:41.008Z</time>
      </trkpt>
      <trkpt lat="41.37501" lon="2.16175">
        <ele>58.708956</ele>
        <time>2022-12-31T17:18:45.010Z</time>
      </trkpt>
      <trkpt lat="41.37501" lon="2.16189">
        <ele>58.690233</ele>
        <time>2022-12-31T17:18:48.075Z</time>
      </trkpt>
      <trkpt lat="41.37501" lon="2.16203">
        <ele>58.669944</ele>
        <time>2022-12-31T17:18:51.012Z</time>
      </trkpt>
      <trkpt lat="41.37502" lon="2.1622">
        <ele>58.645423</ele>
        <time>2022-12-31T17:18:54.025Z</time>
      </trkpt>
      <trkpt lat="41.37502" lon="2.16237">
        <ele>58.621445</ele>
        <time>2022-12-31T17:18:57.028Z</time>
      </trkpt>
      <trkpt lat="41.37502" lon="2.16249">
        <ele>58.604292</ele>
        <time>2022-12-31T17:18:59.018Z</time>
      </trkpt>
      <trkpt lat="41.37502" lon="2.16261">
        <ele>58.587106</ele>
        <time>2022-12-31T17:19:01.009Z</time>
      </trkpt>
      <trkpt lat="41.37502" lon="2.16278">
        <ele>58.49908</ele>
        <time>2022-12-31T17:19:04.014Z</time>
      </trkpt>
      <trkpt lat="41.37502" lon="2.16304">
        <ele>58.365666</ele>
        <time>2022-12-31T17:19:23.020Z</time>
      </trkpt>
      <trkpt lat="41.37501" lon="2.16317">
        <ele>58.29785</ele>
        <time>2022-12-31T17:19:26.028Z</time>
      </trkpt>
      <trkpt lat="41.37502" lon="2.16332">
        <ele>58.217573</ele>
        <time>2022-12-31T17:19:29.001Z</time>
      </trkpt>
      <trkpt lat="41.37501" lon="2.16349">
        <ele>58.130559</ele>
        <time>2022-12-31T17:19:32.008Z</time>
      </trkpt>
      <trkpt lat="41.37501" lon="2.16366">
        <ele>58.042967</ele>
        <time>2022-12-31T17:19:35.018Z</time>
      </trkpt>
      <trkpt lat="41.37501" lon="2.16383">
        <ele>57.951253</ele>
        <time>2022-12-31T17:19:38.096Z</time>
      </trkpt>
      <trkpt lat="41.37501" lon="2.164">
        <ele>57.862164</ele>
        <time>2022-12-31T17:19:41.024Z</time>
      </trkpt>
      <trkpt lat="41.37502" lon="2.16413">
        <ele>57.798545</ele>
        <time>2022-12-31T17:19:43.016Z</time>
      </trkpt>
      <trkpt lat="41.37502" lon="2.16425">
        <ele>57.73186</ele>
        <time>2022-12-31T17:19:45.012Z</time>
      </trkpt>
      <trkpt lat="41.37501" lon="2.16438">
        <ele>57.668287</ele>
        <time>2022-12-31T17:19:47.023Z</time>
      </trkpt>
      <trkpt lat="41.37501" lon="2.1645">
        <ele>57.605245</ele>
        <time>2022-12-31T17:19:49.009Z</time>
      </trkpt>
      <trkpt lat="41.37501" lon="2.16462">
        <ele>57.539588</ele>
        <time>2022-12-31T17:19:51.019Z</time>
      </trkpt>
      <trkpt lat="41.37501" lon="2.16474">
        <ele>57.476516</ele>
        <time>2022-12-31T17:19:53.012Z</time>
      </trkpt>
      <trkpt lat="41.37501" lon="2.16487">
        <ele>57.411882</ele>
        <time>2022-12-31T17:19:55.025Z</time>
      </trkpt>
      <trkpt lat="41.37501" lon="2.16504">
        <ele>57.344528</ele>
        <time>2022-12-31T17:19:58.100Z</time>
      </trkpt>
      <trkpt lat="41.37501" lon="2.16534">
        <ele>57.401633</ele>
        <time>2022-12-31T17:20:52.012Z</time>
      </trkpt>
      <trkpt lat="41.37501" lon="2.16549">
        <ele>57.43089</ele>
        <time>2022-12-31T17:20:55.029Z</time>
      </trkpt>
      <trkpt lat="41.37501" lon="2.16564">
        <ele>57.460911</ele>
        <time>2022-12-31T17:20:58.034Z</time>
      </trkpt>
      <trkpt lat="41.375" lon="2.16581">
        <ele>57.493025</ele>
        <time>2022-12-31T17:21:01.007Z</time>
      </trkpt>
      <trkpt lat="41.375" lon="2.16597">
        <ele>57.524206</ele>
        <time>2022-12-31T17:21:04.020Z</time>
      </trkpt>
      <trkpt lat="41.375" lon="2.16614">
        <ele>57.557888</ele>
        <time>2022-12-31T17:21:07.023Z</time>
      </trkpt>
      <trkpt lat="41.37499" lon="2.16626">
        <ele>57.581526</ele>
        <time>2022-12-31T17:21:09.023Z</time>
      </trkpt>
      <trkpt lat="41.375" lon="2.16638">
        <ele>57.604805</ele>
        <time>2022-12-31T17:21:11.013Z</time>
      </trkpt>
      <trkpt lat="41.375" lon="2.16651">
        <ele>57.629971</ele>
        <time>2022-12-31T17:21:13.007Z</time>
      </trkpt>
      <trkpt lat="41.375" lon="2.16663">
        <ele>57.653212</ele>
        <time>2022-12-31T17:21:15.014Z</time>
      </trkpt>
      <trkpt lat="41.375" lon="2.16681">
        <ele>57.687497</ele>
        <time>2022-12-31T17:21:18.030Z</time>
      </trkpt>
      <trkpt lat="41.375" lon="2.16699">
        <ele>57.721182</ele>
        <time>2022-12-31T17:21:21.014Z</time>
      </trkpt>
      <trkpt lat="41.375" lon="2.16716">
        <ele>57.754477</ele>
        <time>2022-12-31T17:21:24.011Z</time>
      </trkpt>
      <trkpt lat="41.375" lon="2.16728">
        <ele>57.777904</ele>
        <time>2022-12-31T17:21:26.031Z</time>
      </trkpt>
      <trkpt lat="41.37499" lon="2.16745">
        <ele>57.804028</ele>
        <time>2022-12-31T17:21:29.016Z</time>
      </trkpt>
      <trkpt lat="41.37499" lon="2.1676">
        <ele>57.809407</ele>
        <time>2022-12-31T17:21:32.010Z</time>
      </trkpt>
      <trkpt lat="41.37499" lon="2.16775">
        <ele>57.814541</ele>
        <time>2022-12-31T17:21:36.013Z</time>
      </trkpt>
      <trkpt lat="41.375" lon="2.16787">
        <ele>57.818825</ele>
        <time>2022-12-31T17:21:40.016Z</time>
      </trkpt>
      <trkpt lat="41.375" lon="2.16799">
        <ele>57.823211</ele>
        <time>2022-12-31T17:21:51.007Z</time>
      </trkpt>
      <trkpt lat="41.375" lon="2.16813">
        <ele>57.828095</ele>
        <time>2022-12-31T17:21:54.999Z</time>
      </trkpt>
      <trkpt lat="41.37499" lon="2.16826">
        <ele>57.832835</ele>
        <time>2022-12-31T17:21:58.105Z</time>
      </trkpt>
      <trkpt lat="41.375" lon="2.16841">
        <ele>57.83809</ele>
        <time>2022-12-31T17:22:01.019Z</time>
      </trkpt>
      <trkpt lat="41.37501" lon="2.16857">
        <ele>57.843901</ele>
        <time>2022-12-31T17:22:04.021Z</time>
      </trkpt>
      <trkpt lat="41.37501" lon="2.16873">
        <ele>57.849603</ele>
        <time>2022-12-31T17:22:07.023Z</time>
      </trkpt>
      <trkpt lat="41.375" lon="2.16889">
        <ele>57.855458</ele>
        <time>2022-12-31T17:22:10.018Z</time>
      </trkpt>
      <trkpt lat="41.375" lon="2.16906">
        <ele>57.861305</ele>
        <time>2022-12-31T17:22:13.015Z</time>
      </trkpt>
      <trkpt lat="41.37501" lon="2.16923">
        <ele>57.86753</ele>
        <time>2022-12-31T17:22:16.018Z</time>
      </trkpt>
      <trkpt lat="41.37502" lon="2.16939">
        <ele>57.873239</ele>
        <time>2022-12-31T17:22:19.032Z</time>
      </trkpt>
      <trkpt lat="41.37501" lon="2.16957">
        <ele>57.87951</ele>
        <time>2022-12-31T17:22:22.024Z</time>
      </trkpt>
      <trkpt lat="41.37502" lon="2.16974">
        <ele>57.885781</ele>
        <time>2022-12-31T17:22:25.011Z</time>
      </trkpt>
      <trkpt lat="41.37501" lon="2.16992">
        <ele>57.650037</ele>
        <time>2022-12-31T17:22:28.104Z</time>
      </trkpt>
      <trkpt lat="41.375" lon="2.17009">
        <ele>57.301815</ele>
        <time>2022-12-31T17:22:31.012Z</time>
      </trkpt>
      <trkpt lat="41.37498" lon="2.17027">
        <ele>56.937987</ele>
        <time>2022-12-31T17:22:34.020Z</time>
      </trkpt>
      <trkpt lat="41.37497" lon="2.17039">
        <ele>56.679096</ele>
        <time>2022-12-31T17:22:36.030Z</time>
      </trkpt>
      <trkpt lat="41.37496" lon="2.17052">
        <ele>56.423209</ele>
        <time>2022-12-31T17:22:38.096Z</time>
      </trkpt>
      <trkpt lat="41.37495" lon="2.17065">
        <ele>56.160294</ele>
        <time>2022-12-31T17:22:40.030Z</time>
      </trkpt>
      <trkpt lat="41.37494" lon="2.17078">
        <ele>55.895734</ele>
        <time>2022-12-31T17:22:42.025Z</time>
      </trkpt>
      <trkpt lat="41.37493" lon="2.1709">
        <ele>55.646437</ele>
        <time>2022-12-31T17:22:44.032Z</time>
      </trkpt>
      <trkpt lat="41.37492" lon="2.17103">
        <ele>55.392853</ele>
        <time>2022-12-31T17:22:46.031Z</time>
      </trkpt>
      <trkpt lat="41.37491" lon="2.17115">
        <ele>55.147291</ele>
        <time>2022-12-31T17:22:48.126Z</time>
      </trkpt>
      <trkpt lat="41.3749" lon="2.17133">
        <ele>54.784249</ele>
        <time>2022-12-31T17:22:51.014Z</time>
      </trkpt>
      <trkpt lat="41.37489" lon="2.17146">
        <ele>54.519498</ele>
        <time>2022-12-31T17:22:53.014Z</time>
      </trkpt>
      <trkpt lat="41.37488" lon="2.17159">
        <ele>54.261286</ele>
        <time>2022-12-31T17:22:55.017Z</time>
      </trkpt>
      <trkpt lat="41.37487" lon="2.17171">
        <ele>54.005696</ele>
        <time>2022-12-31T17:22:57.009Z</time>
      </trkpt>
      <trkpt lat="41.37486" lon="2.17184">
        <ele>53.747805</ele>
        <time>2022-12-31T17:22:59.016Z</time>
      </trkpt>
      <trkpt lat="41.37486" lon="2.17197">
        <ele>53.483546</ele>
        <time>2022-12-31T17:23:01.028Z</time>
      </trkpt>
      <trkpt lat="41.37485" lon="2.1721">
        <ele>53.224654</ele>
        <time>2022-12-31T17:23:03.029Z</time>
      </trkpt>
      <trkpt lat="41.37484" lon="2.17223">
        <ele>52.981843</ele>
        <time>2022-12-31T17:23:05.016Z</time>
      </trkpt>
      <trkpt lat="41.37483" lon="2.17236">
        <ele>52.787201</ele>
        <time>2022-12-31T17:23:07.005Z</time>
      </trkpt>
      <trkpt lat="41.37483" lon="2.17249">
        <ele>52.598246</ele>
        <time>2022-12-31T17:23:09.001Z</time>
      </trkpt>
      <trkpt lat="41.37482" lon="2.17262">
        <ele>52.403249</ele>
        <time>2022-12-31T17:23:10.999Z</time>
      </trkpt>
      <trkpt lat="41.3748" lon="2.17279">
        <ele>52.157941</ele>
        <time>2022-12-31T17:23:14.031Z</time>
      </trkpt>
      <trkpt lat="41.37479" lon="2.17292">
        <ele>51.958739</ele>
        <time>2022-12-31T17:23:18.101Z</time>
      </trkpt>
      <trkpt lat="41.37479" lon="2.17312">
        <ele>51.664725</ele>
        <time>2022-12-31T17:23:52.002Z</time>
      </trkpt>
      <trkpt lat="41.37478" lon="2.17325">
        <ele>51.471696</ele>
        <time>2022-12-31T17:23:55.010Z</time>
      </trkpt>
      <trkpt lat="41.37478" lon="2.17342">
        <ele>51.230581</ele>
        <time>2022-12-31T17:23:58.116Z</time>
      </trkpt>
      <trkpt lat="41.37478" lon="2.17359">
        <ele>50.97759</ele>
        <time>2022-12-31T17:24:01.017Z</time>
      </trkpt>
      <trkpt lat="41.37476" lon="2.17377">
        <ele>50.716245</ele>
        <time>2022-12-31T17:24:04.025Z</time>
      </trkpt>
      <trkpt lat="41.37475" lon="2.17394">
        <ele>50.454156</ele>
        <time>2022-12-31T17:24:07.007Z</time>
      </trkpt>
      <trkpt lat="41.37473" lon="2.17412">
        <ele>50.194798</ele>
        <time>2022-12-31T17:24:10.012Z</time>
      </trkpt>
      <trkpt lat="41.37472" lon="2.17429">
        <ele>49.943642</ele>
        <time>2022-12-31T17:24:13.009Z</time>
      </trkpt>
      <trkpt lat="41.3747" lon="2.17445">
        <ele>49.699355</ele>
        <time>2022-12-31T17:24:16.031Z</time>
      </trkpt>
      <trkpt lat="41.37468" lon="2.17462">
        <ele>49.447504</ele>
        <time>2022-12-31T17:24:19.013Z</time>
      </trkpt>
      <trkpt lat="41.37467" lon="2.17478">
        <ele>49.212773</ele>
        <time>2022-12-31T17:24:22.025Z</time>
      </trkpt>
      <trkpt lat="41.37466" lon="2.17493">
        <ele>48.989586</ele>
        <time>2022-12-31T17:24:26.000Z</time>
      </trkpt>
      <trkpt lat="41.37466" lon="2.17507">
        <ele>48.786332</ele>
        <time>2022-12-31T17:24:29.030Z</time>
      </trkpt>
      <trkpt lat="41.37465" lon="2.17522">
        <ele>48.569853</ele>
        <time>2022-12-31T17:24:32.023Z</time>
      </trkpt>
      <trkpt lat="41.37462" lon="2.17535">
        <ele>48.362979</ele>
        <time>2022-12-31T17:24:35.011Z</time>
      </trkpt>
      <trkpt lat="41.37458" lon="2.17546">
        <ele>48.179598</ele>
        <time>2022-12-31T17:24:39.010Z</time>
      </trkpt>
      <trkpt lat="41.37449" lon="2.17553">
        <ele>47.9843</ele>
        <time>2022-12-31T17:24:47.015Z</time>
      </trkpt>
      <trkpt lat="41.37439" lon="2.17546">
        <ele>47.771161</ele>
        <time>2022-12-31T17:24:52.023Z</time>
      </trkpt>
      <trkpt lat="41.3743" lon="2.17543">
        <ele>47.574896</ele>
        <time>2022-12-31T17:24:56.022Z</time>
      </trkpt>
      <trkpt lat="41.3742" lon="2.17538">
        <ele>47.367499</ele>
        <time>2022-12-31T17:25:00.003Z</time>
      </trkpt>
      <trkpt lat="41.3741" lon="2.17534">
        <ele>47.168947</ele>
        <time>2022-12-31T17:25:03.016Z</time>
      </trkpt>
      <trkpt lat="41.37401" lon="2.1753">
        <ele>46.979493</ele>
        <time>2022-12-31T17:25:06.010Z</time>
      </trkpt>
      <trkpt lat="41.3739" lon="2.17528">
        <ele>46.757958</ele>
        <time>2022-12-31T17:25:09.012Z</time>
      </trkpt>
      <trkpt lat="41.37378" lon="2.1753">
        <ele>46.525951</ele>
        <time>2022-12-31T17:25:12.003Z</time>
      </trkpt>
      <trkpt lat="41.37367" lon="2.17532">
        <ele>46.307661</ele>
        <time>2022-12-31T17:25:15.009Z</time>
      </trkpt>
      <trkpt lat="41.37357" lon="2.17537">
        <ele>46.102457</ele>
        <time>2022-12-31T17:25:18.102Z</time>
      </trkpt>
      <trkpt lat="41.37348" lon="2.17542">
        <ele>45.990782</ele>
        <time>2022-12-31T17:25:21.017Z</time>
      </trkpt>
      <trkpt lat="41.37339" lon="2.17549">
        <ele>45.962941</ele>
        <time>2022-12-31T17:25:24.014Z</time>
      </trkpt>
      <trkpt lat="41.37329" lon="2.17552">
        <ele>45.936141</ele>
        <time>2022-12-31T17:25:28.083Z</time>
      </trkpt>
      <trkpt lat="41.37322" lon="2.17565">
        <ele>45.905138</ele>
        <time>2022-12-31T17:25:32.027Z</time>
      </trkpt>
      <trkpt lat="41.37321" lon="2.17581">
        <ele>45.873432</ele>
        <time>2022-12-31T17:25:36.018Z</time>
      </trkpt>
      <trkpt lat="41.37323" lon="2.17594">
        <ele>45.848662</ele>
        <time>2022-12-31T17:25:39.015Z</time>
      </trkpt>
      <trkpt lat="41.37322" lon="2.17608">
        <ele>45.819566</ele>
        <time>2022-12-31T17:25:42.018Z</time>
      </trkpt>
      <trkpt lat="41.37321" lon="2.17621">
        <ele>45.794033</ele>
        <time>2022-12-31T17:25:45.019Z</time>
      </trkpt>
      <trkpt lat="41.37319" lon="2.17634">
        <ele>45.767282</ele>
        <time>2022-12-31T17:25:49.017Z</time>
      </trkpt>
      <trkpt lat="41.3731" lon="2.17639">
        <ele>45.742754</ele>
        <time>2022-12-31T17:25:54.012Z</time>
      </trkpt>
      <trkpt lat="41.37302" lon="2.17649">
        <ele>45.7133</ele>
        <time>2022-12-31T17:26:05.010Z</time>
      </trkpt>
      <trkpt lat="41.37297" lon="2.17661">
        <ele>45.687666</ele>
        <time>2022-12-31T17:26:10.016Z</time>
      </trkpt>
      <trkpt lat="41.37287" lon="2.17665">
        <ele>45.659773</ele>
        <time>2022-12-31T17:26:18.097Z</time>
      </trkpt>
      <trkpt lat="41.37277" lon="2.17664">
        <ele>45.633341</ele>
        <time>2022-12-31T17:26:22.009Z</time>
      </trkpt>
      <trkpt lat="41.37269" lon="2.1767">
        <ele>45.609467</ele>
        <time>2022-12-31T17:26:30.029Z</time>
      </trkpt>
      <trkpt lat="41.37263" lon="2.17684">
        <ele>45.578221</ele>
        <time>2022-12-31T17:26:34.060Z</time>
      </trkpt>
      <trkpt lat="41.37253" lon="2.17685">
        <ele>45.550775</ele>
        <time>2022-12-31T17:26:38.094Z</time>
      </trkpt>
      <trkpt lat="41.37246" lon="2.17676">
        <ele>45.530297</ele>
        <time>2022-12-31T17:26:40.012Z</time>
      </trkpt>
      <trkpt lat="41.37237" lon="2.17669">
        <ele>45.530297</ele>
        <time>2022-12-31T17:26:43.029Z</time>
      </trkpt>
      <trkpt lat="41.37227" lon="2.17664">
        <ele>45.530297</ele>
        <time>2022-12-31T17:26:46.012Z</time>
      </trkpt>
      <trkpt lat="41.37218" lon="2.17656">
        <ele>45.530297</ele>
        <time>2022-12-31T17:26:49.022Z</time>
      </trkpt>
      <trkpt lat="41.37211" lon="2.17649">
        <ele>45.530297</ele>
        <time>2022-12-31T17:26:52.035Z</time>
      </trkpt>
      <trkpt lat="41.37203" lon="2.17641">
        <ele>45.530297</ele>
        <time>2022-12-31T17:26:57.005Z</time>
      </trkpt>
      <trkpt lat="41.37193" lon="2.17641">
        <ele>45.530297</ele>
        <time>2022-12-31T17:27:02.020Z</time>
      </trkpt>
      <trkpt lat="41.37182" lon="2.1764">
        <ele>45.530297</ele>
        <time>2022-12-31T17:27:07.017Z</time>
      </trkpt>
      <trkpt lat="41.37172" lon="2.1764">
        <ele>45.530297</ele>
        <time>2022-12-31T17:27:13.000Z</time>
      </trkpt>
      <trkpt lat="41.37163" lon="2.17642">
        <ele>45.530297</ele>
        <time>2022-12-31T17:27:28.108Z</time>
      </trkpt>
      <trkpt lat="41.37154" lon="2.17643">
        <ele>45.530297</ele>
        <time>2022-12-31T17:27:34.994Z</time>
      </trkpt>
      <trkpt lat="41.37154" lon="2.17643">
        <ele>45.530297</ele>
        <time>2022-12-31T17:27:43.262Z</time>
      </trkpt>
    </trkseg>
  </trk>
</gpx>